Date StartTime U_cm/s V_cm/s W_cm/s Ustd_cm/s Vstd_cm/s Wstd_cm/s Uvar_(cm/s)^2 Vvar_(cm/s)^2 Wvar_(cm/s)^2 KE_(m/s)^2 TurbulentKE_(m/s)^2 HorizWindSpeed_cm/s FrictionSpeec_cm/s DragCoef SpeedOfSound_m/s SonicTemperature_C Pressure_mb 
06/27/2014  00:00:00     -248.533      -90.145       -9.658      117.652       89.751       52.941    13841.946     8055.205     2802.709        4.734        1.235      264.376       52.745        0.040      341.324       15.954      859.935
06/27/2014  00:01:00     -263.732      -92.240      -10.309      101.279      107.164       61.220    10257.425    11484.220     3747.882        5.183        1.274      279.398       60.409        0.047      341.346       15.991      859.928
06/27/2014  00:02:00     -245.620      -84.733       -2.575      176.807      121.061       69.714    31260.656    14655.796     4860.047        5.914        2.539      259.825       77.601        0.089      341.437       16.147      859.915
06/27/2014  00:03:00     -356.428      -45.869      -47.025      108.428       79.067       52.354    11756.675     6251.645     2740.902        7.605        1.037      359.368       53.160        0.022      341.487       16.229      859.932
06/27/2014  00:04:00     -316.749      -41.143      -17.310      111.205       78.204       58.611    12366.554     6115.789     3435.307        6.212        1.096      319.410       55.795        0.031      341.456       16.177      859.931
06/27/2014  00:05:00     -311.109      -89.951      -24.706       90.343       86.606       49.160     8161.828     7500.647     2416.731        6.178        0.904      323.852       40.881        0.016      341.437       16.144      859.899
06/27/2014  00:06:00     -331.614      -94.080      -13.821      109.593       90.017       53.618    12010.684     8103.071     2874.921        7.100        1.149      344.702       47.455        0.019      341.468       16.196      859.867
06/27/2014  00:07:00     -348.373      -57.285      -34.474       96.664       58.876       51.095     9343.920     3466.389     2610.721        7.062        0.771      353.051       48.316        0.019      341.477       16.212      859.840
06/27/2014  00:08:00     -252.207      -85.988      -20.410      104.839       65.374       39.081    10991.209     4273.816     1527.327        4.410        0.840      266.463       33.468        0.016      341.479       16.217      859.824
06/27/2014  00:09:00     -224.515      -61.092      -26.168       51.659       68.284       51.475     2668.622     4662.719     2649.670        3.240        0.499      232.678       23.199        0.010      341.409       16.097      859.819
06/27/2014  00:10:00     -146.517      -70.002       -5.477       76.954       63.429       42.370     5921.976     4023.277     1795.198        1.907        0.587      162.381       28.626        0.031      341.395       16.075      859.814
06/27/2014  00:11:00     -162.864      -36.606      -19.216       52.302       69.662       34.797     2735.517     4852.757     1210.866        1.852        0.440      166.928       24.739        0.022      341.438       16.149      859.800
06/27/2014  00:12:00     -166.113      -23.430       -8.661       83.128       79.573       48.244     6910.283     6331.867     2327.497        2.189        0.778      167.757       45.888        0.075      341.336       15.975      859.791
06/27/2014  00:13:00     -154.142      -14.841      -21.203       88.567       80.864       46.622     7844.165     6538.982     2173.585        2.049        0.828      154.855       43.072        0.077      341.314       15.940      859.788
06/27/2014  00:14:00     -180.049       14.448      -32.446       88.908       60.765       33.905     7904.707     3692.346     1149.570        2.321        0.637      180.627       27.176        0.023      341.307       15.927      859.800
06/27/2014  00:15:00     -246.335      -94.898      -33.440       99.195       74.373       45.171     9839.710     5531.332     2040.423        4.411        0.871      263.982       39.850        0.023      341.221       15.780      859.797
06/27/2014  00:16:00     -244.468      -48.240      -21.621      110.355       95.019       45.613    12178.244     9028.659     2080.515        4.292        1.164      249.182       34.078        0.019      341.101       15.577      859.812
06/27/2014  00:17:00     -236.588       -0.189      -29.151      106.896       79.706       55.971    11426.669     6353.091     3132.799        3.886        1.046      236.588       47.401        0.040      341.088       15.556      859.827
06/27/2014  00:18:00     -195.966      136.859      -34.792       62.102      108.430       57.060     3856.664    11757.137     3255.891        3.860        0.943      239.025       44.252        0.034      341.044       15.480      859.827
06/27/2014  00:19:00     -159.787       43.097      -15.832      111.718       99.375       52.340    12480.864     9875.343     2739.424        2.636        1.255      165.497       56.435        0.116      341.064       15.516      859.817
06/27/2014  00:20:00     -137.672       55.254      -24.194       54.811       63.125       31.496     3004.233     3984.749      991.984        1.529        0.399      148.346       28.038        0.036      341.169       15.696      859.810
06/27/2014  00:21:00     -145.901       28.940      -19.752       32.646       37.846       29.529     1065.763     1432.320      871.988        1.294        0.169      148.743       15.235        0.010      341.235       15.808      859.819
06/27/2014  00:22:00     -155.331      -42.793      -26.785       63.572       63.003       36.212     4041.456     3969.342     1311.280        1.800        0.466      161.118       21.363        0.018      341.287       15.893      859.848
06/27/2014  00:23:00     -167.031      -43.884      -26.323       87.993       64.698       46.652     7742.796     4185.885     2176.447        2.231        0.705      172.699       34.201        0.039      341.391       16.069      859.869
06/27/2014  00:24:00     -193.891       -4.785      -30.697       75.230       69.534       42.244     5659.535     4834.936     1784.589        2.542        0.614      193.950       29.196        0.023      341.446       16.161      859.887
06/27/2014  00:25:00     -156.853       96.320      -33.189       59.442       89.726       42.625     3533.390     8050.776     1816.871        2.419        0.670      184.067       21.624        0.014      341.406       16.094      859.871
06/27/2014  00:26:00     -235.661      -41.133      -19.655       80.437       96.036       46.194     6470.162     9223.002     2133.844        3.772        0.891      239.224       39.353        0.027      341.296       15.906      859.841
06/27/2014  00:27:00     -235.927      -69.866      -17.220      102.835       90.248       52.493    10574.972     8144.776     2755.502        4.115        1.074      246.055       38.154        0.024      341.225       15.787      859.819
06/27/2014  00:28:00     -188.700      -50.566      -17.866       74.135       85.769       43.401     5496.003     7356.297     1883.679        2.661        0.737      195.358       30.016        0.024      341.299       15.912      859.834
06/27/2014  00:29:00     -166.495      -47.101       -8.868       84.091       82.761       43.158     7071.342     6849.346     1862.649        2.290        0.789      173.029       37.931        0.048      341.284       15.887      859.867
06/27/2014  00:30:00     -210.891      -83.405      -19.613      102.778       75.624       41.216    10563.277     5718.962     1698.790        3.490        0.899      226.785       42.617        0.035      341.262       15.849      859.889
06/27/2014  00:31:00     -238.709       -8.548      -10.466      131.162       77.716       49.948    17203.473     6039.722     2494.768        4.145        1.287      238.862       58.547        0.060      341.231       15.799      859.910
06/27/2014  00:32:00     -181.505     -100.263       -3.672       87.350       66.100       50.624     7630.004     4369.187     2562.751        2.878        0.728      207.356       42.429        0.042      341.161       15.679      859.928
06/27/2014  00:33:00     -194.927      -66.202      -12.245       70.526       62.253       38.098     4973.857     3875.405     1451.461        2.641        0.515      205.862       26.211        0.016      341.146       15.653      859.931
06/27/2014  00:34:00     -135.577       47.569       -4.799       60.903       92.274       32.991     3709.154     8514.542     1088.431        1.699        0.666      143.680       29.038        0.041      341.236       15.808      859.921
06/27/2014  00:35:00     -125.413      129.120      -27.619       61.893       63.114       37.523     3830.685     3983.417     1407.947        2.119        0.461      180.001       28.720        0.025      341.292       15.901      859.917
06/27/2014  00:36:00     -122.277       51.031       -8.499       72.609       43.624       33.684     5272.034     1903.036     1134.583        1.297        0.415      132.498       36.578        0.076      341.415       16.110      859.949
06/27/2014  00:37:00     -108.146       80.585      -23.991       57.542       39.482       28.292     3311.064     1558.804      800.413        1.222        0.284      134.869       27.792        0.042      341.536       16.315      859.973
06/27/2014  00:38:00      -89.413       37.572       -8.694       38.599       49.155       20.310     1489.878     2416.187      412.494        0.690        0.216       96.986       20.301        0.044      341.549       16.339      859.976
06/27/2014  00:39:00      -99.908        4.455      -16.472       39.106       78.781       30.656     1529.249     6206.430      939.809        0.947        0.434      100.008       23.275        0.054      341.540       16.322      859.961
06/27/2014  00:40:00     -157.578       58.132      -20.452       57.097       49.773       29.285     3260.030     2477.311      857.631        1.761        0.330      167.959       22.774        0.018      341.565       16.363      859.958
06/27/2014  00:41:00     -105.989       81.852      -16.181       51.757       49.980       32.147     2678.816     2497.981     1033.398        1.220        0.311      133.915       28.808        0.046      341.622       16.460      859.942
06/27/2014  00:42:00      -70.543       17.399       -8.502       39.612       36.727       22.610     1569.075     1348.838      511.200        0.439        0.171       72.657       16.011        0.049      341.654       16.516      859.925
06/27/2014  00:43:00     -103.032       16.002      -21.446       56.378       63.662       27.948     3178.442     4052.818      781.113        0.967        0.401      104.268       30.953        0.088      341.619       16.455      859.917
06/27/2014  00:44:00      -91.033      -40.022      -14.835       65.143       45.631       27.311     4243.652     2082.152      745.908        0.859        0.354       99.442       26.891        0.073      341.611       16.443      859.903
06/27/2014  00:45:00     -183.492      -89.968      -20.059       42.671       33.306       26.084     1820.773     1109.284      680.367        2.289        0.181      204.361        9.766        0.002      341.381       16.053      859.888
06/27/2014  00:46:00     -168.584      -41.629       -1.379       68.121       47.747       34.733     4640.537     2279.824     1206.347        1.914        0.406      173.647       35.405        0.042      341.323       15.956      859.892
06/27/2014  00:47:00     -141.503       43.180      -11.852       83.323       66.836       47.813     6942.688     4467.101     2286.048        1.786        0.685      147.945       47.128        0.101      341.435       16.144      859.921
06/27/2014  00:48:00     -185.699       51.175      -18.850       65.765       74.242       34.663     4325.019     5511.927     1201.517        2.425        0.552      192.621       20.309        0.011      341.448       16.165      859.965
06/27/2014  00:49:00     -163.242       45.995      -20.456       86.514       65.429       43.486     7484.634     4280.995     1891.061        2.142        0.683      169.598       41.630        0.060      341.391       16.068      859.972
06/27/2014  00:50:00      -67.479       78.817       -2.621       67.146       71.755       44.106     4508.566     5148.791     1945.350        1.119        0.580      103.757       35.227        0.115      341.378       16.048      859.962
06/27/2014  00:51:00      -52.184      136.976      -16.865       56.652       88.059       36.275     3209.407     7754.413     1315.846        1.702        0.614      146.580       45.243        0.095      341.378       16.049      859.955
06/27/2014  00:52:00     -157.541      161.699      -38.432       79.789       86.137       43.442     6366.335     7419.605     1887.173        3.406        0.784      225.756       54.286        0.058      341.427       16.129      859.967
06/27/2014  00:53:00     -117.476      147.077      -17.688       46.953       49.302       37.566     2204.610     2430.672     1411.170        2.089        0.302      188.235       28.903        0.024      341.338       15.980      859.954
06/27/2014  00:54:00     -101.619      188.509      -27.310       46.946       86.433       40.479     2203.946     7470.649     1638.542        2.896        0.566      214.154       41.363        0.037      341.324       15.956      859.938
06/27/2014  00:55:00     -171.491      193.164      -38.421       60.579       79.038       40.976     3669.764     6247.011     1679.023        3.989        0.580      258.305       38.734        0.022      341.331       15.966      859.921
06/27/2014  00:56:00     -146.190      136.509      -18.552       80.169       59.669       48.098     6427.110     3560.332     2313.419        2.632        0.615      200.015       49.224        0.061      341.328       15.964      859.904
06/27/2014  00:57:00     -114.264       93.093       -8.488       52.447       53.452       31.721     2750.655     2857.158     1006.215        1.420        0.331      147.386       19.831        0.018      341.371       16.038      859.871
06/27/2014  00:58:00     -115.578      157.399      -20.575       64.698       80.118       36.520     4185.846     6418.844     1333.714        2.525        0.597      195.277       32.208        0.027      341.338       15.980      859.872
06/27/2014  00:59:00      -95.620      159.434       -5.011       51.893      101.369       46.771     2692.852    10275.657     2187.533        2.487        0.758      185.910       48.262        0.067      341.330       15.965      859.895
06/27/2014  01:00:00      -90.625      110.962      -19.623       57.492       80.685       38.650     3305.327     6510.051     1493.803        1.611        0.565      143.267       37.353        0.068      341.344       15.990      859.905
06/27/2014  01:01:00     -149.829      147.685      -30.904       49.880       69.888       38.762     2487.989     4884.365     1502.480        2.704        0.444      210.380       37.195        0.031      341.301       15.915      859.883
06/27/2014  01:02:00     -170.981       84.195      -27.059       59.161       61.189       35.056     3500.002     3744.133     1228.890        2.276        0.424      190.587       35.615        0.035      341.348       15.997      859.846
06/27/2014  01:03:00      -86.895      160.502      -19.698       84.355       70.308       48.560     7115.685     4943.160     2358.036        2.406        0.721      182.515       46.938        0.066      341.259       15.845      859.834
06/27/2014  01:04:00     -122.797      133.495      -31.414       50.229       60.487       36.477     2522.998     3658.695     1330.590        2.070        0.376      181.383       35.598        0.039      341.299       15.913      859.836
06/27/2014  01:05:00      -81.460      141.839      -16.351       52.582       58.816       31.004     2764.858     3459.365      961.222        1.710        0.359      163.566       29.864        0.033      341.292       15.903      859.849
06/27/2014  01:06:00     -138.866      169.534      -33.748       58.462       87.050       40.739     3417.858     7577.706     1659.649        3.091        0.633      219.147       37.946        0.030      341.313       15.938      859.856
06/27/2014  01:07:00     -142.869      115.717      -33.695       70.261       52.323       32.476     4936.583     2737.649     1054.683        2.183        0.436      183.853       31.981        0.030      341.349       15.998      859.874
06/27/2014  01:08:00     -123.794       82.822      -13.236       57.678       59.242       35.603     3326.709     3509.599     1267.546        1.523        0.405      148.944       38.238        0.066      341.321       15.952      859.879
06/27/2014  01:09:00      -62.541       97.178      -16.477       38.753       34.566       26.061     1501.815     1194.777      679.191        0.850        0.169      115.563       23.223        0.040      341.297       15.913      859.866
06/27/2014  01:10:00     -108.674       81.814      -20.436       57.551       53.273       33.130     3312.075     2837.983     1097.610        1.308        0.362      136.028       27.322        0.040      341.386       16.062      859.867
06/27/2014  01:11:00     -112.575      160.516      -29.860       43.014       78.744       36.147     1850.174     6200.638     1306.577        2.434        0.468      196.057       31.616        0.026      341.313       15.937      859.878
06/27/2014  01:12:00      -77.821       80.170      -17.957       28.464       41.658       19.950      810.212     1735.374      398.015        0.787        0.147      111.729       16.248        0.021      341.313       15.940      859.884
06/27/2014  01:13:00     -115.670      102.007      -20.946       56.847       42.446       35.917     3231.559     1801.678     1290.007        1.527        0.316      154.224       36.842        0.057      341.362       16.021      859.897
06/27/2014  01:14:00     -124.963       -1.724       -3.381       42.161       58.474       22.523     1777.577     3419.181      507.264        1.067        0.285      124.975       16.757        0.018      341.476       16.215      859.904
06/27/2014  01:15:00     -120.878      -12.716      -20.834       58.181       42.219       22.363     3385.060     1782.472      500.108        1.044        0.283      121.545       22.998        0.036      341.408       16.100      859.905
06/27/2014  01:16:00      -59.961      -24.773        3.477       35.834       33.991       17.631     1284.042     1155.414      310.866        0.349        0.138       64.878       16.388        0.064      341.409       16.101      859.897
06/27/2014  01:17:00      -43.528      -23.034       -1.918       42.924       30.235       20.987     1842.462      914.173      440.447        0.281        0.160       49.246       23.405        0.226      341.496       16.249      859.891
06/27/2014  01:18:00      -71.457       38.195      -14.614       46.409       57.982       26.016     2153.827     3361.878      676.846        0.648        0.310       81.024       34.023        0.176      341.485       16.230      859.900
06/27/2014  01:19:00     -121.928       46.704      -12.303       57.384       37.796       24.058     3292.921     1428.502      578.765        1.125        0.265      130.567       19.815        0.023      341.418       16.115      859.912
06/27/2014  01:20:00      -67.020      159.892      -15.286       54.724       48.566       32.118     2994.685     2358.652     1031.548        1.834        0.319      173.370       25.957        0.022      341.350       16.001      859.898
06/27/2014  01:21:00      -36.675      133.150       -6.457       40.227       71.384       32.179     1618.243     5095.671     1035.456        1.343        0.387      138.108       33.597        0.059      341.372       16.039      859.871
06/27/2014  01:22:00     -123.972      227.236      -27.060       84.178       98.043       46.290     7086.007     9612.479     2142.797        4.329        0.942      258.853       39.587        0.023      341.387       16.060      859.853
06/27/2014  01:23:00     -127.468      170.647      -42.499       53.318       48.264       32.702     2842.850     2329.379     1069.413        2.671        0.312      212.999       27.385        0.017      341.379       16.047      859.883
06/27/2014  01:24:00      -75.506       99.431      -13.920       34.850       57.352       28.115     1214.539     3289.301      790.452        1.054        0.265      124.851       30.316        0.059      341.436       16.145      859.888
06/27/2014  01:25:00      -82.537       54.147       -2.805       56.453       46.518       27.057     3186.889     2163.964      732.101        0.792        0.304       98.712       20.427        0.043      341.461       16.189      859.894
06/27/2014  01:26:00      -98.651      109.508      -28.208       51.132       63.963       29.020     2614.494     4091.235      842.173        1.503        0.377      147.391       30.436        0.043      341.458       16.182      859.910
06/27/2014  01:27:00     -120.279       67.275      -23.621       51.104       45.934       27.831     2611.633     2109.890      774.578        1.252        0.275      137.815       25.769        0.035      341.465       16.196      859.936
06/27/2014  01:28:00     -175.751       98.499      -24.976       50.987       76.528       37.888     2599.684     5856.537     1435.526        2.555        0.495      201.471       22.589        0.013      341.453       16.175      859.950
06/27/2014  01:29:00     -145.181      113.006      -26.775       66.514       53.532       37.226     4424.165     2865.674     1385.747        2.162        0.434      183.977       34.642        0.035      341.428       16.131      859.950
06/27/2014  01:30:00     -127.427       79.070      -26.048       48.288       32.851       25.984     2331.733     1079.164      675.173        1.363        0.204      149.966       24.711        0.027      341.448       16.168      859.949
06/27/2014  01:31:00     -114.823       84.056       -6.266       57.897       89.186       37.436     3352.100     7954.058     1401.450        1.650        0.635      142.301       34.397        0.058      341.473       16.209      859.944
06/27/2014  01:32:00     -117.096      170.654      -19.743       61.238       75.506       50.058     3750.036     5701.158     2505.767        2.759        0.598      206.964       45.815        0.049      341.394       16.074      859.938
06/27/2014  01:33:00     -129.486      199.566      -35.136       62.853       76.314       45.895     3950.458     5823.788     2106.357        3.485        0.594      237.893       35.632        0.022      341.446       16.158      859.925
06/27/2014  01:34:00     -132.005      259.967      -38.599       80.475      105.114       48.042     6476.218    11048.948     2308.053        5.316        0.992      291.561       50.950        0.031      341.408       16.096      859.921
06/27/2014  01:35:00     -123.702      187.565      -35.942       59.003       68.249       33.437     3481.333     4657.919     1118.003        3.051        0.463      224.684       29.683        0.017      341.375       16.041      859.905
06/27/2014  01:36:00      -83.154      144.930      -24.599       66.063       75.510       39.151     4364.302     5701.803     1532.834        2.006        0.580      167.090       36.712        0.048      341.406       16.094      859.904
06/27/2014  01:37:00      -80.992      219.886      -18.867       70.911       90.117       47.565     5028.423     8121.091     2262.417        3.534        0.771      234.328       48.755        0.043      341.385       16.058      859.897
06/27/2014  01:38:00     -123.551      207.279      -34.761       78.214       81.565       47.086     6117.418     6652.847     2217.122        3.721        0.749      241.308       48.856        0.041      341.375       16.041      859.892
06/27/2014  01:39:00      -81.992      272.292      -35.132       54.213       75.035       35.487     2939.046     5630.177     1259.348        4.596        0.491      284.369       29.720        0.011      341.335       15.974      859.901
06/27/2014  01:40:00      -94.818      176.188      -26.336       46.928       65.020       29.427     2202.199     4227.597      865.945        2.401        0.365      200.082       27.109        0.018      341.405       16.092      859.917
06/27/2014  01:41:00      -72.347      119.431       -8.920       43.380       78.732       33.460     1881.828     6198.801     1119.592        1.439        0.460      139.635       31.120        0.050      341.433       16.140      859.941
06/27/2014  01:42:00      -97.176      104.276      -12.193       53.719       60.740       30.701     2885.706     3689.299      942.556        1.399        0.376      142.536       30.323        0.045      341.396       16.078      859.955
06/27/2014  01:43:00      -57.124       72.357        4.998       40.786       74.252       34.687     1663.488     5513.363     1203.194        0.845        0.419       92.188       27.966        0.092      341.395       16.078      859.943
06/27/2014  01:44:00      -41.820      130.768      -24.052       54.906       60.936       25.317     3014.679     3713.173      640.927        1.340        0.368      137.292       28.889        0.044      341.387       16.064      859.926
06/27/2014  01:45:00      -71.837      132.907      -16.141       46.581       53.780       28.582     2169.811     2892.274      816.914        1.448        0.294      151.078       26.419        0.031      341.388       16.064      859.915
06/27/2014  01:46:00      -87.029       70.310       -7.150       46.697       42.866       31.639     2180.580     1837.531     1001.028        0.879        0.251      111.882       22.710        0.041      341.476       16.215      859.901
06/27/2014  01:47:00     -145.358       46.769      -12.361       55.933       42.488       26.803     3128.514     1805.243      718.391        1.456        0.283      152.697        6.198        0.002      341.368       16.031      859.879
06/27/2014  01:48:00     -105.040       69.276      -15.148       42.440       45.365       24.060     1801.130     2057.952      578.873        1.025        0.222      125.828       17.711        0.020      341.382       16.056      859.864
06/27/2014  01:49:00     -102.915       68.957      -20.409       47.040       42.605       27.964     2212.808     1815.191      781.983        1.029        0.240      123.881       10.215        0.007      341.415       16.111      859.855
06/27/2014  01:50:00      -36.714      100.060      -21.048       45.851       46.406       25.355     2102.326     2153.555      642.856        0.835        0.245      106.583       21.218        0.040      341.381       16.053      859.841
06/27/2014  01:51:00      -37.607      109.767      -17.233       39.998       85.029       21.767     1599.832     7229.930      473.821        1.153        0.465      116.030       33.256        0.082      341.453       16.176      859.822
06/27/2014  01:52:00      -85.157       46.959      -10.444       45.534       29.045       23.065     2073.348      843.615      532.007        0.651        0.172       97.246       20.521        0.045      341.496       16.248      859.818
06/27/2014  01:53:00     -157.822      113.124      -33.643       59.506       52.074       33.864     3540.953     2711.695     1146.796        2.312        0.370      194.177       30.620        0.025      341.370       16.033      859.814
06/27/2014  01:54:00      -69.557      110.292      -15.473       59.777       52.039       32.140     3573.261     2708.099     1032.968        1.228        0.366      130.394       34.013        0.068      341.349       15.999      859.802
06/27/2014  01:55:00      -86.509      148.170      -28.468       39.580       44.040       26.760     1566.584     1939.549      716.088        1.723        0.211      171.576       22.729        0.018      341.368       16.032      859.781
06/27/2014  01:56:00      -75.229      108.245       -7.353       47.398       53.364       33.901     2246.568     2847.708     1149.269        1.184        0.312      131.819       32.494        0.061      341.368       16.032      859.764
06/27/2014  01:57:00     -132.557      104.716      -16.755       46.657       70.076       37.628     2176.851     4910.644     1415.845        1.866        0.425      168.929       32.821        0.038      341.396       16.077      859.779
06/27/2014  01:58:00      -98.754      100.245      -19.602       63.795       70.167       30.578     4069.751     4923.363      935.014        1.506        0.496      140.717       26.804        0.036      341.382       16.054      859.796
06/27/2014  01:59:00      -89.962      138.583      -17.090       65.294       73.476       34.304     4263.330     5398.727     1176.733        1.921        0.542      165.222       26.863        0.026      341.362       16.022      859.808
06/27/2014  02:00:00     -160.083      208.917      -32.807       89.726       78.233       49.022     8050.717     6120.405     2403.164        4.346        0.829      263.198       55.061        0.044      341.334       15.972      859.807
06/27/2014  02:01:00     -170.971      189.643      -45.101       66.775       58.572       41.824     4458.946     3430.668     1749.279        3.843        0.482      255.334       32.058        0.016      341.315       15.938      859.815
06/27/2014  02:02:00      -94.758      164.868      -25.600       78.979       75.225       47.296     6237.648     5658.739     2236.938        2.547        0.707      190.160       32.048        0.028      341.330       15.966      859.817
06/27/2014  02:03:00      -70.239      258.015      -24.039       59.573       96.176       50.062     3548.898     9249.750     2506.245        4.369        0.765      267.405       47.104        0.031      341.295       15.906      859.809
06/27/2014  02:04:00     -100.968      159.344      -15.218       69.532       94.002       46.505     4834.693     8836.465     2162.750        2.582        0.792      188.640       52.933        0.079      341.336       15.976      859.810
06/27/2014  02:05:00      -88.958      150.632      -15.173       63.533      101.104       55.624     4036.388    10222.067     3094.005        2.409        0.868      174.939       58.266        0.111      341.328       15.962      859.821
06/27/2014  02:06:00      -52.156      103.158      -19.814       45.790       91.200       29.572     2096.753     8317.404      874.476        1.252        0.564      115.593       36.002        0.097      341.371       16.037      859.826
06/27/2014  02:07:00      -90.255      152.425      -29.163       64.340       87.470       40.604     4139.664     7650.986     1648.646        2.283        0.672      177.142       43.425        0.060      341.396       16.077      859.847
06/27/2014  02:08:00     -135.447      218.421      -37.467       59.647       76.268       44.572     3557.824     5816.832     1986.699        3.941        0.568      257.009       37.602        0.021      341.319       15.946      859.851
06/27/2014  02:09:00     -178.488      178.760      -40.900       71.705       89.319       46.560     5141.665     7977.863     2167.820        4.038        0.764      252.613       50.955        0.041      341.342       15.984      859.850
06/27/2014  02:10:00     -171.107      160.563      -42.380       76.786       97.567       45.672     5896.019     9519.414     2085.966        3.717        0.875      234.645       52.141        0.049      341.343       15.986      859.864
06/27/2014  02:11:00     -131.634      141.046      -18.495       62.862       92.997       36.221     3951.586     8648.396     1311.979        2.574        0.696      192.929       29.517        0.023      341.389       16.065      859.853
06/27/2014  02:12:00     -140.556       14.544      -17.062      125.373       84.079       43.260    15718.513     7069.359     1871.437        2.245        1.233      141.307       48.212        0.116      341.453       16.176      859.834
06/27/2014  02:13:00     -204.320       61.524      -20.968       70.408       74.717       37.466     4957.231     5582.611     1403.676        2.896        0.597      213.382       23.683        0.012      341.384       16.057      859.827
06/27/2014  02:14:00     -165.900       30.821      -21.867       75.599       63.318       46.735     5715.232     4009.113     2184.155        2.043        0.595      168.739       41.984        0.062      341.360       16.016      859.801
06/27/2014  02:15:00      -87.982       16.705       -9.268       96.034       48.999       45.521     9222.582     2400.879     2072.182        1.090        0.685       89.554       47.738        0.284      341.398       16.082      859.773
06/27/2014  02:16:00     -229.662      -37.672      -18.653      111.112       74.031       48.166    12345.886     5480.527     2319.942        3.733        1.007      232.731       42.428        0.033      341.299       15.912      859.769
06/27/2014  02:17:00     -222.075       84.952      -40.019       77.337       81.421       48.021     5980.986     6629.359     2305.991        3.652        0.746      237.769       46.415        0.038      341.328       15.960      859.758
06/27/2014  02:18:00     -164.754       23.896      -26.904       89.094       70.683       45.696     7937.672     4996.109     2088.155        2.173        0.751      166.478       41.842        0.063      341.373       16.041      859.761
06/27/2014  02:19:00     -143.553       78.373      -23.822       89.071       89.812       54.517     7933.721     8066.188     2972.133        2.314        0.949      163.554       58.122        0.126      341.370       16.035      859.766
06/27/2014  02:20:00     -184.483       67.210      -25.365       76.799       63.118       39.712     5898.142     3983.835     1577.056        2.532        0.573      196.345       42.045        0.046      341.338       15.979      859.771
06/27/2014  02:21:00     -176.724       74.783      -41.566       53.995       62.138       38.046     2915.506     3861.167     1447.469        2.339        0.411      191.895       21.984        0.013      341.329       15.964      859.784
06/27/2014  02:22:00     -197.613       31.134      -31.607       88.408       91.125       41.679     7815.973     8303.845     1737.151        2.944        0.893      200.051       38.885        0.038      341.376       16.042      859.779
06/27/2014  02:23:00     -175.026       95.998      -32.262       93.525       94.103       53.877     8746.931     8855.366     2902.706        3.069        1.025      199.624       46.730        0.055      341.322       15.951      859.777
06/27/2014  02:24:00     -180.867       66.275      -33.449       84.536       83.086       39.334     7146.386     6903.350     1547.128        2.691        0.780      192.627       27.878        0.021      341.355       16.009      859.772
06/27/2014  02:25:00     -154.585      206.309      -43.167       68.827       85.672       46.785     4737.092     7339.657     2188.870        4.129        0.713      257.798       28.873        0.013      341.308       15.927      859.760
06/27/2014  02:26:00     -142.000      178.829      -22.289       58.141       96.855       43.241     3380.420     9380.909     1869.755        3.363        0.732      228.350       37.167        0.026      341.299       15.913      859.750
06/27/2014  02:27:00     -164.885      182.366      -34.623      102.699       83.577       55.069    10547.141     6985.124     3032.634        4.110        1.028      245.854       62.471        0.065      341.315       15.940      859.757
06/27/2014  02:28:00     -171.259      261.290      -45.692       95.855       78.198       50.149     9188.181     6114.986     2514.877        5.875        0.891      312.413       42.592        0.019      341.264       15.851      859.751
06/27/2014  02:29:00     -124.640      163.018       -7.286       91.716      105.373       61.344     8411.761    11103.414     3763.114        3.272        1.164      205.207       47.174        0.053      341.292       15.902      859.732
06/27/2014  02:30:00     -136.711      179.009      -21.792       86.549       91.072       56.100     7490.768     8294.075     3147.188        3.507        0.947      225.242       63.913        0.081      341.301       15.917      859.732
06/27/2014  02:31:00     -182.480      233.401      -49.903       64.394       76.736       42.467     4146.563     5888.482     1803.430        5.105        0.592      296.268       39.337        0.018      341.327       15.960      859.741
06/27/2014  02:32:00     -171.639      166.174      -38.529       79.021       78.968       49.304     6244.281     6235.947     2430.855        3.673        0.746      238.901       50.517        0.045      341.309       15.928      859.736
06/27/2014  02:33:00      -95.543      116.655      -13.279       58.430       82.966       45.333     3414.022     6883.387     2055.055        1.763        0.618      150.788       38.267        0.064      341.360       16.016      859.742
06/27/2014  02:34:00      -62.438      110.133       -8.080       47.026       69.340       36.234     2211.428     4807.976     1312.938        1.221        0.417      126.601       38.070        0.090      341.346       15.994      859.754
06/27/2014  02:35:00     -112.894      107.222      -10.050       77.362       96.664       38.631     5984.811     9344.007     1492.375        2.058        0.841      155.697       34.021        0.048      341.356       16.010      859.764
06/27/2014  02:36:00     -137.785      182.621      -25.125       82.054       95.637       50.978     6732.892     9146.531     2598.729        3.572        0.924      228.769       52.523        0.053      341.346       15.992      859.770
06/27/2014  02:37:00     -146.066      178.285      -26.045       55.971       58.078       39.535     3132.709     3373.033     1562.997        3.093        0.403      230.479       38.285        0.028      341.375       16.041      859.774
06/27/2014  02:38:00     -142.708      164.889      -27.882       56.299       74.412       45.238     3169.532     5537.159     2046.501        2.954        0.538      218.069       41.875        0.037      341.393       16.071      859.766
06/27/2014  02:39:00     -144.462      202.737      -31.439       59.206       48.967       32.675     3505.305     2397.781     1067.685        3.496        0.349      248.941       28.442        0.013      341.362       16.018      859.748
06/27/2014  02:40:00     -134.586      135.156      -22.219       52.780       47.720       33.194     2785.718     2277.163     1101.827        2.152        0.308      190.737       24.948        0.017      341.433       16.140      859.729
06/27/2014  02:41:00     -160.009      152.210      -33.407       68.065       58.497       39.462     4632.904     3421.894     1557.212        2.975        0.481      220.841       39.135        0.031      341.351       16.001      859.698
06/27/2014  02:42:00     -131.299      172.616      -22.647       74.254       93.761       48.144     5513.639     8791.108     2317.839        3.208        0.831      216.877       47.583        0.048      341.465       16.194      859.662
06/27/2014  02:43:00     -120.940      136.845      -22.723       78.088       69.268       36.898     6097.688     4798.065     1361.456        2.306        0.613      182.628       41.966        0.053      341.475       16.210      859.653
06/27/2014  02:44:00     -147.270      152.042      -38.270       67.704       86.449       38.459     4583.895     7473.368     1479.083        2.990        0.677      211.672       47.056        0.049      341.405       16.094      859.661
06/27/2014  02:45:00     -179.396      141.281      -30.708       51.188       93.913       44.903     2620.169     8819.723     2016.324        3.327        0.673      228.349       41.813        0.034      341.361       16.018      859.681
06/27/2014  02:46:00     -165.444      150.562      -42.036       41.943       56.131       31.051     1759.220     3150.663      964.140        2.884        0.294      223.697       20.879        0.009      341.382       16.053      859.691
06/27/2014  02:47:00      -95.228       84.352      -15.119       42.182       41.353       24.950     1779.294     1710.100      622.526        1.026        0.206      127.215       21.800        0.029      341.498       16.251      859.704
06/27/2014  02:48:00      -72.128       79.660        4.636       72.149       73.283       43.129     5205.505     5370.342     1860.142        1.200        0.622      107.463       41.047        0.146      341.634       16.481      859.716
06/27/2014  02:49:00      -83.769       36.912       -7.788       54.885       77.622       33.234     3012.314     6025.209     1104.489        0.929        0.507       91.541       28.085        0.094      341.689       16.575      859.722
06/27/2014  02:50:00     -106.914       38.836       -5.198       76.229       70.874       43.330     5810.917     5023.176     1877.523        1.284        0.636      113.749       28.876        0.064      341.762       16.698      859.704
06/27/2014  02:51:00      -72.421       95.256        1.909       61.676       73.146       46.393     3803.990     5350.364     2152.305        1.281        0.565      119.660       34.626        0.084      341.832       16.818      859.686
06/27/2014  02:52:00     -140.048       32.002      -19.247       63.773       47.850       37.444     4066.939     2289.595     1402.089        1.438        0.388      143.658       35.016        0.059      341.894       16.923      859.677
06/27/2014  02:53:00      -73.568       41.268        1.477       48.429       44.512       29.838     2345.382     1981.344      890.280        0.617        0.261       84.352       21.129        0.063      341.902       16.937      859.684
06/27/2014  02:54:00      -83.737       38.399       -1.627       76.297       41.806       35.855     5821.269     1747.779     1285.585        0.867        0.443       92.121       38.468        0.174      341.875       16.892      859.719
06/27/2014  02:55:00      -78.460       -9.481        3.562       40.179       49.681       34.544     1614.315     2468.249     1193.269        0.577        0.264       79.031       23.102        0.085      341.944       17.008      859.745
06/27/2014  02:56:00     -127.978       25.131      -35.688       53.395       67.632       39.192     2851.044     4574.148     1536.025        1.362        0.448      130.422       22.802        0.031      341.947       17.014      859.754
06/27/2014  02:57:00     -170.881      -17.469      -15.483      129.469       68.834       49.163    16762.331     4738.178     2416.974        2.683        1.196      171.772       57.711        0.113      341.940       17.000      859.738
06/27/2014  02:58:00      -68.169        7.827        3.822       61.962       82.264       44.579     3839.287     6767.391     1987.270        0.866        0.630       68.617       33.471        0.238      341.917       16.963      859.735
06/27/2014  02:59:00     -152.435      -22.304      -19.190       74.411       71.755       37.386     5537.024     5148.840     1397.680        1.809        0.604      154.058       26.650        0.030      341.977       17.063      859.733
06/27/2014  03:00:00     -177.419       42.112      -19.204      104.791       76.386       48.957    10981.216     5834.881     2396.794        2.641        0.961      182.348       51.668        0.080      341.997       17.098      859.725
06/27/2014  03:01:00     -223.545       51.077      -24.533      136.879       64.895       40.291    18735.865     4211.406     1623.377        3.887        1.229      229.306       46.470        0.041      341.979       17.066      859.733
06/27/2014  03:02:00     -139.522      -58.952       -2.090       50.846       64.157       36.000     2585.349     4116.124     1295.983        1.547        0.400      151.465       27.451        0.033      342.001       17.103      859.758
06/27/2014  03:03:00     -202.593      -76.371      -18.029       63.082       67.586       36.926     3979.390     4567.871     1363.549        2.855        0.496      216.510       27.799        0.016      341.932       16.985      859.767
06/27/2014  03:04:00     -113.972      -69.617        8.797       99.160       58.180       55.577     9832.714     3384.956     3088.791        1.711        0.815      133.552       55.763        0.174      341.954       17.023      859.745
06/27/2014  03:05:00     -253.447        7.994      -22.191       95.958       66.248       41.369     9207.929     4388.784     1711.384        4.005        0.765      253.573       41.542        0.027      342.008       17.114      859.722
06/27/2014  03:06:00     -204.156      -44.805       -3.413      130.604       63.064       47.022    17057.414     3977.007     2211.070        3.347        1.162      209.015       56.637        0.073      341.983       17.072      859.714
06/27/2014  03:07:00     -265.020       -8.136      -17.499       96.804       73.931       45.488     9371.000     5465.863     2069.123        4.375        0.845      265.145       42.476        0.026      341.987       17.078      859.713
06/27/2014  03:08:00     -239.956      -43.015      -17.408       74.073       83.470       45.569     5486.780     6967.241     2076.541        3.713        0.727      243.781       42.362        0.030      341.956       17.026      859.713
06/27/2014  03:09:00     -166.896      -25.822      -14.928       50.540       61.178       30.027     2554.264     3742.808      901.600        1.797        0.360      168.882       21.203        0.016      342.008       17.117      859.707
06/27/2014  03:10:00     -195.795       -7.472      -18.881       86.562       61.446       37.951     7492.984     3775.555     1440.305        2.573        0.635      195.937       34.106        0.030      342.045       17.177      859.689
06/27/2014  03:11:00     -178.472      -73.977       -7.254       82.120       54.563       36.950     6743.714     2977.146     1365.300        2.423        0.554      193.196       25.709        0.018      341.984       17.074      859.669
06/27/2014  03:12:00     -261.791      -68.884      -13.795      108.429       88.280       52.809    11756.952     7793.329     2788.820        4.790        1.117      270.702       49.487        0.033      341.971       17.052      859.661
06/27/2014  03:13:00     -200.568      -34.902       -7.473       83.986       72.748       41.634     7053.567     5292.224     1733.415        2.779        0.704      203.582       35.973        0.031      341.977       17.062      859.650
06/27/2014  03:14:00     -147.501      -74.110       -2.724      118.928       99.158       60.054    14143.980     9832.379     3606.431        2.741        1.379      165.072       70.794        0.184      341.950       17.017      859.631
06/27/2014  03:15:00     -164.180      -32.674        0.892      141.855       61.195       54.061    20122.789     3744.771     2922.634        2.740        1.340      167.400       75.141        0.201      341.954       17.023      859.648
06/27/2014  03:16:00     -239.199      -50.286      -16.011      110.109       79.886       48.557    12124.057     6381.805     2357.826        4.043        1.043      244.428       53.176        0.047      341.987       17.076      859.680
06/27/2014  03:17:00     -292.278      -13.103       -9.721      103.036       91.357       53.195    10616.407     8346.142     2829.755        5.374        1.090      292.572       51.325        0.031      342.008       17.112      859.703
06/27/2014  03:18:00     -312.488      -11.613      -29.677       77.363       60.050       44.674     5984.969     3606.004     1995.767        5.512        0.579      312.704       40.139        0.016      342.005       17.107      859.724
06/27/2014  03:19:00     -248.882      -86.520      -22.058      153.310      111.015       61.961    23504.070    12324.337     3839.221        5.478        1.983      263.492       70.457        0.072      342.014       17.124      859.722
06/27/2014  03:20:00     -223.230      -84.556        3.371       99.638       97.794       46.808     9927.825     9563.761     2190.979        3.933        1.084      238.707       54.164        0.051      342.004       17.106      859.704
06/27/2014  03:21:00     -245.360      -59.460      -10.756      118.078      114.972       53.725    13942.500    13218.504     2886.335        4.694        1.502      252.462       58.835        0.054      342.050       17.184      859.679
06/27/2014  03:22:00     -246.274        2.488      -45.489       59.405       59.062       36.153     3529.012     3488.348     1307.025        3.552        0.416      246.287       29.148        0.014      342.115       17.294      859.653
06/27/2014  03:23:00     -175.464      -24.328      -12.033       64.019       75.302       35.160     4098.394     5670.413     1236.251        2.126        0.550      177.142       30.772        0.030      342.104       17.278      859.644
06/27/2014  03:24:00     -144.727      -49.568        3.977       99.050       88.884       48.437     9810.937     7900.364     2346.152        2.173        1.003      152.980       57.044        0.139      342.059       17.202      859.622
06/27/2014  03:25:00     -167.715        8.873       -6.029       70.979       92.208       40.245     5037.963     8502.343     1619.686        2.170        0.758      167.950       29.138        0.030      342.091       17.255      859.601
06/27/2014  03:26:00     -138.657      -23.292       -2.737       60.263       43.037       33.026     3631.621     1852.172     1090.729        1.317        0.329      140.600       27.646        0.039      342.074       17.229      859.597
06/27/2014  03:27:00     -152.595      -63.327       11.280      105.747       74.574       50.897    11182.328     5561.252     2590.529        2.338        0.967      165.213       62.778        0.144      342.050       17.186      859.604
06/27/2014  03:28:00     -124.649      -89.410        5.256       63.912       58.442       38.556     4084.685     3415.485     1486.587        1.627        0.449      153.400       32.297        0.044      342.047       17.181      859.618
06/27/2014  03:29:00      -33.216      -17.104       25.599       47.045       52.165       32.248     2213.247     2721.187     1039.963        0.401        0.299       37.361       21.076        0.318      342.030       17.155      859.625
06/27/2014  03:30:00      -53.511      -70.527       11.238       97.033       82.364       41.876     9415.306     6783.904     1753.609        1.296        0.898       88.529       49.031        0.307      342.027       17.150      859.625
06/27/2014  03:31:00      -60.259      -61.952        9.868       56.162       58.679       34.363     3154.207     3443.224     1180.790        0.767        0.389       86.424       35.852        0.172      342.033       17.158      859.633
06/27/2014  03:32:00      -90.647     -131.477       -5.125       74.869       61.119       46.737     5605.303     3735.527     2184.334        1.853        0.576      159.697       40.633        0.065      342.056       17.198      859.635
06/27/2014  03:33:00     -132.965     -114.352        0.933       74.549       71.079       48.183     5557.486     5052.238     2321.627        2.184        0.647      175.374       46.205        0.069      342.028       17.150      859.634
06/27/2014  03:34:00     -104.413      -75.160        1.921       57.846       56.346       41.844     3346.157     3174.858     1750.934        1.241        0.414      128.651       36.789        0.082      342.059       17.203      859.638
06/27/2014  03:35:00      -95.312      -90.836       -4.307       54.763       48.566       41.004     2999.000     2358.620     1681.322        1.220        0.352      131.665       32.386        0.061      342.059       17.204      859.629
06/27/2014  03:36:00      -55.633      -72.878       15.821       81.441       61.653       34.099     6632.681     3801.096     1162.773        1.012        0.580       91.686       28.936        0.100      342.077       17.231      859.615
06/27/2014  03:37:00     -176.601      -72.319       -8.197       79.936       72.594       34.897     6389.705     5269.961     1217.785        2.468        0.644      190.835       21.974        0.013      342.061       17.205      859.620
06/27/2014  03:38:00     -191.376      -96.089      -21.385      123.697       68.625       44.838    15300.872     4709.413     2010.476        3.416        1.101      214.145       35.894        0.028      342.083       17.239      859.610
06/27/2014  03:39:00     -118.926      -68.201        3.957      113.332       84.258       46.616    12844.094     7099.454     2173.032        2.046        1.106      137.095       48.253        0.124      342.085       17.244      859.612
06/27/2014  03:40:00     -243.140       -5.962       -4.995      116.950      120.412       63.104    13677.419    14499.002     3982.091        4.566        1.608      243.213       58.218        0.057      342.075       17.227      859.603
06/27/2014  03:41:00     -174.005        3.132       -2.067      107.142       61.427       41.024    11479.480     3773.332     1683.009        2.361        0.847      174.033       47.595        0.075      342.070       17.219      859.593
06/27/2014  03:42:00      -71.294      -66.002        2.919       54.360       68.849       31.129     2954.966     4740.159      969.045        0.905        0.433       97.155       30.956        0.102      342.102       17.277      859.586
06/27/2014  03:43:00      -75.079      -17.105       10.077       85.423       42.560       34.441     7297.075     1811.375     1186.160        0.816        0.515       77.003       42.132        0.299      342.079       17.236      859.575
06/27/2014  03:44:00     -185.372     -118.706        0.123       85.840       58.420       41.700     7368.520     3412.928     1738.880        3.048        0.626      220.122       45.220        0.042      342.084       17.243      859.596
06/27/2014  03:45:00     -101.884      -73.597       12.538      115.490       76.501       43.034    13338.040     5852.425     1851.926        1.849        1.052      125.686       55.446        0.195      342.079       17.236      859.594
06/27/2014  03:46:00     -240.500     -105.724       -8.790       79.909       84.527       49.413     6385.460     7144.891     2441.615        4.253        0.799      262.713       38.736        0.022      342.065       17.209      859.597
06/27/2014  03:47:00     -163.112      -54.322       -7.801       63.341       80.557       34.680     4012.086     6489.468     1202.683        2.066        0.585      171.919       29.276        0.029      342.054       17.193      859.612
06/27/2014  03:48:00      -10.820       20.102        2.771       63.711       33.995       32.819     4059.037     1155.638     1077.110        0.341        0.315       22.829       22.731        0.991      341.993       17.093      859.607
06/27/2014  03:49:00      -20.996      -57.479       12.915       95.536       63.313       36.941     9127.123     4008.545     1364.609        0.920        0.725       61.194       45.108        0.543      342.093       17.259      859.620
06/27/2014  03:50:00      -52.570      -39.469       12.863       67.205       53.067       36.941     4516.468     2816.130     1364.624        0.659        0.435       65.738       34.174        0.270      342.056       17.197      859.617
06/27/2014  03:51:00      -41.157       -1.417       16.904       64.405       37.204       28.380     4148.008     1384.103      805.413        0.416        0.317       41.181       31.709        0.593      342.063       17.210      859.609
06/27/2014  03:52:00      -51.018      -46.400        9.370       45.564       42.325       25.997     2076.054     1791.429      675.852        0.469        0.227       68.962       24.503        0.126      342.051       17.189      859.615
06/27/2014  03:53:00      -35.956      -94.875       -0.364       34.810       30.990       28.056     1211.750      960.384      787.157        0.663        0.148      101.460       16.962        0.028      342.101       17.275      859.606
06/27/2014  03:54:00      -18.969      -70.268        1.866       21.630       33.017       23.909      467.871     1090.127      571.640        0.371        0.106       72.783        9.784        0.018      342.055       17.198      859.608
06/27/2014  03:55:00        2.437      -35.634       20.375       46.356       53.099       37.326     2148.874     2819.493     1393.217        0.403        0.318       35.717       27.852        0.608      342.085       17.248      859.586
06/27/2014  03:56:00     -150.384      -21.172        5.797       90.688       60.959       37.878     8224.245     3716.042     1434.715        1.823        0.669      151.868       44.185        0.085      342.053       17.193      859.572
06/27/2014  03:57:00      -23.559      -25.430        3.927       86.671       52.247       58.032     7511.905     2729.727     3367.729        0.741        0.680       34.665       54.772        2.496      342.061       17.207      859.550
06/27/2014  03:58:00      -56.255      -19.560        5.583       75.429       35.102       32.839     5689.470     1232.159     1078.404        0.579        0.400       59.558       32.929        0.306      342.072       17.225      859.548
06/27/2014  03:59:00      -36.799     -100.647        6.296       45.594       33.893       24.739     2078.801     1148.739      612.038        0.768        0.192      107.164       23.835        0.049      342.072       17.225      859.562
06/27/2014  04:00:00      -64.438      -77.598        0.291       54.511       38.588       23.777     2971.496     1489.004      565.361        0.760        0.251      100.865        7.784        0.006      342.084       17.245      859.572
06/27/2014  04:01:00       48.597      -49.833        3.792       47.314       57.062       37.691     2238.628     3256.106     1420.623        0.589        0.346       69.606       37.216        0.286      341.840       16.831      859.563
06/27/2014  04:02:00       87.716      -89.082      -23.778       45.881       52.514       36.429     2105.108     2757.758     1327.048        1.119        0.309      125.018       36.779        0.087      341.831       16.818      859.549
06/27/2014  04:03:00       27.797      -69.311       -5.166       28.509       43.157       29.038      812.750     1862.538      843.199        0.456        0.176       74.677       24.826        0.111      341.879       16.899      859.538
06/27/2014  04:04:00      -24.165      -24.272        3.675       29.303       28.551       17.296      858.680      815.148      299.153        0.158        0.099       34.250       14.170        0.171      342.109       17.288      859.528
06/27/2014  04:05:00        1.463       30.615      -11.984       43.850       34.986       27.049     1922.793     1224.007      731.673        0.248        0.194       30.650       17.459        0.324      341.830       16.815      859.519
06/27/2014  04:06:00      -72.534      -62.420      -13.918       68.362       32.861       33.402     4673.421     1079.857     1115.683        0.811        0.343       95.694       25.746        0.072      342.007       17.116      859.519
06/27/2014  04:07:00       62.600      -50.671       16.589       53.877       56.257       44.087     2902.678     3164.809     1943.640        0.739        0.401       80.538       41.765        0.269      341.638       16.489      859.517
06/27/2014  04:08:00      100.903     -139.277      -22.615       46.065       69.034       38.825     2121.943     4765.731     1507.343        1.924        0.420      171.987       31.955        0.035      341.634       16.481      859.502
06/27/2014  04:09:00       37.916     -113.324        4.052       48.753       32.410       29.699     2376.856     1050.431      882.022        0.930        0.215      119.498       24.817        0.043      341.548       16.338      859.525
06/27/2014  04:10:00       45.749      -51.452      -12.335       27.064       37.092       21.985      732.450     1375.824      483.334        0.374        0.130       68.850       10.644        0.024      341.360       16.018      859.536
06/27/2014  04:11:00       28.187      -12.547       21.799       33.848       35.792       31.304     1145.655     1281.070      979.919        0.242        0.170       30.853       23.980        0.604      341.318       15.948      859.512
06/27/2014  04:12:00       71.234      -58.888        1.129       34.307       36.391       36.007     1176.960     1324.295     1296.474        0.617        0.190       92.423       20.441        0.049      341.288       15.898      859.483
06/27/2014  04:13:00       35.101      -72.768       10.801       41.485       63.345       35.930     1720.967     4012.647     1290.998        0.683        0.351       80.791       39.357        0.237      341.518       16.286      859.465
06/27/2014  04:14:00       30.541      -88.169       -9.115       44.271       46.978       28.906     1959.916     2206.971      835.541        0.690        0.250       93.309       30.931        0.110      341.759       16.694      859.475
06/27/2014  04:15:00      -10.933        1.334       17.783       15.971       31.080       22.151      255.077      965.960      490.664        0.107        0.086       11.015       10.950        0.988      341.678       16.556      859.461
06/27/2014  04:16:00       21.836      -27.081       23.557       35.241       37.426       37.536     1241.957     1400.715     1408.927        0.291        0.203       34.788       23.723        0.465      341.422       16.124      859.426
06/27/2014  04:17:00       40.938      -18.218       17.329       39.254       30.276       31.463     1540.857      916.608      989.947        0.288        0.172       44.809       26.853        0.359      341.382       16.057      859.416
06/27/2014  04:18:00       11.936      -18.195       27.163       27.512       40.182       29.100      756.919     1614.588      846.832        0.221        0.161       21.761       15.134        0.484      341.474       16.212      859.388
06/27/2014  04:19:00       59.213      -78.710       -4.712       59.044       78.228       40.590     3486.220     6119.621     1647.574        1.049        0.563       98.496       46.427        0.222      341.478       16.218      859.359
06/27/2014  04:20:00       52.695      -63.240       10.691       34.992       38.147       39.088     1224.440     1455.199     1527.888        0.555        0.210       82.317       28.989        0.124      341.387       16.063      859.346
06/27/2014  04:21:00       68.012      -69.783       -7.563       57.670       65.582       32.195     3325.853     4300.992     1036.492        0.911        0.433       97.443       28.530        0.086      341.165       15.688      859.347
06/27/2014  04:22:00       83.578       57.581       32.343       39.242       60.937       33.913     1539.940     3713.364     1150.082        0.887        0.320      101.493       23.912        0.056      341.319       15.947      859.337
06/27/2014  04:23:00       87.556       70.985       54.204       53.172       41.404       44.408     2827.298     1714.289     1972.079        1.108        0.326      112.716       32.998        0.086      341.436       16.147      859.316
06/27/2014  04:24:00        9.341        5.168       32.689       45.301       41.436       36.259     2052.200     1716.938     1314.721        0.313        0.254       10.675       36.609       11.760      341.481       16.222      859.335
06/27/2014  04:25:00       35.330      -24.703       19.413       57.271       44.527       28.933     3279.967     1982.651      837.091        0.417        0.305       43.109       30.337        0.495      341.249       15.830      859.361
06/27/2014  04:26:00       68.513       35.849       31.331       47.488       44.085       40.006     2255.111     1943.445     1600.477        0.638        0.290       77.326       28.803        0.139      341.353       16.005      859.376
06/27/2014  04:27:00       31.687       16.043       20.965       52.142       39.427       21.267     2718.763     1554.450      452.276        0.321        0.236       35.517       18.275        0.265      341.414       16.110      859.396
06/27/2014  04:28:00       11.968      -44.661       -2.972       28.515       23.198       17.571      813.103      538.151      308.724        0.190        0.083       46.236       14.600        0.100      341.167       15.693      859.434
06/27/2014  04:29:00      -26.892        9.107       -2.757       20.000       19.928       13.064      399.988      397.138      170.674        0.089        0.048       28.392        7.745        0.074      341.453       16.175      859.471
06/27/2014  04:30:00      -13.108       -9.626        5.711       26.643       24.809       19.820      709.840      615.496      392.818        0.101        0.086       16.262       11.452        0.496      341.477       16.215      859.485
06/27/2014  04:31:00        0.812       19.942       77.704       45.415       72.113       45.840     2062.487     5200.256     2101.331        0.790        0.468       19.958       26.591        1.775      341.346       15.994      859.458
06/27/2014  04:32:00       19.079       74.893       81.879       46.229       41.488       37.708     2137.149     1721.227     1421.912        0.898        0.264       77.285       20.701        0.072      341.160       15.680      859.454
06/27/2014  04:33:00      132.088       78.182       50.439       47.679       40.884       38.725     2273.263     1671.532     1499.618        1.577        0.272      153.492       11.691        0.006      341.351       16.002      859.484
06/27/2014  04:34:00      115.569       52.541       12.413       36.416       34.845       36.775     1326.130     1214.202     1352.380        1.008        0.195      126.952       14.707        0.013      341.366       16.029      859.529
06/27/2014  04:35:00       52.677       74.692       -6.196       39.919       59.032       31.553     1593.513     3484.831      995.567        0.723        0.304       91.399       22.601        0.061      341.359       16.016      859.549
06/27/2014  04:36:00       98.866       99.410        1.767       51.387       35.260       36.436     2640.613     1243.260     1327.590        1.243        0.261      140.202       24.512        0.031      341.328       15.962      859.553
06/27/2014  04:37:00       74.700       64.507        9.298       41.283       30.878       27.684     1704.318      953.439      766.380        0.663        0.171       98.697       19.598        0.039      341.308       15.928      859.564
06/27/2014  04:38:00       36.601       28.090       21.690       35.416       28.814       18.657     1254.283      830.273      348.082        0.252        0.122       46.138       14.778        0.103      341.298       15.913      859.570
06/27/2014  04:39:00       -3.549        0.410        0.639       22.200       16.479       13.047      492.861      271.572      170.212        0.047        0.047        3.573        8.505        5.665      341.234       15.805      859.572
06/27/2014  04:40:00       25.025       26.528       38.892       24.060       17.412       19.930      578.874      303.163      397.185        0.206        0.064       36.469       12.868        0.124      341.207       15.760      859.562
06/27/2014  04:41:00       14.992       37.838        4.503       17.635       24.184       18.838      311.002      584.846      354.855        0.146        0.063       40.700       14.886        0.134      341.297       15.913      859.565
06/27/2014  04:42:00       57.612       40.694      -10.510       18.570       19.076       23.218      344.855      363.880      539.083        0.317        0.062       70.535       10.710        0.023      341.221       15.783      859.569
06/27/2014  04:43:00       35.452       10.417      -16.958       15.439       23.111       23.707      238.356      534.115      562.008        0.149        0.067       36.950       10.316        0.078      341.186       15.725      859.571
06/27/2014  04:44:00       30.291       10.623        1.725       15.340       21.825       12.301      235.328      476.336      151.319        0.095        0.043       32.100       11.557        0.130      341.150       15.664      859.569
06/27/2014  04:45:00       46.888      -46.122        1.250       41.639       33.121       30.400     1733.779     1097.010      924.184        0.404        0.188       65.771       24.913        0.143      341.111       15.597      859.552
06/27/2014  04:46:00       65.942      -49.509       -3.094       46.077       63.370       30.458     2123.111     4015.764      927.689        0.694        0.353       82.459       31.417        0.145      341.160       15.680      859.536
06/27/2014  04:47:00       32.439       -9.495       36.517       37.285       43.432       31.416     1390.178     1886.380      986.944        0.337        0.213       33.800       24.973        0.546      341.132       15.633      859.518
06/27/2014  04:48:00       39.701      -58.464       26.097       49.304       58.112       43.530     2430.912     3376.957     1894.894        0.669        0.385       70.670       38.269        0.293      341.301       15.919      859.506
06/27/2014  04:49:00       28.170      -44.877       34.200       44.366       62.943       41.130     1968.304     3961.843     1691.671        0.580        0.381       52.986       34.000        0.412      341.321       15.952      859.496
06/27/2014  04:50:00       61.713      -80.547       -5.864       57.591       82.004       48.952     3316.675     6724.605     2396.304        1.138        0.622      101.471       52.719        0.270      341.437       16.148      859.477
06/27/2014  04:51:00      132.244     -156.316      -35.847       41.916       53.743       22.774     1756.988     2888.309      518.640        2.419        0.258      204.751       15.871        0.006      341.372       16.036      859.462
06/27/2014  04:52:00      149.357     -166.596      -54.844       31.411       42.983       18.621      986.647     1847.513      346.738        2.812        0.159      223.745        8.331        0.001      341.354       16.005      859.452
06/27/2014  04:53:00       33.211      -80.391      -23.373       61.324       63.986       56.665     3760.601     4094.207     3210.878        0.959        0.553       86.981       42.383        0.237      341.258       15.845      859.449
06/27/2014  04:54:00       21.321     -112.579      -29.594       52.308       54.443       49.759     2736.137     2964.058     2475.980        1.109        0.409      114.580       30.949        0.073      341.309       15.932      859.448
06/27/2014  04:55:00       50.361      -95.897      -18.940       46.031       45.453       32.481     2118.818     2066.001     1054.996        0.866        0.262      108.316       21.828        0.041      341.396       16.080      859.452
06/27/2014  04:56:00       24.558      -31.195       33.823       53.445       50.556       27.981     2856.386     2555.905      782.921        0.446        0.310       39.701       27.870        0.493      341.476       16.216      859.469
06/27/2014  04:57:00        4.327      -14.717       30.766       33.624       40.236       21.686     1130.542     1618.948      470.277        0.220        0.161       15.340       19.502        1.616      341.465       16.195      859.490
06/27/2014  04:58:00       20.864        3.093       36.388       55.925       50.669       35.483     3127.591     2567.345     1259.049        0.436        0.348       21.092       42.110        3.986      341.280       15.883      859.508
06/27/2014  04:59:00       53.632      -46.862       12.764       58.526       60.528       53.650     3425.275     3663.588     2878.277        0.760        0.498       71.221       42.122        0.350      341.251       15.833      859.513
06/27/2014  05:00:00       15.210      -65.943        0.393       46.477       55.822       46.681     2160.140     3116.072     2179.088        0.602        0.373       67.675       38.093        0.317      341.302       15.920      859.525
06/27/2014  05:01:00      -12.255      -28.100        8.178       26.108       31.863       27.179      681.618     1015.235      738.697        0.172        0.122       30.657       11.717        0.146      341.399       16.084      859.566
06/27/2014  05:02:00      -41.465        8.281        8.139       33.293       34.163       21.161     1108.415     1167.098      447.798        0.229        0.136       42.284       14.664        0.120      341.430       16.137      859.596
06/27/2014  05:03:00     -109.214      -53.132       12.181       57.734       39.552       22.220     3333.259     1564.342      493.724        1.014        0.270      121.453       27.252        0.050      341.445       16.163      859.612
06/27/2014  05:04:00     -111.790      -54.926       -2.960       66.053       41.324       22.252     4363.022     1707.699      495.156        1.104        0.328      124.554       24.643        0.039      341.467       16.199      859.621
06/27/2014  05:05:00      -88.985      -23.526        2.400       36.342       43.722       19.684     1320.724     1911.610      387.476        0.605        0.181       92.042       12.936        0.020      341.482       16.224      859.631
06/27/2014  05:06:00       -8.625      -42.071        5.801       48.216       21.404       21.838     2324.740      458.119      476.904        0.257        0.163       42.946        9.451        0.048      341.477       16.216      859.648
06/27/2014  05:07:00      -19.467      -36.518        3.261       32.982       30.003       18.714     1087.827      900.168      350.222        0.203        0.117       41.383       18.615        0.202      341.527       16.299      859.665
06/27/2014  05:08:00       -7.859      -20.312        7.697       18.180       22.231       16.246      330.524      494.197      263.920        0.081        0.054       21.780       15.753        0.523      341.461       16.189      859.660
06/27/2014  05:09:00      -20.091      -39.284       -5.089       19.865       17.251       16.758      394.633      297.584      280.835        0.147        0.049       44.124       12.154        0.076      341.470       16.202      859.650
06/27/2014  05:10:00      -14.294       -2.566       -9.456       16.220       15.839       12.769      263.084      250.879      163.048        0.049        0.034       14.522        6.431        0.196      341.429       16.136      859.641
06/27/2014  05:11:00       16.089      -36.938      -14.740       29.797       24.635       22.054      887.835      606.864      486.398        0.191        0.099       40.290       17.242        0.183      341.423       16.125      859.631
06/27/2014  05:12:00        2.427      -26.121      -11.931       23.888       19.234       16.456      570.628      369.948      270.789        0.102        0.061       26.234       10.148        0.150      341.363       16.025      859.614
06/27/2014  05:13:00      -42.603      -20.306       -0.599       24.640       17.401       13.076      607.137      302.807      170.972        0.165        0.054       47.194        6.489        0.019      341.458       16.183      859.605
06/27/2014  05:14:00      -14.180      -14.911       11.212       33.147       21.999       16.962     1098.737      483.940      287.718        0.121        0.094       20.578       12.466        0.367      341.498       16.252      859.602
06/27/2014  05:15:00      -44.398      -39.978        8.911       38.932       30.246       17.011     1515.731      914.845      289.361        0.318        0.136       59.745       18.685        0.098      341.515       16.280      859.590
06/27/2014  05:16:00     -119.175      -99.573       -9.992       51.971       49.588       27.093     2701.009     2458.966      734.007        1.505        0.295      155.298       26.223        0.029      341.460       16.186      859.596
06/27/2014  05:17:00        0.929      -23.486        8.220       44.148       27.830       24.993     1949.015      774.494      624.633        0.198        0.167       23.504       12.746        0.294      341.441       16.156      859.612
06/27/2014  05:18:00      -49.992      -14.296        6.314       48.103       31.604       17.672     2313.907      998.799      312.304        0.318        0.181       51.996       15.337        0.087      341.469       16.202      859.650
06/27/2014  05:19:00      -18.834       -6.962        5.704       41.322       19.182       24.035     1707.468      367.935      577.688        0.154        0.133       20.079       20.431        1.035      341.453       16.176      859.660
06/27/2014  05:20:00      -30.403      -13.124       -4.743       32.642       31.751       23.439     1065.526     1008.118      549.390        0.187        0.131       33.114       15.239        0.212      341.447       16.165      859.665
06/27/2014  05:21:00      -53.708      -10.818        3.233       34.299       38.183       17.574     1176.390     1457.921      308.848        0.298        0.147       54.787       19.519        0.127      341.481       16.223      859.666
06/27/2014  05:22:00      -46.244      -26.755       -3.457       50.473       27.277       17.235     2547.546      744.017      297.029        0.323        0.179       53.426       13.480        0.064      341.443       16.160      859.657
06/27/2014  05:23:00      -29.171      -50.687       -2.913       28.138       31.776       20.515      791.755     1009.690      420.856        0.283        0.111       58.482       19.733        0.114      341.497       16.249      859.662
06/27/2014  05:24:00      -16.957      -29.972        2.377       22.170       31.788       14.847      491.492     1010.466      220.437        0.146        0.086       34.436       16.865        0.240      341.491       16.239      859.667
06/27/2014  05:25:00      -65.485      -25.263        2.738       32.303       24.905       20.030     1043.506      620.276      401.210        0.350        0.103       70.189       14.611        0.043      341.510       16.272      859.681
06/27/2014  05:26:00      -48.024      -22.154        0.409       19.089       18.687       11.744      364.389      349.213      137.927        0.182        0.043       52.887        9.827        0.035      341.486       16.230      859.689
06/27/2014  05:27:00      -12.288      -26.164       -2.230       18.447       14.655       10.626      340.299      214.772      112.910        0.075        0.033       28.906        3.582        0.015      341.538       16.319      859.687
06/27/2014  05:28:00      -19.569      -50.599        0.325       24.305       15.744       13.566      590.743      247.888      184.034        0.198        0.051       54.252        8.639        0.025      341.504       16.262      859.681
06/27/2014  05:29:00      -30.992      -21.529      -10.103       19.305       20.428       13.837      372.690      417.291      191.463        0.125        0.049       37.736       13.466        0.127      341.440       16.153      859.651
06/27/2014  05:30:00        8.354      -70.393       -1.199       52.708       50.527       45.620     2778.132     2552.970     2081.164        0.622        0.371       70.887       34.931        0.243      341.417       16.116      859.618
06/27/2014  05:31:00      -20.599      -24.546        8.210       23.373       42.066       25.979      546.304     1769.513      674.922        0.204        0.150       32.044       18.620        0.338      341.510       16.272      859.622
06/27/2014  05:32:00      -32.347        9.638        0.386       18.868       16.863       18.774      355.987      284.349      352.446        0.107        0.050       33.752        8.429        0.062      341.517       16.282      859.637
06/27/2014  05:33:00      -65.885       28.887      -11.777       31.597       20.249       23.515      998.356      410.023      552.945        0.364        0.098       71.939       20.402        0.080      341.480       16.220      859.649
06/27/2014  05:34:00       -5.084        7.851        0.834       28.585       32.714       30.946      817.084     1070.209      957.638        0.147        0.142        9.353       12.842        1.885      341.391       16.071      859.661
06/27/2014  05:35:00      -49.121       -3.964      -12.096       59.251       31.099       27.796     3510.740      967.176      772.641        0.391        0.263       49.281       14.055        0.081      341.386       16.063      859.668
06/27/2014  05:36:00      -74.587        3.383        2.149       29.512       29.202       16.810      870.981      852.770      282.586        0.379        0.100       74.664       10.880        0.021      341.402       16.089      859.671
06/27/2014  05:37:00      -98.748      -31.049       -3.902       34.149       28.752       20.077     1166.160      826.658      403.088        0.656        0.120      103.514       19.885        0.037      341.394       16.075      859.670
06/27/2014  05:38:00      -45.457      -14.178        0.819       53.495       30.483       18.795     2861.668      929.222      353.242        0.321        0.207       47.617       19.832        0.173      341.377       16.048      859.652
06/27/2014  05:39:00      -84.510      -21.533        2.771       63.036       36.388       25.436     3973.563     1324.101      646.987        0.678        0.297       87.210       31.368        0.129      341.394       16.075      859.639
06/27/2014  05:40:00     -133.768      -51.532       -4.185       55.943       36.676       24.017     3129.573     1345.100      576.812        1.281        0.253      143.351       24.645        0.030      341.309       15.933      859.638
06/27/2014  05:41:00      -64.462      -56.343        9.807       37.872       32.234       24.076     1434.322     1039.063      579.676        0.524        0.153       85.614       20.035        0.055      341.369       16.034      859.621
06/27/2014  05:42:00      -90.983     -112.991        0.205       49.357       52.359       27.236     2436.082     2741.448      741.814        1.348        0.296      145.068       23.639        0.027      341.393       16.074      859.595
06/27/2014  05:43:00      -54.502     -116.135       -3.451       37.662       41.681       32.077     1418.425     1737.267     1028.933        1.033        0.209      128.288       18.578        0.021      341.498       16.252      859.577
06/27/2014  05:44:00      -44.253      -44.426       -2.489       36.241       36.762       21.663     1313.379     1351.466      469.277        0.354        0.157       62.706       13.327        0.045      341.519       16.288      859.559
06/27/2014  05:45:00        5.504      -19.850       11.887       27.067       34.975       23.250      732.612     1223.241      540.543        0.153        0.125       20.599       17.301        0.705      341.572       16.378      859.598
06/27/2014  05:46:00      -46.147       29.042        2.713       27.361       25.278       27.607      748.649      638.966      762.148        0.256        0.107       54.526       18.591        0.116      341.563       16.363      859.641
06/27/2014  05:47:00     -107.978      -15.248        5.719       64.827       56.577       32.150     4202.574     3200.993     1033.590        1.018        0.422      109.050       32.387        0.088      341.516       16.282      859.667
06/27/2014  05:48:00     -126.498      -42.251       -9.491       54.032       42.364       31.626     2919.500     1794.723     1000.195        1.179        0.286      133.367       30.078        0.051      341.429       16.136      859.684
06/27/2014  05:49:00      -45.446        3.181       -1.375       37.964       20.385       22.004     1441.299      415.541      484.166        0.221        0.117       45.557       17.220        0.143      341.333       15.971      859.686
06/27/2014  05:50:00       -3.215      -65.653       -5.672       26.089       38.661       19.764      680.634     1494.676      390.604        0.346        0.128       65.732       18.605        0.080      341.349       15.999      859.706
06/27/2014  05:51:00      -68.942      -50.053       10.509       32.588       60.380       27.186     1061.967     3645.762      739.063        0.641        0.272       85.195       34.666        0.166      341.459       16.185      859.728
06/27/2014  05:52:00      -38.808      -28.481        8.875       34.251       46.314       18.796     1173.110     2145.029      353.277        0.303        0.184       48.138       27.087        0.317      341.454       16.178      859.727
06/27/2014  05:53:00      -66.237     -126.580       -7.575       19.810       29.202       15.018      392.426      852.755      225.544        1.097        0.074      142.863       10.813        0.006      341.431       16.136      859.725
06/27/2014  05:54:00      -58.163       -8.434        0.794       38.719       27.192       16.280     1499.182      739.428      265.031        0.298        0.125       58.771       13.968        0.056      341.476       16.214      859.718
06/27/2014  05:55:00      -50.368       -3.159        0.364       21.470       20.977       17.351      460.954      440.022      301.062        0.187        0.060       50.467       13.447        0.071      341.445       16.163      859.732
06/27/2014  05:56:00      -17.472       15.549       -4.112       15.878       17.459       12.544      252.121      304.807      157.348        0.064        0.036       23.389        7.320        0.098      341.469       16.200      859.749
06/27/2014  05:57:00       -2.143       17.523        8.695        6.285       10.206       10.347       39.498      104.161      107.062        0.032        0.013       17.654        4.015        0.052      341.460       16.187      859.764
06/27/2014  05:58:00       38.031       28.677        7.115       19.208       14.959       11.386      368.949      223.772      129.637        0.152        0.036       47.631        3.212        0.005      341.432       16.141      859.760
06/27/2014  05:59:00       20.561        0.325       19.885       21.633       32.314       18.906      468.007     1044.217      357.420        0.134        0.093       20.564       16.511        0.645      341.297       15.912      859.747
06/27/2014  06:00:00       57.606       34.810       13.953       26.064       23.595       18.675      679.342      556.725      348.746        0.315        0.079       67.306        9.578        0.020      341.321       15.953      859.752
06/27/2014  06:01:00       55.118       41.182        3.804       30.453       25.250       23.444      927.385      637.571      549.602        0.343        0.106       68.803       19.259        0.078      341.238       15.812      859.767
06/27/2014  06:02:00       45.998       29.283       17.821       20.982       12.168       18.220      440.262      148.049      331.952        0.211        0.046       54.529        6.470        0.014      341.274       15.872      859.784
06/27/2014  06:03:00       58.577       43.973        1.896       13.046       14.885       14.503      170.209      221.555      210.337        0.299        0.030       73.245        8.524        0.014      341.302       15.920      859.779
06/27/2014  06:04:00       51.049       29.800        0.152       34.010       23.380       13.192     1156.682      546.635      174.042        0.269        0.094       59.110        9.341        0.025      341.318       15.946      859.768
06/27/2014  06:05:00       34.780       24.207       14.144       27.486       22.436       21.324      755.485      503.358      454.720        0.185        0.086       42.375        9.540        0.051      341.325       15.959      859.784
06/27/2014  06:06:00       78.971       53.498       17.557       20.974       17.361       17.252      439.905      301.389      297.640        0.522        0.052       95.386        8.859        0.009      341.295       15.909      859.777
06/27/2014  06:07:00       72.525       49.069       17.533       31.128       21.599       18.930      968.961      466.530      358.350        0.488        0.090       87.565       11.256        0.017      341.304       15.922      859.780
06/27/2014  06:08:00       46.558       36.927        2.783       20.048       18.378       22.960      401.921      337.734      527.150        0.240        0.063       59.425       14.346        0.058      341.292       15.902      859.798
06/27/2014  06:09:00       51.990       38.668        9.201       29.348       20.150       12.957      861.290      406.033      167.880        0.286        0.072       64.794       13.487        0.043      341.313       15.939      859.795
06/27/2014  06:10:00       96.797       54.772        6.854       13.227       10.845        9.640      174.962      117.623       92.933        0.640        0.019      111.218        6.077        0.003      341.326       15.962      859.803
06/27/2014  06:11:00       91.532       58.098       20.705       25.862       17.254       25.462      668.864      297.716      648.319        0.690        0.081      108.414       18.722        0.030      341.355       16.012      859.810
06/27/2014  06:12:00       59.412       55.380       42.337       36.237       23.557       27.902     1313.089      554.932      778.522        0.552        0.132       81.220       17.817        0.048      341.346       15.996      859.819
06/27/2014  06:13:00       46.784       47.837       40.919       33.518       21.871       18.073     1123.469      478.357      326.643        0.404        0.096       66.911        6.313        0.009      341.359       16.017      859.820
06/27/2014  06:14:00       40.353       29.834       36.021       30.355       21.067       16.595      921.425      443.822      275.390        0.273        0.082       50.184       10.910        0.047      341.380       16.053      859.824
06/27/2014  06:15:00       12.615      -15.855       11.762       24.005       29.904       22.552      576.255      894.232      508.596        0.126        0.099       20.261        8.215        0.164      341.169       15.694      859.809
06/27/2014  06:16:00        1.437      -26.133       -2.059       17.375       26.721       15.809      301.901      714.023      249.910        0.098        0.063       26.172       10.179        0.151      341.068       15.525      859.795
06/27/2014  06:17:00       37.495      -78.321       -4.256       19.450       22.573       13.415      378.284      509.558      179.967        0.431        0.053       86.833        8.403        0.009      341.335       15.975      859.786
06/27/2014  06:18:00       54.056      -25.086        0.927       26.188       29.262       24.450      685.833      856.239      597.788        0.285        0.107       59.593       20.263        0.116      341.303       15.921      859.783
06/27/2014  06:19:00       26.598       -5.291       20.142       26.494       25.649       18.842      701.927      657.866      355.022        0.143        0.086       27.119       15.075        0.309      341.241       15.818      859.783
06/27/2014  06:20:00       31.014        0.002       11.767       32.192       19.091       20.018     1036.326      364.462      400.735        0.145        0.090       31.014       12.179        0.154      341.137       15.641      859.786
06/27/2014  06:21:00        7.144       23.318       -1.115       16.406       19.413        9.356      269.168      376.875       87.532        0.066        0.037       24.388        8.108        0.111      341.318       15.948      859.797
06/27/2014  06:22:00       26.402       47.174      -11.819       19.849       29.544       15.601      393.985      872.832      243.404        0.229        0.076       54.060       14.772        0.075      341.437       16.149      859.808
06/27/2014  06:23:00       27.373       75.603      -10.140       15.942       27.787       17.106      254.136      772.111      292.621        0.394        0.066       80.406       15.938        0.039      341.462       16.189      859.824
06/27/2014  06:24:00       17.913       76.515      -11.319       16.306       27.082       12.554      265.898      733.410      157.612        0.373        0.058       78.584       13.146        0.028      341.453       16.175      859.836
06/27/2014  06:25:00       20.684       90.781       -7.458       17.807       20.603       18.349      317.097      424.501      336.673        0.490        0.054       93.108       14.144        0.023      341.432       16.141      859.840
06/27/2014  06:26:00       25.804       48.718        0.339       18.883       33.168       17.605      356.554     1100.133      309.935        0.240        0.088       55.130       18.057        0.107      341.436       16.148      859.840
06/27/2014  06:27:00       25.304       63.716       -0.718       23.549       26.776       17.608      554.538      716.941      310.026        0.314        0.079       68.557       17.375        0.064      341.446       16.166      859.852
06/27/2014  06:28:00       29.096       30.826        9.991       26.753       19.047       16.569      715.702      362.800      274.532        0.162        0.068       42.389       11.552        0.074      341.453       16.174      859.876
06/27/2014  06:29:00       22.430       47.418       -0.164       14.062       20.543       14.910      197.748      422.003      222.293        0.180        0.042       52.455       13.506        0.066      341.457       16.180      859.883
06/27/2014  06:30:00       62.753       42.016        5.378       27.687       14.065       14.336      766.567      197.824      205.532        0.345        0.058       75.520       12.602        0.028      341.462       16.190      859.870
06/27/2014  06:31:00       63.508       57.719       -6.289       19.388       26.362       16.849      375.902      694.963      283.897        0.438        0.068       85.818       10.903        0.016      341.455       16.177      859.861
06/27/2014  06:32:00       47.763       36.411        3.491       22.968       15.872       16.896      527.540      251.919      285.491        0.234        0.053       60.058        4.016        0.004      341.458       16.184      859.867
06/27/2014  06:33:00       27.300       84.951      -10.880       25.262       39.816       19.911      638.167     1585.298      396.438        0.535        0.131       89.229       23.797        0.071      341.433       16.142      859.880
06/27/2014  06:34:00       14.611       78.722       -7.960       21.970       19.200       15.493      482.697      368.635      240.047        0.378        0.055       80.066       11.683        0.021      341.420       16.120      859.893
06/27/2014  06:35:00        2.987       54.466       -9.626       13.216       10.572        8.485      174.672      111.766       71.994        0.171        0.018       54.548        3.791        0.005      341.419       16.120      859.901
06/27/2014  06:36:00        7.601       42.406       -4.707       13.883       19.789       13.479      192.748      391.602      181.677        0.132        0.038       43.082       11.651        0.073      341.426       16.133      859.897
06/27/2014  06:37:00        3.465       34.849       -4.046        8.284        8.168        6.879       68.629       66.723       47.315        0.071        0.009       35.021        5.169        0.022      341.429       16.136      859.904
06/27/2014  06:38:00        2.608       35.563       -4.437        6.118        6.020        5.407       37.424       36.238       29.239        0.070        0.005       35.659        3.624        0.010      341.457       16.182      859.904
06/27/2014  06:39:00       19.916       43.086       -7.307       10.380        7.498        5.540      107.753       56.214       30.695        0.125        0.010       47.466        1.872        0.002      341.436       16.149      859.887
06/27/2014  06:40:00       13.559       50.885       -0.915        9.241       10.540        7.454       85.395      111.099       55.560        0.151        0.013       52.661        2.260        0.002      341.443       16.159      859.853
06/27/2014  06:41:00        0.841       71.385      -11.101        7.756       18.560        7.381       60.151      344.461       54.485        0.284        0.023       71.390        8.529        0.014      341.423       16.128      859.841
06/27/2014  06:42:00        7.860       81.509      -14.899       13.510       19.989        8.223      182.522      399.564       67.615        0.379        0.032       81.887        7.102        0.008      341.417       16.115      859.835
06/27/2014  06:43:00       26.629       57.721       -9.029       15.749       21.116       12.758      248.044      445.885      162.769        0.249        0.043       63.567       11.236        0.031      341.442       16.157      859.836
06/27/2014  06:44:00        9.364       25.218        0.549       14.459       14.521       14.421      209.063      210.870      207.952        0.068        0.031       26.901       10.418        0.150      341.443       16.162      859.836
06/27/2014  06:45:00       10.040       41.606       -8.699       12.060       15.554        8.709      145.438      241.926       75.842        0.119        0.023       42.800        7.962        0.035      341.423       16.128      859.855
06/27/2014  06:46:00       11.322       22.234       -5.099       11.731       11.771        7.214      137.624      138.563       52.044        0.049        0.016       24.951        7.467        0.090      341.448       16.171      859.873
06/27/2014  06:47:00        7.017        7.156        7.054       14.271       10.574       11.420      203.652      111.800      130.418        0.030        0.022       10.022        6.723        0.450      341.461       16.189      859.874
06/27/2014  06:48:00       15.358       15.298       13.774       15.834       11.260       15.626      250.713      126.788      244.186        0.064        0.031       21.677        8.452        0.152      341.464       16.194      859.869
06/27/2014  06:49:00        7.724       50.869       -6.909        9.102       13.851        7.165       82.848      191.858       51.336        0.151        0.016       51.452        6.930        0.018      341.437       16.148      859.889
06/27/2014  06:50:00       11.230       41.419       -8.692        7.451        6.289        3.671       55.524       39.556       13.473        0.101        0.005       42.915        2.673        0.004      341.427       16.135      859.901
06/27/2014  06:51:00       27.489       23.928       -0.535       14.710       10.345       10.331      216.380      107.009      106.722        0.088        0.022       36.444        6.477        0.032      341.436       16.151      859.895
06/27/2014  06:52:00       26.267       19.791        7.658       19.570       12.036       12.848      382.975      144.875      165.062        0.092        0.035       32.888        6.400        0.038      341.459       16.184      859.892
06/27/2014  06:53:00       32.196       12.771        5.665        7.222        9.204        9.880       52.156       84.718       97.622        0.073        0.012       34.637        4.269        0.015      341.460       16.186      859.893
06/27/2014  06:54:00       11.888       -4.312       12.815       19.118       14.645       13.752      365.513      214.468      189.113        0.055        0.038       12.646        5.222        0.171      341.384       16.060      859.900
06/27/2014  06:55:00        3.770       -4.358        7.529       15.970       16.383       21.314      255.038      268.392      454.280        0.053        0.049        5.762       10.202        3.135      341.375       16.043      859.904
06/27/2014  06:56:00      -21.204      -26.814      -10.388       13.519       11.197       14.010      182.764      125.375      196.290        0.089        0.025       34.185        7.826        0.052      341.385       16.063      859.911
06/27/2014  06:57:00       -3.848      -47.751       -9.819       13.292       29.668       18.089      176.678      880.166      327.213        0.189        0.069       47.906       14.213        0.088      341.283       15.887      859.912
06/27/2014  06:58:00       -8.603      -50.435       -2.860       14.151       14.251       13.764      200.249      203.105      189.447        0.161        0.030       51.163        6.348        0.015      341.473       16.208      859.907
06/27/2014  06:59:00        8.715      -43.819       12.106       17.793       23.913       17.146      316.603      571.849      293.994        0.166        0.059       44.677       16.869        0.143      341.616       16.451      859.914
06/27/2014  07:00:00       -1.043      -12.196       10.210       20.018       20.651       11.198      400.722      426.449      125.403        0.060        0.048       12.241       10.735        0.769      341.676       16.553      859.934
06/27/2014  07:01:00       14.190       -6.275       26.730       16.043       12.259       10.006      257.363      150.275      100.125        0.073        0.025       15.515        7.703        0.246      341.834       16.823      859.954
06/27/2014  07:02:00      -26.199       -0.686        4.813       22.150       20.955       16.715      490.605      439.097      279.390        0.096        0.060       26.207       19.296        0.542      341.784       16.737      859.963
06/27/2014  07:03:00        8.608       -7.060       16.425       28.390       20.312       20.540      805.974      412.563      421.890        0.102        0.082       11.133       12.757        1.313      341.766       16.707      859.971
06/27/2014  07:04:00       14.435      -21.967       14.183       18.525       22.313       19.029      343.162      497.853      362.113        0.105        0.060       26.285       16.141        0.377      341.765       16.705      859.986
06/27/2014  07:05:00        2.983      -59.171        3.814       21.693       32.197       22.279      470.568     1036.658      496.363        0.276        0.100       59.246       13.322        0.051      341.520       16.290      859.991
06/27/2014  07:06:00      -30.576      -77.734       -2.057       36.536       37.298       19.968     1334.861     1391.140      398.704        0.505        0.156       83.532       13.920        0.028      341.675       16.552      859.997
06/27/2014  07:07:00      -26.702      -34.069        7.306       33.946       34.078       19.786     1152.305     1161.300      391.474        0.232        0.135       43.286       27.829        0.413      341.838       16.831      859.995
06/27/2014  07:08:00      -19.315        3.033       -0.738       30.182       12.970       15.384      910.937      168.229      236.658        0.085        0.066       19.551       15.303        0.613      341.838       16.830      859.980
06/27/2014  07:09:00       56.424      -29.321        8.364       45.889       24.379       24.836     2105.803      594.328      616.848        0.371        0.166       63.587       18.977        0.089      341.667       16.537      859.958
06/27/2014  07:10:00       27.708      -38.312       25.166       31.372       43.285       34.031      984.233     1873.583     1158.105        0.344        0.201       47.282       28.578        0.365      341.850       16.848      859.938
06/27/2014  07:11:00       26.843      -35.137        7.876       29.431       30.362       29.674      866.155      921.863      880.518        0.234        0.133       44.217       21.274        0.231      341.708       16.608      859.915
06/27/2014  07:12:00       77.946      -80.354      -15.871       43.712       46.208       30.933     1910.771     2135.158      956.879        0.889        0.250      111.948       27.801        0.062      341.477       16.217      859.903
06/27/2014  07:13:00       31.990      -22.375        9.119       35.309       32.875       33.177     1246.714     1080.744     1100.728        0.252        0.171       39.039       24.208        0.385      341.728       16.643      859.894
06/27/2014  07:14:00       21.834      -38.647        9.404       26.616       26.339       26.454      708.436      693.732      699.789        0.208        0.105       44.389       20.069        0.204      341.718       16.625      859.890
06/27/2014  07:15:00        7.484       -9.580       31.355       29.358       47.230       38.803      861.906     2230.663     1505.690        0.286        0.230       12.157       37.203        9.365      342.001       17.107      859.881
06/27/2014  07:16:00      -19.633       -3.708        9.379       16.005       21.975       27.738      256.145      482.896      769.393        0.100        0.075       19.980       18.507        0.858      341.982       17.073      859.884
06/27/2014  07:17:00      -21.476      -15.069       15.422       20.892       25.137       19.687      436.456      631.852      387.588        0.119        0.073       26.235       18.304        0.487      342.100       17.274      859.868
06/27/2014  07:18:00      -32.688      -46.043       11.453       46.196       39.324       20.157     2134.088     1546.346      406.302        0.370        0.204       56.467       21.797        0.149      342.144       17.348      859.852
06/27/2014  07:19:00      -79.468      -87.029        4.280       48.212       45.815       25.467     2324.369     2099.014      648.581        0.949        0.254      117.852       26.160        0.049      341.762       16.701      859.829
06/27/2014  07:20:00     -149.757      -98.538       -2.187       44.383       36.567       21.941     1969.839     1337.154      481.391        1.796        0.189      179.267       17.824        0.010      341.703       16.600      859.807
06/27/2014  07:21:00     -160.790      -68.399      -14.803       42.901       29.287       21.410     1840.471      857.737      458.393        1.695        0.158      174.733       17.571        0.010      341.656       16.520      859.789
06/27/2014  07:22:00      -75.508        7.613       -1.032       14.129       20.978       13.576      199.624      440.089      184.296        0.329        0.041       75.891        8.563        0.013      341.703       16.601      859.777
06/27/2014  07:23:00      -46.981      -39.648       -4.169       24.619       14.595       11.552      606.083      213.018      133.456        0.237        0.048       61.475        4.728        0.006      341.764       16.703      859.789
06/27/2014  07:24:00      -42.380      -16.255       -4.335       27.056       18.930       11.343      732.011      358.340      128.674        0.165        0.061       45.390        6.324        0.019      341.832       16.819      859.821
06/27/2014  07:25:00      -19.294      -21.788       36.200       52.594       59.535       40.146     2766.173     3544.394     1611.664        0.504        0.396       29.103       18.082        0.386      342.183       17.414      859.858
06/27/2014  07:26:00       31.918     -116.476       -4.166       40.997       60.365       47.710     1680.726     3643.896     2276.284        1.110        0.380      120.770       36.943        0.094      342.037       17.165      859.898
06/27/2014  07:27:00      -13.217      -37.614       19.561       54.876       48.290       33.195     3011.419     2331.945     1101.891        0.421        0.322       39.868       26.874        0.454      342.174       17.400      859.915
06/27/2014  07:28:00      -23.849      -32.037       13.767       52.398       32.650       31.455     2745.554     1066.014      989.386        0.329        0.240       39.939       24.694        0.382      342.329       17.662      859.921
06/27/2014  07:29:00      -48.487      -26.326        3.518       55.467       35.706       34.064     3076.587     1274.924     1160.365        0.428        0.276       55.173       26.128        0.224      342.141       17.343      859.920
06/27/2014  07:30:00      -55.664      -41.618        7.489       47.545       36.853       25.865     2260.519     1358.168      669.020        0.459        0.214       69.502       27.592        0.158      342.116       17.302      859.913
06/27/2014  07:31:00      -23.376      -16.952       -2.669       45.909       35.207       26.976     2107.620     1239.524      727.685        0.246        0.204       28.876       21.895        0.575      342.234       17.500      859.895
06/27/2014  07:32:00      -52.233      -30.473        9.541       38.290       35.751       28.608     1466.151     1278.131      818.398        0.365        0.178       60.472       24.163        0.160      342.293       17.601      859.895
06/27/2014  07:33:00      -54.195      -80.902       14.449       45.484       49.315       27.820     2068.837     2431.962      773.973        0.748        0.264       97.377       25.136        0.067      342.239       17.509      859.898
06/27/2014  07:34:00       -0.414      -20.526       36.895       37.503       47.658       31.376     1406.463     2271.283      984.426        0.322        0.233       20.530       21.606        1.108      342.547       18.034      859.894
06/27/2014  07:35:00      -19.364      -31.854       -0.985       24.794       22.893       20.043      614.740      524.083      401.720        0.147        0.077       37.278       11.672        0.098      342.333       17.668      859.906
06/27/2014  07:36:00      -22.990       -0.690       23.900       39.219       27.674       32.763     1538.155      765.834     1073.382        0.224        0.169       23.000       20.623        0.804      342.498       17.950      859.913
06/27/2014  07:37:00      -31.579        2.423       42.494       36.874       55.713       38.911     1359.723     3103.939     1514.054        0.439        0.299       31.672       39.554        1.560      342.301       17.614      859.904
06/27/2014  07:38:00       27.240      -70.343       11.514       43.745       45.026       37.587     1913.627     2027.296     1412.799        0.559        0.268       75.433       21.568        0.082      342.346       17.691      859.912
06/27/2014  07:39:00       -5.754      -29.174       17.187       42.728       30.259       26.485     1825.683      915.587      701.459        0.231        0.172       29.736       23.398        0.619      342.560       18.055      859.912
06/27/2014  07:40:00       33.683      -83.305        4.764       56.266       77.712       27.762     3165.918     6039.114      770.753        0.903        0.499       89.857       13.844        0.024      342.369       17.731      859.909
06/27/2014  07:41:00        9.870       -0.862       51.271       43.510       54.601       36.950     1893.141     2981.270     1365.312        0.448        0.312        9.908       35.254       12.661      342.571       18.072      859.903
06/27/2014  07:42:00       12.168      -53.905        4.269       53.211       53.918       39.169     2831.419     2907.200     1534.218        0.517        0.364       55.261       26.614        0.232      342.396       17.776      859.916
06/27/2014  07:43:00       15.416       -9.622       38.755       48.149       90.906       51.785     2318.310     8263.942     2681.719        0.755        0.663       18.172       52.292        8.281      342.472       17.905      859.907
06/27/2014  07:44:00       31.012       -0.832       50.646       50.538       57.273       40.249     2554.065     3280.251     1620.001        0.549        0.373       31.023       27.093        0.763      342.389       17.764      859.896
06/27/2014  07:45:00       44.959       -2.377       33.299       53.707       52.896       54.385     2884.432     2798.015     2957.771        0.589        0.432       45.022       35.007        0.605      342.370       17.733      859.898
06/27/2014  07:46:00       30.038        5.902       48.620       44.028       56.191       40.444     1938.460     3157.471     1635.699        0.502        0.337       30.613       41.350        1.825      342.291       17.598      859.930
06/27/2014  07:47:00       43.177      -36.054       14.356       27.761       32.528       31.583      770.671     1058.084      997.467        0.310        0.141       56.251       26.993        0.230      342.296       17.606      859.944
06/27/2014  07:48:00        3.033       -9.753       24.633       20.227       20.100       22.588      409.151      404.002      510.220        0.102        0.066       10.214       17.946        3.087      343.190       19.128      859.948
06/27/2014  07:49:00      -16.909      -13.312       16.023       35.445       34.553       22.875     1256.373     1193.922      523.286        0.185        0.149       21.520       23.098        1.152      342.908       18.647      859.944
06/27/2014  07:50:00       -0.211       39.838       66.983       50.025       53.646       61.111     2502.461     2877.902     3734.592        0.759        0.456       39.839       42.180        1.121      342.680       18.258      859.948
06/27/2014  07:51:00       73.779      -77.215       23.874       83.977      121.196       86.677     7052.171    14688.584     7512.981        2.061        1.463      106.797       91.897        0.740      342.491       17.937      859.935
06/27/2014  07:52:00       43.561     -124.783       -6.110       68.141       71.150       61.416     4643.151     5062.338     3771.896        1.549        0.674      132.168       44.400        0.113      342.369       17.728      859.935
06/27/2014  07:53:00       85.184      -42.649       15.646       57.456       84.379       58.139     3301.192     7119.760     3380.132        1.156        0.690       95.265       64.129        0.453      342.250       17.527      859.924
06/27/2014  07:54:00        1.382       20.592       53.244       35.197       53.219       31.129     1238.799     2832.244      968.994        0.415        0.252       20.639       33.286        2.601      342.169       17.391      859.906
06/27/2014  07:55:00       19.539       58.242       88.691       55.331       46.934       31.382     3061.570     2202.798      984.823        0.894        0.312       61.432       17.971        0.086      342.299       17.612      859.906
06/27/2014  07:56:00       13.225      -26.684       27.323       64.573       85.957       44.916     4169.643     7388.562     2017.439        0.760        0.679       29.782       47.612        2.556      342.018       17.135      859.930
06/27/2014  07:57:00       44.432      -37.180       16.442       48.963       64.572       33.085     2397.327     4169.563     1094.614        0.564        0.383       57.935       43.106        0.554      342.456       17.877      859.970
06/27/2014  07:58:00       -1.216       10.487       49.202       42.816       52.102       39.393     1833.210     2714.659     1551.805        0.431        0.305       10.557       32.509        9.483      342.501       17.954      859.976
06/27/2014  07:59:00       41.503       -5.026       86.038       57.518       88.818       48.930     3308.338     7888.665     2394.156        1.137        0.680       41.806       29.504        0.498      342.371       17.733      859.965
06/27/2014  08:00:00       27.185      -26.128       50.643       64.152       89.685       55.557     4115.536     8043.374     3086.533        0.961        0.762       37.706       59.751        2.511      342.249       17.526      859.983
06/27/2014  08:01:00       43.992      -56.083       19.677       48.553       74.038       39.820     2357.384     5481.577     1585.650        0.744        0.471       71.278       45.447        0.407      342.332       17.667      860.007
06/27/2014  08:02:00       12.269       19.291       42.933       41.441       46.851       23.255     1717.343     2195.034      540.811        0.341        0.223       22.862       28.247        1.527      342.531       18.005      860.036
06/27/2014  08:03:00      -32.908      -25.111       18.778       22.619       41.635       22.694      511.636     1733.487      515.039        0.241        0.138       41.394       25.216        0.371      342.597       18.118      860.057
06/27/2014  08:04:00      -40.723      -15.585       -4.434       14.313       22.579       10.376      204.867      509.806      107.658        0.137        0.041       43.603        3.959        0.008      342.170       17.392      860.068
06/27/2014  08:05:00        3.527        3.955       21.693       17.625       12.607       12.056      310.647      158.937      145.359        0.056        0.031        5.299        7.237        1.865      342.898       18.630      860.088
06/27/2014  08:06:00       10.260       15.437       11.749       16.143       30.416       25.310      260.600      925.148      640.603        0.115        0.091       18.536       12.868        0.482      342.571       18.075      860.086
06/27/2014  08:07:00       77.484      -46.906       17.222       72.121       78.413       50.297     5201.418     6148.676     2529.764        1.119        0.694       90.576       50.729        0.314      342.495       17.944      860.088
06/27/2014  08:08:00       22.663       16.702       55.441       42.344       44.967       28.224     1793.000     2022.071      796.577        0.424        0.231       28.153       19.384        0.474      342.774       18.419      860.101
06/27/2014  08:09:00       40.114       -6.797       15.790       35.863       20.276       26.461     1286.160      411.101      700.172        0.215        0.120       40.686       22.005        0.293      342.560       18.056      860.099
06/27/2014  08:10:00        3.389       50.592        3.498       23.886       33.496       26.839      570.527     1121.961      720.308        0.250        0.121       50.706       24.521        0.234      342.759       18.394      860.097
06/27/2014  08:11:00       19.122       22.439        6.351       20.267       17.741       23.742      410.770      314.732      563.663        0.110        0.064       29.482        9.397        0.102      342.713       18.314      860.080
06/27/2014  08:12:00      -38.755       16.600        3.167       25.897       22.705       19.799      670.664      515.516      392.018        0.168        0.079       42.160       17.384        0.170      342.758       18.393      860.081
06/27/2014  08:13:00       -9.504      -41.811       15.074       33.168       59.385       21.841     1100.124     3526.547      477.014        0.358        0.255       42.877       25.457        0.352      343.178       19.108      860.078
06/27/2014  08:14:00      -29.257      -54.604       -5.474       35.329       45.431       28.293     1248.154     2063.953      800.486        0.399        0.206       61.948       12.456        0.040      342.667       18.238      860.054
06/27/2014  08:15:00       13.915      -90.950        3.257       72.940       79.661       42.080     5320.228     6345.928     1770.697        1.095        0.672       92.009       46.927        0.260      342.816       18.489      860.029
06/27/2014  08:16:00       45.294        9.339       38.141       74.494       54.792       50.074     5549.425     3002.179     2507.432        0.732        0.553       46.247       38.077        0.678      342.678       18.255      859.993
06/27/2014  08:17:00       74.286      -30.702        3.080       49.429       37.429       31.219     2443.249     1400.926      974.621        0.564        0.241       80.380       24.805        0.095      342.242       17.515      860.003
06/27/2014  08:18:00       53.434       44.349       20.943       31.974       32.234       23.347     1022.321     1039.049      545.095        0.393        0.130       69.441       10.152        0.021      342.447       17.863      860.001
06/27/2014  08:19:00       38.038      -69.316       -3.736       45.466       46.597       27.344     2067.138     2171.272      747.670        0.562        0.249       79.067       29.984        0.144      342.849       18.547      860.004
06/27/2014  08:20:00       37.005      -39.251        7.986       36.605       42.310       30.919     1339.955     1790.145      956.006        0.353        0.204       53.944       30.997        0.330      342.382       17.752      859.977
06/27/2014  08:21:00       64.111      -30.561        8.218       33.173       37.340       34.301     1100.444     1394.302     1176.539        0.439        0.184       71.022       26.544        0.140      342.386       17.759      859.966
06/27/2014  08:22:00       44.698      -13.433       27.558       42.496       47.712       36.400     1805.937     2276.398     1324.963        0.417        0.270       46.673       25.655        0.302      342.743       18.366      859.954
06/27/2014  08:23:00       51.417      -49.296       15.374       47.815       45.592       36.933     2286.306     2078.631     1364.070        0.552        0.286       71.231       34.351        0.233      342.772       18.415      859.950
06/27/2014  08:24:00       15.646        2.529       27.298       56.194       60.383       42.509     3157.739     3646.061     1807.008        0.480        0.431       15.849       15.027        0.899      343.150       19.060      859.928
06/27/2014  08:25:00       41.746       26.606       78.923       73.255       84.645       68.266     5366.347     7164.827     4660.257        1.293        0.860       49.503       69.712        1.983      342.916       18.662      859.919
06/27/2014  08:26:00       30.592      -10.240       42.836       40.320       54.520       37.092     1625.711     2972.446     1375.800        0.442        0.299       32.260       34.930        1.172      342.727       18.339      859.907
06/27/2014  08:27:00       65.470     -139.392      -29.291       55.246       60.052       37.647     3052.084     3606.217     1417.271        1.632        0.404      154.002       28.132        0.033      342.691       18.277      859.879
06/27/2014  08:28:00       27.455      -40.715       41.610       50.136       72.321       48.716     2513.654     5230.353     2373.267        0.713        0.506       49.107       48.551        0.977      343.280       19.280      859.866
06/27/2014  08:29:00       32.091        4.174       84.432       72.376      104.178       60.661     5238.313    10852.965     3679.772        1.397        0.989       32.361       55.607        2.953      343.170       19.094      859.848
06/27/2014  08:30:00       88.192      -74.249       34.174       75.791       99.653       71.754     5744.312     9930.721     5148.679        1.764        1.041      115.285       75.640        0.430      342.938       18.698      859.855
06/27/2014  08:31:00      100.111     -158.302      -22.983       71.203       58.999       46.479     5069.834     3480.890     2160.344        2.316        0.536      187.301       43.333        0.054      342.698       18.287      859.847
06/27/2014  08:32:00       47.764      -87.129       16.689       64.343       69.322       37.323     4139.995     4805.473     1393.036        1.024        0.517       99.363       30.747        0.096      343.029       18.852      859.862
06/27/2014  08:33:00       68.420       67.033       43.676       54.701       53.449       43.961     2992.173     2856.786     1932.589        0.943        0.389       95.785       35.395        0.137      342.805       18.472      859.890
06/27/2014  08:34:00       31.343      -18.034       10.930       42.854       81.840       36.715     1836.434     6697.811     1347.958        0.565        0.494       36.161       42.750        1.398      342.847       18.543      859.902
06/27/2014  08:35:00       92.142      -73.840       -9.892       55.501       62.284       54.026     3080.377     3879.281     2918.794        1.196        0.494      118.078       50.176        0.181      342.757       18.391      859.907
06/27/2014  08:36:00       70.472      -36.273       37.216       54.180       64.371       48.406     2935.490     4143.601     2343.103        0.854        0.471       79.259       48.870        0.380      343.000       18.804      859.915
06/27/2014  08:37:00       41.436      -76.424       12.098       47.090       77.670       42.330     2217.455     6032.654     1791.822        0.887        0.502       86.934       41.332        0.226      342.958       18.733      859.917
06/27/2014  08:38:00       50.678      -14.071       58.798       55.051       95.031       54.260     3030.638     9030.916     2944.179        1.061        0.750       52.595       58.630        1.243      342.949       18.717      859.913
06/27/2014  08:39:00       67.248      -42.573       16.690       66.516       67.806       55.519     4424.377     4597.716     3082.402        0.936        0.605       79.591       60.240        0.573      343.132       19.030      859.931
06/27/2014  08:40:00       56.929       -7.268       40.953       46.358       77.588       43.866     2149.067     6019.949     1924.186        0.753        0.505       57.391       42.455        0.547      343.032       18.857      859.954
06/27/2014  08:41:00        8.392       16.950       38.241       26.604       53.669       30.369      707.778     2880.397      922.250        0.316        0.226       18.913       14.743        0.608      343.191       19.128      859.969
06/27/2014  08:42:00       29.189      -14.794       45.756       73.927      101.626       55.786     5465.242    10327.931     3112.034        1.103        0.945       32.724       66.109        4.081      343.217       19.173      859.959
06/27/2014  08:43:00       58.535       29.531       60.682       47.267       72.866       37.270     2234.136     5309.525     1389.085        0.846        0.447       65.562       40.974        0.391      342.856       18.559      859.939
06/27/2014  08:44:00      106.758       98.584       64.676       59.358       40.845       40.064     3523.403     1668.304     1605.120        1.605        0.340      145.313       25.412        0.031      342.750       18.377      859.921
06/27/2014  08:45:00       85.962       73.418       31.408       39.044       42.048       29.341     1524.468     1768.018      860.898        0.896        0.208      113.047       21.347        0.036      342.934       18.692      859.901
06/27/2014  08:46:00       19.907       29.056       60.133       50.284       96.850       54.143     2528.470     9379.864     2931.467        0.985        0.742       35.221       54.555        2.399      343.298       19.313      859.892
06/27/2014  08:47:00       99.701       25.546       30.517       88.817      107.549       45.693     7888.424    11566.688     2087.841        1.653        1.077      102.922       47.843        0.216      342.815       18.487      859.876
06/27/2014  08:48:00      112.314      -37.249       34.452       61.832       63.131       48.933     3823.161     3985.505     2394.418        1.269        0.510      118.330       44.617        0.142      343.136       19.035      859.885
06/27/2014  08:49:00       79.230     -172.360      -22.618       70.463       86.367       53.957     4965.034     7459.193     2911.366        2.591        0.767      189.698       50.928        0.072      343.110       18.988      859.899
06/27/2014  08:50:00       87.059      -56.318       29.780       81.646      127.562       73.456     6666.091    16272.081     5395.796        1.998        1.417      103.687       72.511        0.489      343.079       18.938      859.913
06/27/2014  08:51:00      108.441      -89.010       26.383       61.614       90.584       48.322     3796.313     8205.541     2335.051        1.736        0.717      140.293       44.132        0.099      342.820       18.496      859.913
06/27/2014  08:52:00       91.469       28.784       18.814       86.314       98.405       45.624     7450.192     9683.564     2081.561        1.438        0.961       95.891       45.989        0.230      342.815       18.488      859.901
06/27/2014  08:53:00       35.861     -122.547        4.383       47.447       62.136       45.793     2251.196     3860.841     2096.999        1.226        0.410      127.686       29.417        0.053      343.081       18.942      859.908
06/27/2014  08:54:00       64.541      -88.650       10.110       69.957      101.221       57.277     4894.037    10245.591     3280.696        1.527        0.921      109.656       63.559        0.336      343.293       19.301      859.886
06/27/2014  08:55:00      135.531      115.352       94.355      122.911       73.490       80.353    15107.208     5400.765     6456.643        3.377        1.348      177.974       76.313        0.184      342.835       18.520      859.853
06/27/2014  08:56:00      129.466     -143.775        0.111      116.469      130.755       89.418    13565.098    17096.794     7995.573        3.804        1.933      193.475       97.715        0.255      343.055       18.896      859.843
06/27/2014  08:57:00       70.173      -38.697       36.297       77.175      140.317       80.166     5955.934    19688.854     6426.534        1.990        1.604       80.135       86.071        1.154      343.316       19.341      859.848
06/27/2014  08:58:00       50.855       78.569       83.696       61.642       70.715       51.320     3799.681     5000.569     2633.775        1.360        0.572       93.591       46.047        0.242      343.248       19.226      859.861
06/27/2014  08:59:00       28.319       33.570       35.166       47.923       64.614       35.694     2296.579     4174.936     1274.059        0.545        0.387       43.919       24.222        0.304      343.541       19.725      859.872
06/27/2014  09:00:00      103.744     -156.309        5.519       74.787       94.437       61.236     5593.031     8918.356     3749.870        2.674        0.913      187.604       49.900        0.071      343.389       19.465      859.855
06/27/2014  09:01:00       44.594      -95.604       -8.770       80.917      102.001       62.091     6547.493    10404.177     3855.241        1.600        1.040      105.493       53.204        0.254      343.624       19.866      859.860
06/27/2014  09:02:00       65.538        6.880       52.732       63.086      114.615       79.593     3979.786    13136.577     6335.009        1.528        1.173       65.898       89.994        1.865      343.416       19.512      859.865
06/27/2014  09:03:00       22.802       48.055       66.330       38.140       72.855       35.741     1454.664     5307.865     1277.393        0.763        0.402       53.190       36.068        0.460      343.199       19.143      859.847
06/27/2014  09:04:00       19.853        5.205       38.009       64.038       46.462       42.546     4100.820     2158.753     1810.192        0.497        0.403       20.524       36.335        3.134      343.825       20.210      859.844
06/27/2014  09:05:00       74.832      -77.004       -3.478       44.781       46.724       45.072     2005.320     2183.135     2031.476        0.888        0.311      107.375       12.597        0.014      342.946       18.710      859.850
06/27/2014  09:06:00       34.883      -39.752       21.766       63.903       72.038       45.497     4083.654     5189.492     2069.943        0.731        0.567       52.887       36.178        0.468      343.563       19.763      859.865
06/27/2014  09:07:00       31.489      -93.387       14.108       59.631       83.339       57.977     3555.891     6945.434     3361.314        1.188        0.693       98.552       53.013        0.289      343.751       20.084      859.896
06/27/2014  09:08:00       54.948      -46.062       14.372       66.780       78.441       39.468     4459.504     6152.968     1557.705        0.876        0.609       71.701       53.319        0.553      343.667       19.940      859.952
06/27/2014  09:09:00       28.756       -0.730        3.115       26.439       24.484       31.076      699.001      599.462      965.725        0.155        0.113       28.765       14.800        0.265      343.576       19.785      859.992
06/27/2014  09:10:00       46.840       17.393        8.443       28.389       48.242       34.791      805.912     2327.336     1210.423        0.345        0.217       49.965       23.519        0.222      343.425       19.529      860.010
06/27/2014  09:11:00       -7.621      -53.460        8.690       37.249       61.724       32.390     1387.475     3809.825     1049.120        0.462        0.312       54.000       35.127        0.423      343.477       19.616      860.014
06/27/2014  09:12:00      -72.720      -47.333        8.786       53.578       57.065       36.480     2870.591     3256.397     1330.794        0.753        0.373       86.767       34.174        0.155      343.355       19.408      860.018
06/27/2014  09:13:00      -46.407       -3.439       14.087       35.985       24.927       21.117     1294.938      621.369      445.941        0.236        0.118       46.534       22.642        0.237      343.453       19.575      860.006
06/27/2014  09:14:00       44.841       61.287        7.114       41.028       35.264       28.312     1683.329     1243.569      801.583        0.477        0.186       75.939       25.234        0.110      344.003       20.514      859.983
06/27/2014  09:15:00      182.646       97.069       26.592       91.795       60.511       52.868     8426.292     3661.537     2795.007        2.918        0.744      206.838       43.434        0.044      343.633       19.880      859.920
06/27/2014  09:16:00      135.995       99.689       54.551       87.793       63.433       74.717     7707.610     4023.789     5582.704        2.436        0.866      168.619       44.593        0.070      343.836       20.225      859.882
06/27/2014  09:17:00      143.828      109.819       33.936       92.255       56.341       61.176     8510.959     3174.329     3742.553        2.466        0.771      180.960       38.565        0.045      343.663       19.931      859.871
06/27/2014  09:18:00       56.409       54.930       59.160       71.866       76.230       51.502     5164.726     5811.033     2652.420        1.166        0.681       78.736       45.509        0.334      343.827       20.215      859.858
06/27/2014  09:19:00        5.265      -20.041       23.704       37.761       47.685       38.859     1425.901     2273.835     1510.053        0.310        0.260       20.721       15.162        0.535      343.907       20.350      859.870
06/27/2014  09:20:00       42.835     -133.841        1.418       41.525       41.384       49.951     1724.347     1712.627     2495.143        1.284        0.297      140.528       30.271        0.046      343.313       19.337      859.881
06/27/2014  09:21:00       -7.142      -60.163       10.403       24.346       20.690       16.769      592.735      428.066      281.185        0.254        0.065       60.586        8.700        0.021      343.551       19.741      859.893
06/27/2014  09:22:00      -14.596       -2.720       23.301       14.907       21.774       21.589      222.211      474.111      466.072        0.096        0.058       14.848       16.413        1.222      344.583       21.506      859.886
06/27/2014  09:23:00      -19.597       -1.394        7.436       22.094       31.893       18.896      488.161     1017.160      357.055        0.115        0.093       19.646       10.981        0.312      343.922       20.377      859.887
06/27/2014  09:24:00      -50.319      -63.397        5.598       60.072       49.986       31.769     3608.615     2498.605     1009.246        0.685        0.356       80.939       33.307        0.169      343.669       19.944      859.897
06/27/2014  09:25:00       -1.661        1.430       34.531       31.932       37.043       35.722     1019.632     1372.209     1276.087        0.243        0.183        2.192       23.991      119.778      344.642       21.608      859.893
06/27/2014  09:26:00       26.447        5.208       99.237       61.974      121.190       72.135     3840.785    14687.012     5203.387        1.715        1.187       26.955       73.679        7.471      344.138       20.745      859.838
06/27/2014  09:27:00      116.336      -99.293       24.992       94.811       95.421       62.131     8989.098     9105.243     3860.299        2.298        1.098      152.948       75.443        0.243      343.550       19.739      859.867
06/27/2014  09:28:00       27.612      -22.780       41.994       38.630       48.975       33.110     1492.240     2398.531     1096.244        0.402        0.249       35.796       25.689        0.515      344.161       20.784      859.865
06/27/2014  09:29:00      -11.004      -21.245        4.018       41.884       39.155       16.435     1754.274     1533.101      270.098        0.207        0.178       23.926       11.947        0.249      343.435       19.546      859.896
06/27/2014  09:30:00       47.869       24.699      -10.192       44.890       57.111       23.421     2015.127     3261.715      548.536        0.441        0.291       53.866       29.790        0.306      343.421       19.521      859.913
06/27/2014  09:31:00      155.901     -112.813      103.984       83.938       97.262       62.787     7045.653     9459.895     3942.267        3.414        1.022      192.437       43.689        0.052      343.590       19.806      859.807
06/27/2014  09:32:00       95.508     -136.857       46.296       83.698      111.219       72.980     7005.299    12369.614     5326.103        2.734        1.235      166.887       67.394        0.163      343.793       20.152      859.728
06/27/2014  09:33:00      -25.703       40.173       22.462       52.292       48.760       60.885     2734.436     2377.533     3706.954        0.580        0.441       47.692       29.380        0.380      343.953       20.429      859.733
06/27/2014  09:34:00       -2.850       -9.166       27.584       43.663       59.120       39.496     1906.437     3495.201     1559.972        0.391        0.348        9.599       23.497        5.992      344.476       21.323      859.725
06/27/2014  09:35:00       72.671     -150.521      -11.467       88.889       91.481       54.473     7901.233     8368.807     2967.288        2.365        0.962      167.146       47.988        0.082      344.088       20.658      859.724
06/27/2014  09:36:00       59.776     -127.609      -10.912       69.335       85.372       52.553     4807.363     7288.381     2761.805        1.741        0.743      140.916       40.756        0.084      343.982       20.475      859.760
06/27/2014  09:37:00       39.912      -58.982       31.972       73.446      119.616       77.814     5394.302    14308.080     6054.971        1.592        1.288       71.217       76.987        1.169      344.322       21.058      859.763
06/27/2014  09:38:00       43.671       12.048       55.713       51.635       78.234       47.525     2666.162     6120.626     2258.618        0.810        0.552       45.302       41.832        0.853      344.306       21.031      859.754
06/27/2014  09:39:00       83.148       80.938       50.737       54.281       32.254       29.411     2946.443     1040.338      864.997        1.044        0.243      116.037       24.709        0.045      344.085       20.653      859.738
06/27/2014  09:40:00        3.600      -27.037       25.711       50.211       72.560       37.813     2521.160     5264.892     1429.831        0.531        0.461       27.276       29.708        1.186      344.341       21.092      859.715
06/27/2014  09:41:00       55.928       57.586       80.404       65.310       84.870       60.665     4265.422     7202.902     3680.202        1.403        0.757       80.275       52.388        0.426      344.373       21.145      859.673
06/27/2014  09:42:00      103.718       35.252       86.383      101.629       72.628       65.219    10328.421     5274.895     4253.563        1.966        0.993      109.545       40.669        0.138      343.919       20.368      859.603
06/27/2014  09:43:00       70.695     -159.234      -15.144       66.603       76.626       45.437     4436.009     5871.588     2064.498        2.148        0.619      174.221       37.307        0.046      344.138       20.743      859.596
06/27/2014  09:44:00        2.313      -77.507       -3.541       60.552       83.754       30.528     3666.507     7014.770      931.931        0.882        0.581       77.541       32.868        0.180      344.445       21.268      859.625
06/27/2014  09:45:00      -99.563       -8.862       -6.182      119.536       58.629       47.151    14288.815     3437.322     2223.250        1.499        0.997       99.957       23.565        0.056      344.333       21.077      859.645
06/27/2014  09:46:00     -273.925     -219.405        4.590      164.924      146.695       82.455    27199.907    21519.494     6798.892        8.935        2.776      350.961       91.906        0.069      344.224       20.888      859.610
06/27/2014  09:47:00     -255.986     -187.763        0.494      132.681       98.888       66.754    17604.212     9778.913     4456.126        6.631        1.592      317.465       68.256        0.046      344.241       20.917      859.601
06/27/2014  09:48:00     -219.137     -166.260       -0.608      101.447       92.884       58.168    10291.506     8627.378     3383.532        4.898        1.115      275.070       58.985        0.046      344.300       21.017      859.602
06/27/2014  09:49:00     -143.012      -90.242       13.971      146.714      115.678       65.909    21524.862    13381.376     4343.991        3.401        1.963      169.104       79.955        0.224      344.725       21.746      859.598
06/27/2014  09:50:00     -118.658     -108.557        1.571      109.598       85.104       57.479    12011.709     7242.760     3303.835        2.421        1.128      160.824       53.275        0.110      344.545       21.439      859.558
06/27/2014  09:51:00     -129.607      -90.604       17.105      112.786       79.963       62.087    12720.717     6394.076     3854.830        2.413        1.148      158.136       63.815        0.163      344.644       21.609      859.552
06/27/2014  09:52:00     -172.195      -94.000        3.919      131.825       74.608       57.904    17377.793     5566.315     3352.898        3.240        1.315      196.181       50.487        0.066      344.631       21.585      859.535
06/27/2014  09:53:00     -112.802     -121.502       29.138      113.972       89.857       67.425    12989.593     8074.281     4546.103        2.697        1.280      165.792       71.026        0.184      344.749       21.787      859.545
06/27/2014  09:54:00     -116.704      -63.553       14.510      104.493       65.074       39.259    10918.798     4234.674     1541.274        1.728        0.835      132.886       45.354        0.116      344.479       21.325      859.531
06/27/2014  09:55:00     -275.008      -36.956      -12.870      173.060      151.891       63.446    29949.615    23070.970     4025.340        6.709        2.852      277.480       76.331        0.076      344.417       21.219      859.508
06/27/2014  09:56:00     -500.923     -281.583      -11.562      238.707      161.053       86.069    56980.848    25938.067     7407.839       21.032        4.516      574.641      108.619        0.036      344.346       21.098      859.500
06/27/2014  09:57:00     -371.229     -239.731      -16.105      192.721      151.373       82.595    37141.343    22913.705     6821.857       13.120        3.344      441.907       84.622        0.037      344.402       21.192      859.523
06/27/2014  09:58:00     -281.875     -230.952        1.557      146.078      153.679       79.126    21338.922    23617.312     6260.923        9.200        2.561      364.407       81.704        0.050      344.402       21.192      859.520
06/27/2014  09:59:00     -279.604     -150.577       -3.715      130.430      111.296       70.803    17012.106    12386.877     5013.027        6.763        1.721      317.572       55.816        0.031      344.381       21.157      859.524
06/27/2014  10:00:00     -180.937      -90.800        9.121      115.801      111.507       69.955    13409.939    12433.907     4893.752        3.590        1.537      202.442       55.321        0.075      344.817       21.902      859.533
06/27/2014  10:01:00     -253.383     -128.972        5.461      168.464      129.599       68.100    28380.222    16796.005     4637.645        6.533        2.491      284.318       79.269        0.078      344.653       21.622      859.530
06/27/2014  10:02:00     -176.120     -218.528        8.181      147.104      161.416       80.294    21639.725    26055.052     6447.193        6.648        2.707      280.665       77.661        0.077      344.438       21.253      859.527
06/27/2014  10:03:00      -74.133     -303.442       19.695      134.756      164.790       76.005    18159.292    27155.638     5776.775        7.452        2.555      312.367       60.034        0.037      344.415       21.215      859.506
06/27/2014  10:04:00     -237.940      -61.382        9.716      148.321       95.773       60.259    21999.168     9172.553     3631.107        4.763        1.740      245.730       57.412        0.055      344.730       21.753      859.554
06/27/2014  10:05:00     -232.823     -105.847       -0.132      151.862      109.922       73.148    23062.154    12082.769     5350.613        5.295        2.025      255.754       85.191        0.111      344.620       21.564      859.597
06/27/2014  10:06:00     -182.746      -53.259      -11.645      108.480       86.564       46.987    11767.968     7493.369     2207.815        2.892        1.073      190.348       42.955        0.051      344.372       21.142      859.605
06/27/2014  10:07:00      -43.173      -18.641        6.350       45.577       40.874       26.872     2077.254     1670.700      722.123        0.336        0.224       47.025       26.046        0.307      344.946       22.129      859.577
06/27/2014  10:08:00       33.039        2.252        7.392       67.777       39.677       34.059     4593.684     1574.274     1160.024        0.424        0.366       33.116       24.547        0.549      344.804       21.884      859.522
06/27/2014  10:09:00       28.148       39.468       56.989       43.592       46.889       25.352     1900.237     2198.570      642.732        0.517        0.237       48.477       20.402        0.177      345.279       22.696      859.476
06/27/2014  10:10:00       14.447      -24.531       13.520       38.132       68.147       30.271     1454.043     4643.958      916.321        0.400        0.351       28.469       24.906        0.765      345.069       22.337      859.449
06/27/2014  10:11:00      -16.154      101.876       18.067       64.389       55.327       37.406     4145.887     3061.121     1399.178        0.978        0.430      103.149       32.607        0.100      345.261       22.666      859.417
06/27/2014  10:12:00      -79.012      -41.266       -0.160       78.594       60.169       37.923     6177.057     3620.350     1438.184        0.959        0.562       89.139       32.780        0.135      344.857       21.971      859.447
06/27/2014  10:13:00      -58.859      -27.965        0.470       68.515       53.397       29.095     4694.350     2851.282      846.501        0.632        0.420       65.164       24.225        0.138      344.718       21.736      859.421
06/27/2014  10:14:00     -226.269     -168.841       -0.291      169.773      110.000       67.551    28823.039    12099.935     4563.139        6.259        2.274      282.321       77.193        0.075      344.822       21.911      859.415
06/27/2014  10:15:00      -92.890     -103.020       26.970      135.197      102.472       78.748    18278.247    10500.478     6201.278        2.747        1.749      138.715       76.755        0.306      345.074       22.343      859.439
06/27/2014  10:16:00     -165.990     -133.309        5.107      154.645       90.462       62.160    23915.173     8183.284     3863.902        4.065        1.798      212.894       78.980        0.138      344.919       22.077      859.440
06/27/2014  10:17:00     -213.240     -184.870       -7.675       99.148       94.260       57.650     9830.332     8884.920     3323.496        5.087        1.102      282.220       46.627        0.027      344.671       21.652      859.462
06/27/2014  10:18:00     -164.726      -96.818       -2.361      108.046       86.687       45.619    11673.932     7514.641     2081.113        2.889        1.063      191.071       47.142        0.061      344.768       21.818      859.436
06/27/2014  10:19:00     -263.872      -92.408      -12.907      107.521       98.900       51.066    11560.835     9781.125     2607.725        5.114        1.197      279.585       50.793        0.033      344.937       22.105      859.450
06/27/2014  10:20:00     -382.470      -64.076      -34.458      122.163      127.983       59.442    14923.849    16379.594     3533.389        9.320        1.742      387.801       57.464        0.022      344.646       21.609      859.463
06/27/2014  10:21:00     -203.935      -25.024       -6.393       91.850      101.437       49.178     8436.369    10289.533     2418.442        3.170        1.057      205.465       44.561        0.047      344.741       21.772      859.447
06/27/2014  10:22:00     -181.235      -90.922      -22.227      102.579      106.304       46.402    10522.494    11300.594     2153.174        3.279        1.199      202.763       25.205        0.015      344.899       22.042      859.419
06/27/2014  10:23:00     -123.369     -166.943       -7.791       52.351       79.069       27.317     2740.578     6251.917      746.245        2.644        0.487      207.581       23.788        0.013      345.138       22.452      859.415
06/27/2014  10:24:00     -205.112     -140.048        7.647      115.876       88.544       56.508    13427.150     7840.128     3193.110        4.310        1.223      248.364       60.200        0.059      345.163       22.493      859.402
06/27/2014  10:25:00     -144.762     -211.597        5.532       98.973      142.797       49.366     9795.611    20391.119     2437.020        4.919        1.631      256.377       48.452        0.036      345.057       22.312      859.421
06/27/2014  10:26:00     -120.854     -158.215       26.384      114.874      112.510       65.406    13195.974    12658.547     4277.957        3.523        1.507      199.092       43.452        0.048      344.955       22.139      859.428
06/27/2014  10:27:00     -138.568     -214.382       -1.958      110.698      130.704       58.993    12254.028    17083.435     3480.214        4.899        1.641      255.266       58.336        0.052      344.803       21.879      859.432
06/27/2014  10:28:00      -25.065     -210.420        3.781       51.359       53.953       44.172     2637.797     2910.922     1951.178        2.621        0.375      211.907       25.146        0.014      344.449       21.274      859.450
06/27/2014  10:29:00      -32.287     -134.588      -11.314       43.802       49.181       36.692     1918.635     2418.780     1346.294        1.248        0.284      138.407       22.584        0.027      344.755       21.800      859.426
06/27/2014  10:30:00       47.965     -139.705      -12.677      116.428      105.278       57.036    13555.426    11083.415     3253.141        2.493        1.395      147.710       59.142        0.160      344.991       22.202      859.426
06/27/2014  10:31:00      -52.269      -92.198      -17.819       79.534      116.003       73.613     6325.737    13456.686     5418.915        1.837        1.260      105.984       43.783        0.171      344.877       22.007      859.423
06/27/2014  10:32:00      -47.150      -21.403       32.526      106.151       93.438       47.815    11268.118     8730.735     2286.290        1.301        1.114       51.780       56.146        1.176      345.297       22.727      859.412
06/27/2014  10:33:00     -136.031     -181.016       -0.820      108.074      100.591       51.099    11679.935    10118.629     2611.108        3.784        1.220      226.431       47.978        0.045      344.904       22.050      859.434
06/27/2014  10:34:00     -110.136      -78.366        6.832       96.888       68.411       45.123     9387.344     4680.034     2036.044        1.721        0.805      135.170       39.050        0.083      344.893       22.035      859.427
06/27/2014  10:35:00      -45.362     -234.629      -23.158       74.587       90.217       46.951     5563.273     8139.048     2204.420        3.677        0.795      238.973       35.299        0.022      344.614       21.556      859.451
06/27/2014  10:36:00      -93.119     -160.010       -3.960       64.662       94.916       56.740     4181.196     9009.038     3219.441        2.535        0.820      185.134       22.609        0.015      344.682       21.671      859.411
06/27/2014  10:37:00       18.272     -161.500        2.536      118.059      126.336       63.966    13937.810    15960.721     4091.664        3.020        1.700      162.531       54.156        0.111      344.782       21.843      859.409
06/27/2014  10:38:00      -61.766     -103.137       -1.646      129.043       82.331       52.830    16652.116     6778.359     2791.028        2.033        1.311      120.217       67.827        0.318      344.849       21.959      859.406
06/27/2014  10:39:00       26.297      -59.291       25.364       60.384       62.960       47.450     3646.274     3963.913     2251.545        0.735        0.493       64.861       26.726        0.170      345.243       22.636      859.382
06/27/2014  10:40:00      -19.499      -85.232        3.123       55.167       63.179       39.705     3043.421     3991.560     1576.475        0.813        0.431       87.434       30.866        0.125      345.195       22.552      859.372
06/27/2014  10:41:00      -65.093      -51.793      -31.453       69.868       60.436       40.816     4881.528     3652.495     1665.972        0.905        0.510       83.184       28.989        0.121      345.022       22.256      859.368
06/27/2014  10:42:00     -137.760     -237.475        1.646      139.986      183.227       61.800    19595.942    33572.250     3819.278        6.617        2.849      274.541       72.522        0.070      345.096       22.378      859.363
06/27/2014  10:43:00     -141.313     -386.064       -3.854       92.818      104.621       53.729     8615.269    10945.610     2886.846        9.573        1.122      411.114       45.294        0.012      344.740       21.771      859.361
06/27/2014  10:44:00      -66.637     -304.547        3.156       71.486      119.821       45.052     5110.316    14356.974     2029.675        5.934        1.075      311.752       52.298        0.028      344.767       21.817      859.359
06/27/2014  10:45:00     -240.328     -199.201      -10.825      139.351      111.879       60.334    19418.572    12516.843     3640.193        6.656        1.779      312.151       73.996        0.056      345.232       22.613      859.374
06/27/2014  10:46:00     -338.045     -207.608       -6.429      184.080      186.174       98.680    33885.373    34660.816     9737.767       11.784        3.914      396.706      108.611        0.075      344.984       22.187      859.411
06/27/2014  10:47:00     -164.007     -220.175      -12.978      114.275      125.656       50.014    13058.716    15789.354     2501.439        5.344        1.567      274.545       55.383        0.041      344.730       21.752      859.406
06/27/2014  10:48:00     -137.393     -217.418      -25.388       79.486       62.287       38.516     6318.081     3879.634     1483.496        3.923        0.584      257.192       19.378        0.006      344.795       21.863      859.387
06/27/2014  10:49:00      -99.838     -165.003        3.440      126.244      108.289       49.506    15937.585    11726.402     2450.804        3.366        1.506      192.857       32.880        0.029      344.941       22.114      859.369
06/27/2014  10:50:00     -170.588      -95.332       12.746      149.613      115.688       58.028    22384.006    13383.804     3367.256        3.874        1.957      195.419       71.905        0.135      345.622       23.281      859.350
06/27/2014  10:51:00      -40.791       -9.680       22.292       63.516       62.379       38.288     4034.239     3891.135     1465.966        0.582        0.470       41.923       37.778        0.812      346.194       24.267      859.341
06/27/2014  10:52:00     -123.964     -130.907       15.708      123.510      100.369       59.644    15254.696    10074.030     3557.364        3.081        1.444      180.288       66.459        0.136      345.529       23.123      859.336
06/27/2014  10:53:00     -250.498     -231.241        2.459      158.261      124.988       86.308    25046.687    15622.106     7449.113        8.216        2.406      340.913       87.698        0.066      345.289       22.709      859.330
06/27/2014  10:54:00     -357.888     -196.456        1.253      150.184      118.882       69.366    22555.351    14132.975     4811.682       10.408        2.075      408.263       80.480        0.039      345.065       22.326      859.311
06/27/2014  10:55:00     -324.264      -96.473       -3.012      233.212      125.403       76.331    54387.633    15725.904     5826.433        9.519        3.797      338.311      103.012        0.093      345.398       22.899      859.319
06/27/2014  10:56:00     -303.965     -212.127      -16.380      157.080      125.750       69.896    24674.042    15813.032     4885.487        9.151        2.269      370.665       66.421        0.032      345.156       22.481      859.334
06/27/2014  10:57:00     -447.259     -273.496      -17.661      191.672      170.497       88.268    36738.186    29069.148     7791.198       17.436        3.680      524.252      100.986        0.037      345.233       22.615      859.314
06/27/2014  10:58:00     -339.533     -224.686       15.963      176.198      127.228       84.824    31045.749    16187.035     7195.122       11.022        2.721      407.145       90.469        0.049      345.260       22.659      859.340
06/27/2014  10:59:00     -289.338     -174.410      -17.294      167.939      115.691       78.918    28203.518    13384.441     6228.106        8.112        2.391      337.840       67.027        0.039      345.292       22.716      859.345
06/27/2014  11:00:00     -239.216     -118.251       -4.410      175.879       97.310       61.903    30933.554     9469.156     3831.950        5.772        2.212      266.847       68.041        0.065      345.225       22.600      859.343
06/27/2014  11:01:00     -155.997     -112.164       -3.895       98.674       75.215       48.016     9736.530     5657.222     2305.499        2.731        0.885      192.135       38.673        0.041      345.581       23.213      859.330
06/27/2014  11:02:00     -304.532     -225.087       -0.819      253.370      179.597       88.414    64196.408    32255.133     7817.083       12.382        5.213      378.687       96.201        0.065      345.453       22.992      859.334
06/27/2014  11:03:00     -354.257     -140.676       -5.451      168.705      135.315       80.252    28461.405    18310.023     6440.321        9.926        2.661      381.167       85.484        0.050      345.361       22.832      859.337
06/27/2014  11:04:00     -317.236      -97.097      -22.772      145.946      123.420       61.817    21300.337    15232.543     3821.370        7.546        2.018      331.762       64.442        0.038      345.606       23.253      859.357
06/27/2014  11:05:00     -395.318     -201.043      -14.972      229.611      167.562       88.603    52721.325    28076.941     7850.481       14.277        4.432      443.503      103.218        0.054      345.344       22.804      859.372
06/27/2014  11:06:00     -233.401     -158.023        2.237      174.484      117.785       72.343    30444.813    13873.372     5233.550        6.449        2.478      281.864       69.249        0.060      345.394       22.890      859.398
06/27/2014  11:07:00     -297.876     -219.573       -5.859      121.901      101.921       64.927    14859.866    10387.829     4215.495        8.322        1.473      370.057       54.878        0.022      345.250       22.642      859.392
06/27/2014  11:08:00     -171.380     -155.085       -3.966      189.942      106.128       58.418    36078.135    11263.258     3412.606        5.209        2.538      231.133       62.341        0.073      345.430       22.952      859.392
06/27/2014  11:09:00     -315.585     -260.637       -2.135      193.179      175.232       74.410    37318.213    30706.088     5536.911       12.053        3.678      409.299       73.956        0.033      345.399       22.897      859.397
06/27/2014  11:10:00     -375.304     -264.557       -6.995      153.208      121.454       87.136    23472.583    14751.137     7592.603       12.835        2.291      459.177       75.017        0.027      345.252       22.646      859.392
06/27/2014  11:11:00     -496.708     -302.413      -25.049      210.958      155.594       90.081    44503.453    24209.543     8114.573       20.780        3.841      581.526       99.033        0.029      345.352       22.817      859.377
06/27/2014  11:12:00     -224.245      -70.319       -2.343      191.970       83.845       70.842    36852.671     7030.056     5018.569        5.206        2.445      235.012       93.373        0.158      345.642       23.315      859.394
06/27/2014  11:13:00     -291.291      -33.435      -13.494      180.156       78.099       61.546    32456.301     6099.380     3787.920        6.424        2.117      293.204       84.083        0.082      345.768       23.532      859.371
06/27/2014  11:14:00     -133.392     -141.981       27.420      138.616      127.469       63.813    19214.381    16248.407     4072.074        3.911        1.977      194.813       70.532        0.131      345.910       23.777      859.398
06/27/2014  11:15:00      -73.474     -205.577        4.817       97.013      115.605       52.445     9411.446    13364.404     2750.503        3.660        1.276      218.313       48.570        0.049      345.648       23.326      859.389
06/27/2014  11:16:00     -152.703     -113.162       12.028      166.634       95.597       58.222    27766.887     9138.711     3389.760        3.828        2.015      190.062       66.712        0.123      346.048       24.012      859.369
06/27/2014  11:17:00     -268.647     -305.438       -1.042      151.266      151.252       74.251    22881.490    22877.166     5513.146       10.836        2.564      406.772       72.719        0.032      345.334       22.787      859.394
06/27/2014  11:18:00     -156.164     -195.703       -3.245      119.248      124.489       62.755    14220.129    15497.416     3938.130        4.817        1.683      250.373       51.382        0.042      345.347       22.808      859.399
06/27/2014  11:19:00     -176.159      -55.470       -4.522      115.219       69.197       51.881    13275.376     4788.189     2691.619        2.744        1.038      184.686       63.182        0.117      345.867       23.704      859.379
06/27/2014  11:20:00      -70.973      -99.071        4.966       67.921       86.334       39.089     4613.238     7453.509     1527.938        1.423        0.680      121.870       33.801        0.077      345.988       23.913      859.370
06/27/2014  11:21:00     -106.746      -36.621       -6.730       39.981       54.787       26.726     1598.504     3001.658      714.305        0.905        0.266      112.853       15.480        0.019      345.823       23.629      859.335
06/27/2014  11:22:00     -310.506     -244.077        1.009      215.488      160.001       79.683    46435.089    25600.468     6349.342       11.717        3.919      394.953       79.346        0.040      345.752       23.505      859.301
06/27/2014  11:23:00     -302.005     -206.350      -11.278      152.370      123.382       63.463    23216.502    15223.117     4027.606        8.818        2.123      365.769       55.943        0.023      345.481       23.038      859.297
06/27/2014  11:24:00     -260.879     -240.961      -14.059      125.773      139.677       72.651    15818.955    19509.668     5278.171        8.346        2.030      355.134       70.513        0.039      345.507       23.084      859.293
06/27/2014  11:25:00     -149.794     -184.001        7.415      140.014       95.868       58.492    19603.988     9190.597     3421.303        4.428        1.611      237.265       55.316        0.054      345.417       22.929      859.281
06/27/2014  11:26:00     -111.880     -239.305        8.797       95.362      102.097       49.343     9093.861    10423.733     2434.688        4.590        1.098      264.166       41.635        0.025      345.328       22.776      859.279
06/27/2014  11:27:00     -231.745     -242.808        8.478      136.073      128.415       86.957    18515.963    16490.410     7561.520        7.764        2.128      335.651       83.634        0.062      345.513       23.092      859.281
06/27/2014  11:28:00     -351.598     -191.434        1.124      222.005      120.454       76.431    49286.356    14509.156     5841.711       11.494        3.482      400.335       91.995        0.053      345.596       23.235      859.222
06/27/2014  11:29:00     -254.780     -218.799       -9.647      119.267      116.459       56.973    14224.565    13562.598     3245.958        7.195        1.552      335.837       56.286        0.028      345.943       23.833      859.239
06/27/2014  11:30:00     -169.616     -123.738       13.559      174.497      130.644       63.915    30449.233    17067.802     4085.139        4.792        2.580      209.954       77.169        0.135      345.932       23.815      859.226
06/27/2014  11:31:00     -114.470     -289.924      -13.037      115.989      103.600       52.859    13453.549    10732.897     2794.121        6.215        1.349      311.704       51.738        0.028      345.602       23.246      859.205
06/27/2014  11:32:00     -148.024     -203.888       -4.154      153.556      104.527       56.784    23579.552    10925.789     3224.402        5.061        1.886      251.956       58.027        0.053      345.900       23.758      859.164
06/27/2014  11:33:00     -138.347      -54.960        5.202       84.943       76.895       48.348     7215.299     5912.778     2337.539        1.882        0.773      148.864       43.631        0.086      346.286       24.422      859.131
06/27/2014  11:34:00     -184.991     -106.055       -4.782      149.052      122.525       48.141    22216.517    15012.261     2317.529        4.251        1.977      213.235       51.966        0.059      345.837       23.651      859.140
06/27/2014  11:35:00      -95.288     -156.222      -15.382       91.513       99.503       35.513     8374.549     9900.779     1261.202        2.663        0.977      182.989       17.187        0.009      345.471       23.024      859.124
06/27/2014  11:36:00     -180.231     -102.582      -22.768       64.970       61.644       32.659     4221.154     3799.940     1066.607        2.630        0.454      207.379       33.403        0.026      345.625       23.287      859.091
06/27/2014  11:37:00      -97.469       63.118       12.161       54.386       31.859       39.696     2957.833     1015.001     1575.765        0.959        0.277      116.121       19.650        0.029      346.036       23.996      859.095
06/27/2014  11:38:00       21.618        6.103       37.792       32.388       34.143       22.542     1049.000     1165.737      508.160        0.233        0.136       22.463       15.762        0.492      347.258       26.099      859.097
06/27/2014  11:39:00     -149.399      -94.643      -27.718      169.577      120.014       55.946    28756.341    14403.285     3129.964        3.916        2.314      176.854       31.243        0.031      346.329       24.497      859.088
06/27/2014  11:40:00     -283.615     -144.529      -13.781      138.430      122.121       57.867    19162.848    14913.469     3348.614        6.946        1.871      318.317       45.137        0.020      345.754       23.507      859.077
06/27/2014  11:41:00      -87.189     -127.230        3.431       85.740       97.050       55.595     7351.384     9418.692     3090.847        2.183        0.993      154.238       53.587        0.121      345.921       23.794      859.084
06/27/2014  11:42:00      -59.279      -53.087       10.435       62.430       71.302       45.413     3897.530     5084.043     2062.355        0.874        0.552       79.575       31.785        0.160      346.179       24.241      859.023
06/27/2014  11:43:00      -67.035      -72.259       13.901       72.357       65.026       39.729     5235.591     4228.329     1578.405        1.047        0.552       98.565       25.381        0.066      346.449       24.705      859.009
06/27/2014  11:44:00     -103.553      -84.776       -2.069       77.856       79.840       36.167     6061.560     6374.411     1308.061        1.583        0.687      133.829       16.389        0.015      346.252       24.365      858.999
06/27/2014  11:45:00     -238.669     -270.621      -16.640      141.529      130.539       64.462    20030.466    17040.470     4155.321        8.584        2.061      360.830       69.349        0.037      345.828       23.635      858.989
06/27/2014  11:46:00     -203.849     -336.502        9.464      200.473      179.247       71.434    40189.460    32129.524     5102.827       11.614        3.871      393.431       83.382        0.045      345.806       23.596      859.002
06/27/2014  11:47:00      -95.752     -131.566       19.605      125.502       81.282       67.757    15750.788     6606.701     4591.007        2.690        1.347      162.721       67.540        0.172      346.059       24.031      859.021
06/27/2014  11:48:00     -199.532     -115.492       12.822      124.441       72.530       57.414    15485.631     5260.558     3296.374        3.868        1.202      230.546       51.192        0.049      345.962       23.866      859.021
06/27/2014  11:49:00     -151.270      -99.453        9.649       87.686       71.175       51.166     7688.922     5065.891     2618.005        2.412        0.769      181.035       48.273        0.071      346.010       23.948      859.004
06/27/2014  11:50:00      -62.656      -94.412       14.865       71.867       89.901       43.334     5164.866     8082.197     1877.832        1.409        0.756      113.311       37.518        0.110      346.021       23.969      859.008
06/27/2014  11:51:00      -50.588      -62.742        0.650       98.791       73.489       50.685     9759.645     5400.659     2568.958        1.211        0.886       80.596       41.943        0.271      346.038       23.998      858.962
06/27/2014  11:52:00     -163.779     -140.545       14.856      115.257       92.009       51.830    13284.144     8465.567     2686.302        3.561        1.222      215.815       53.924        0.062      345.954       23.850      858.966
06/27/2014  11:53:00     -226.079      -67.807       -0.407      133.637      106.025       49.419    17858.921    11241.380     2442.264        4.362        1.577      236.029       59.061        0.063      346.069       24.049      858.953
06/27/2014  11:54:00      -64.110      -58.993       10.791       80.241       64.496       40.532     6438.566     4159.763     1642.835        0.997        0.612       87.122       29.609        0.116      346.587       24.940      858.935
06/27/2014  11:55:00     -129.270      -92.084       -6.875       93.196       66.653       40.796     8685.506     4442.613     1664.342        2.001        0.740      158.714       34.443        0.047      346.355       24.541      858.935
06/27/2014  11:56:00     -242.778     -173.022        1.355      125.894      107.322       57.501    15849.259    11517.994     3306.421        5.977        1.534      298.124       47.764        0.026      346.117       24.131      858.931
06/27/2014  11:57:00     -250.491     -225.664        6.266      222.705      132.763       76.089    49597.601    17626.087     5789.558        9.335        3.651      337.150       90.600        0.072      345.905       23.766      858.930
06/27/2014  11:58:00     -201.882     -179.460      -19.515       71.540       91.487       52.651     5117.967     8369.805     2772.149        4.480        0.813      270.116       45.424        0.028      346.039       23.996      858.963
06/27/2014  11:59:00     -130.075       -8.875       -2.895       81.271       72.449       49.858     6604.944     5248.858     2485.773        1.567        0.717      130.377       46.623        0.128      346.514       24.816      858.995
06/27/2014  12:00:00     -214.988       65.660      -18.485       96.227       56.955       36.200     9259.633     3243.848     1310.437        3.234        0.691      224.791       30.469        0.018      346.026       23.977      859.005
06/27/2014  12:01:00     -158.262       -4.921       -5.986       96.023       65.661       40.608     9220.394     4311.370     1649.003        2.014        0.759      158.339       46.923        0.088      345.885       23.733      858.986
06/27/2014  12:02:00      -67.693      -13.351      -10.053       31.639       47.660       25.270     1001.017     2271.517      638.564        0.439        0.196       68.997       22.138        0.103      345.895       23.753      858.965
06/27/2014  12:03:00     -282.027      -95.480        3.077      147.925      101.792       56.840    21881.683    10361.650     3230.801        6.206        1.774      297.751       46.808        0.025      346.045       24.007      859.000
06/27/2014  12:04:00     -339.355     -268.390       -9.136      148.845      130.907       84.245    22154.817    17136.724     7097.155       11.683        2.319      432.660       86.328        0.040      345.919       23.791      859.010
06/27/2014  12:05:00     -235.275     -249.667        5.120      172.415      123.568       76.235    29726.763    15268.936     5811.851        8.425        2.540      343.056       80.212        0.055      346.011       23.948      859.036
06/27/2014  12:06:00     -176.143     -120.165        3.191      114.398      116.805       52.001    13086.847    13643.314     2704.098        3.745        1.472      213.228       58.653        0.076      345.716       23.443      859.052
06/27/2014  12:07:00      -90.648     -150.669       14.950      106.979       94.452       45.974    11444.419     8921.094     2113.589        2.681        1.124      175.836       48.405        0.076      345.995       23.922      858.998
06/27/2014  12:08:00      -67.247     -194.231       -6.373       85.372       54.414       36.589     7288.447     2960.924     1338.750        2.694        0.579      205.543       34.464        0.028      345.739       23.482      858.992
06/27/2014  12:09:00      -64.479     -149.394        6.723       73.771       71.262       43.890     5442.161     5078.234     1926.354        1.948        0.622      162.715       36.283        0.050      346.024       23.972      859.004
06/27/2014  12:10:00     -172.768      -92.250       -6.117       67.049       69.932       45.864     4495.564     4890.454     2103.530        2.494        0.574      195.854       38.466        0.039      346.108       24.117      858.971
06/27/2014  12:11:00      -68.178      -89.384       25.070       84.953       95.861       50.085     7217.018     9189.407     2508.540        1.609        0.946      112.417       51.854        0.213      346.483       24.762      858.954
06/27/2014  12:12:00     -121.230       20.872       15.132       83.716       63.900       49.848     7008.360     4083.234     2484.869        1.447        0.679      123.013       53.610        0.190      346.855       25.402      858.986
06/27/2014  12:13:00     -208.429      -43.415       17.784      108.537      112.115       60.257    11780.263    12569.871     3630.892        3.681        1.399      212.903       68.038        0.102      346.461       24.724      858.977
06/27/2014  12:14:00     -225.606     -124.431        0.526      150.002       90.903       60.137    22500.721     8263.411     3616.495        5.038        1.719      257.645       60.161        0.055      346.776       25.267      858.982
06/27/2014  12:15:00     -256.827     -161.944        0.834      176.286      122.967       80.675    31076.642    15120.962     6508.468        7.244        2.635      303.621       86.672        0.081      346.089       24.082      859.002
06/27/2014  12:16:00     -238.342      -83.623       -2.841      149.573       92.850       56.812    22371.972     8621.041     3227.562        4.901        1.711      252.586       66.221        0.069      346.253       24.365      859.032
06/27/2014  12:17:00     -124.538     -110.528       13.999       89.055      138.541       50.612     7930.775    19193.727     2561.591        2.880        1.484      166.512       50.080        0.090      346.212       24.295      859.037
06/27/2014  12:18:00     -309.712      -35.198      -20.853      163.044      107.227       53.805    26583.289    11497.650     2894.926        6.928        2.049      311.706       65.011        0.043      346.241       24.343      859.028
06/27/2014  12:19:00     -315.186       -1.662      -22.441       80.970       95.864       51.015     6556.203     9189.937     2602.508        5.910        0.917      315.190       47.752        0.023      345.996       23.922      859.039
06/27/2014  12:20:00     -120.536       -6.405       -1.383      163.685      163.820       69.440    26792.846    26837.154     4821.906        3.650        2.923      120.706       70.475        0.341      346.513       24.814      859.017
06/27/2014  12:21:00     -463.344      -71.030      -22.673      201.433      167.431       81.624    40575.308    28033.122     6662.490       14.775        3.764      468.757       98.302        0.044      346.322       24.483      858.964
06/27/2014  12:22:00     -373.345      -98.628        3.555      177.887      122.967       78.506    31643.960    15120.870     6163.196       10.102        2.646      386.153       89.720        0.054      346.549       24.874      859.018
06/27/2014  12:23:00     -338.336     -278.916      -17.858      221.591      221.635       95.852    49102.425    49122.288     9187.600       14.998        5.371      438.481      113.634        0.067      346.434       24.675      859.055
06/27/2014  12:24:00     -392.875     -216.387      -10.012      198.387      152.054       86.504    39357.524    23120.508     7482.948       13.561        3.498      448.524       95.795        0.046      346.241       24.344      859.051
06/27/2014  12:25:00     -443.790     -223.619      -39.402      146.715      133.043       76.229    21525.289    17700.309     5810.901       14.676        2.252      496.946       76.558        0.024      346.046       24.007      859.078
06/27/2014  12:26:00     -266.760      -15.886      -11.598      143.021       73.181       49.823    20455.093     5355.438     2482.315        4.992        1.415      267.233       63.605        0.057      346.072       24.055      859.074
06/27/2014  12:27:00     -116.019     -103.568       12.549      136.916       84.709       49.265    18745.905     7175.665     2426.997        2.634        1.417      155.521       53.949        0.120      346.551       24.877      859.016
06/27/2014  12:28:00      -99.743     -131.404        2.281       75.748       89.316       43.232     5737.823     7977.283     1868.993        2.140        0.779      164.971       49.607        0.090      346.265       24.386      858.999
06/27/2014  12:29:00      -55.077     -120.944       -6.170       63.772       71.081       40.878     4066.848     5052.503     1670.984        1.424        0.540      132.895       35.361        0.071      345.978       23.894      858.970
06/27/2014  12:30:00     -110.158     -180.862       -7.130       87.607      102.802       37.763     7674.905    10568.306     1426.043        3.228        0.983      211.768       37.526        0.031      346.157       24.200      858.945
06/27/2014  12:31:00      -23.975     -142.494      -15.083      101.110       93.314       63.626    10223.185     8707.510     4048.253        2.204        1.149      144.497       55.823        0.149      346.358       24.546      858.925
06/27/2014  12:32:00      -61.888     -143.957        4.400       77.017       91.804       35.427     5931.617     8428.061     1255.085        2.009        0.781      156.696       27.972        0.032      346.463       24.729      858.919
06/27/2014  12:33:00     -112.213     -126.361       12.626      140.627      136.671       59.464    19775.944    18679.064     3535.975        3.535        2.100      168.994       68.947        0.166      346.655       25.057      858.920
06/27/2014  12:34:00     -266.680      -54.621        0.799      162.608       95.642       69.897    26441.327     9147.480     4885.527        5.728        2.024      272.216       82.463        0.092      346.313       24.467      858.899
06/27/2014  12:35:00      -86.671      -48.307       25.705      103.397       99.755       47.201    10690.956     9951.142     2227.963        1.668        1.144       99.224       48.117        0.235      346.726       25.180      858.919
06/27/2014  12:36:00     -325.725     -216.669       -5.347      134.068      101.036       64.780    17974.306    10208.314     4196.505        9.272        1.619      391.206       59.691        0.023      346.357       24.543      858.964
06/27/2014  12:37:00     -371.517     -239.734        3.607      186.704      118.401       82.459    34858.412    14018.891     6799.520       12.558        2.784      442.150       79.262        0.032      346.094       24.091      858.955
06/27/2014  12:38:00     -310.385      -61.195        0.163      194.273      164.550       87.950    37741.881    27076.781     7735.211        8.631        3.628      316.360       92.280        0.085      346.495       24.781      858.945
06/27/2014  12:39:00     -390.001     -182.384        6.454      216.771      213.615       98.894    46989.839    45631.361     9779.941       14.389        5.120      430.540      118.936        0.076      346.593       24.949      858.951
06/27/2014  12:40:00     -487.679     -175.002      -17.485      207.362      159.397       83.271    42998.865    25407.424     6934.040       17.204        3.767      518.128       80.140        0.024      346.207       24.287      858.978
06/27/2014  12:41:00     -395.317     -182.948      -10.776      197.874      160.166       91.460    39154.067    25653.060     8365.017       13.150        3.659      435.597       95.502        0.048      346.208       24.287      859.016
06/27/2014  12:42:00     -219.753     -104.975       -4.364      128.535      145.022       73.568    16521.374    21031.239     5412.314        5.114        2.148      243.538       68.382        0.079      346.389       24.598      859.033
06/27/2014  12:43:00     -276.597       40.671      -13.718      110.098      117.549       53.030    12121.489    13817.870     2812.217        5.354        1.438      279.571       51.653        0.034      346.457       24.715      859.034
06/27/2014  12:44:00     -382.803     -136.271      -10.763      165.332      132.885       75.085    27334.742    17658.554     5637.812       10.792        2.532      406.335       80.332        0.039      346.436       24.679      859.058
06/27/2014  12:45:00     -144.993     -278.813        2.420      143.720      114.687       64.087    20655.381    13153.192     4107.148        6.833        1.896      314.260       63.825        0.041      345.991       23.912      859.096
06/27/2014  12:46:00     -208.791     -272.115       -4.080      108.318      141.435       69.733    11732.814    20003.793     4862.703        7.712        1.830      342.988       64.724        0.036      346.148       24.184      859.067
06/27/2014  12:47:00     -164.591     -173.603       -4.169       83.536       88.744       48.104     6978.194     7875.581     2313.961        3.720        0.858      239.224       46.551        0.038      345.875       23.714      859.059
06/27/2014  12:48:00     -208.350      -86.526       -6.779      104.390       96.099       48.617    10897.364     9234.930     2363.620        3.672        1.125      225.603       49.818        0.049      346.353       24.538      859.030
06/27/2014  12:49:00     -276.260     -264.500        1.689      191.434      178.203      102.667    36646.818    31756.321    10540.483       11.260        3.947      382.465      106.443        0.077      346.584       24.932      859.007
06/27/2014  12:50:00     -299.002     -227.942       -3.003      235.106      156.785       97.537    55275.058    24581.592     9513.470       11.535        4.469      375.978       87.436        0.054      346.480       24.755      859.029
06/27/2014  12:51:00     -173.053     -215.830       10.951      134.666      153.389       61.137    18134.941    23528.137     3737.674        6.102        2.270      276.640       65.262        0.056      346.343       24.520      859.098
06/27/2014  12:52:00     -406.964     -203.650       -0.351      194.581      174.177       86.199    37861.885    30337.708     7430.323       14.135        3.781      455.075       97.460        0.046      346.356       24.539      859.075
06/27/2014  12:53:00     -443.827     -267.151      -13.737      230.555      144.280       84.540    53155.491    20816.734     7147.073       17.482        4.056      518.027       97.414        0.035      346.297       24.439      859.055
06/27/2014  12:54:00     -291.288     -206.112       -0.642      182.169      105.306       74.003    33185.409    11089.335     5476.437        8.853        2.488      356.835       93.715        0.069      346.363       24.554      859.051
06/27/2014  12:55:00     -330.518     -389.925       -9.847      205.096      227.100       77.680    42064.550    51574.522     6034.229       18.051        4.984      511.159       90.210        0.031      346.468       24.734      859.054
06/27/2014  12:56:00     -399.648     -187.871      -19.544      139.629      117.844       75.194    19496.178    13887.137     5654.092       11.721        1.952      441.604       70.197        0.025      346.162       24.207      859.061
06/27/2014  12:57:00     -228.476      -98.276       -6.869      117.641      115.238       42.174    13839.516    13279.868     1778.676        4.540        1.445      248.716       36.477        0.022      346.289       24.426      859.029
06/27/2014  12:58:00     -236.818     -367.073      -24.009      160.688      185.690       75.083    25820.786    34480.619     5637.442       12.866        3.297      436.836       77.650        0.032      346.305       24.454      859.009
06/27/2014  12:59:00     -138.719     -304.211      -40.148      190.650      146.644       77.768    36347.395    21504.368     6047.789        8.864        3.195      334.346       55.034        0.027      346.537       24.852      859.016
06/27/2014  13:00:00      -95.231      -20.076       31.956       80.520       83.293       53.291     6483.468     6937.768     2839.924        1.337        0.813       97.325       40.436        0.173      346.582       24.932      858.971
06/27/2014  13:01:00      -61.358     -184.263       -0.334      110.379      171.186       81.022    12183.534    29304.593     6564.491        4.288        2.403      194.210       55.912        0.083      346.812       25.325      858.934
06/27/2014  13:02:00     -392.673     -164.287      -11.155      193.653      198.734       89.122    37501.399    39495.243     7942.783       13.311        4.247      425.655      105.794        0.062      346.555       24.882      858.998
06/27/2014  13:03:00     -265.739      -70.106       -8.267      143.827       95.997       67.515    20686.159     9215.351     4558.208        5.502        1.723      274.831       62.468        0.052      346.415       24.642      859.005
06/27/2014  13:04:00     -239.047     -148.508       -1.578      158.470      132.596       69.845    25112.759    17581.695     4878.323        6.338        2.379      281.421       76.744        0.074      346.510       24.805      858.991
06/27/2014  13:05:00     -194.253     -316.791       17.314      164.351      202.973       96.867    27011.284    41198.166     9383.297       10.798        3.880      371.605      105.058        0.080      346.356       24.542      859.015
06/27/2014  13:06:00     -133.205     -137.563       11.815      138.846      124.452       71.549    19278.153    15488.235     5119.232        3.834        1.994      191.486       73.598        0.148      346.756       25.229      858.991
06/27/2014  13:07:00      -19.926     -248.453      -17.261       97.571      124.363       68.831     9520.128    15466.206     4737.703        4.607        1.486      249.251       53.196        0.046      346.510       24.806      858.979
06/27/2014  13:08:00     -106.353     -189.040      -22.404       87.911      113.216       59.652     7728.258    12817.954     3558.327        3.582        1.205      216.903       30.728        0.020      346.492       24.775      858.918
06/27/2014  13:09:00     -129.749     -130.565      -10.008      121.625      120.324       72.316    14792.675    14477.894     5229.660        3.424        1.725      184.071       64.276        0.122      346.949       25.562      858.929
06/27/2014  13:10:00     -316.279     -175.963       -7.072      183.726      118.472       72.283    33755.387    14035.722     5224.789        9.202        2.651      361.932       76.597        0.045      347.055       25.745      858.946
06/27/2014  13:11:00     -435.414     -387.709       -4.939      242.374      194.000      102.378    58744.929    37635.977    10481.331       22.338        5.343      583.013      112.651        0.037      346.758       25.232      858.951
06/27/2014  13:12:00     -488.098     -292.316      -14.400      200.043      139.926       99.817    40017.158    19579.164     9963.489       19.672        3.478      568.936      105.047        0.034      346.512       24.809      858.974
06/27/2014  13:13:00     -411.817       35.343      -15.007      204.037      174.166       88.359    41631.071    30333.688     7807.274       12.541        3.989      413.330       63.122        0.023      346.406       24.627      858.966
06/27/2014  13:14:00     -195.862      123.000      -24.888      109.416       70.743       41.812    11971.766     5004.637     1748.208        3.641        0.936      231.281       51.798        0.050      346.343       24.520      858.917
06/27/2014  13:15:00     -308.894     -160.313       -2.770      155.194      151.532       90.038    24085.222    22962.053     8106.928        8.813        2.758      348.017       82.516        0.056      346.605       24.970      858.889
06/27/2014  13:16:00     -355.989     -311.267       -3.743      182.710      157.518      100.001    33382.822    24811.838    10000.294       14.590        3.410      472.880      101.758        0.046      346.832       25.361      858.910
06/27/2014  13:17:00     -420.143     -341.861      -18.448      237.344      212.531      102.380    56332.079    45169.497    10481.566       20.284        5.599      541.654      111.822        0.043      346.476       24.747      858.947
06/27/2014  13:18:00     -349.183     -249.726        0.314      217.981      154.203       89.673    47515.801    23778.647     8041.254       13.180        3.967      429.292       95.741        0.050      346.457       24.716      858.909
06/27/2014  13:19:00     -309.970     -270.228       -6.656      155.854      151.465       84.763    24290.502    22941.758     7184.764       11.177        2.721      411.223       83.417        0.041      346.335       24.504      858.871
06/27/2014  13:20:00     -205.330       37.579       -7.526      123.157       73.921       55.759    15167.529     5464.264     3109.055        3.368        1.187      208.741       59.211        0.080      346.736       25.196      858.810
06/27/2014  13:21:00     -145.028     -211.126       -8.284      137.998      201.437       65.790    19043.437    40577.029     4328.372        6.480        3.197      256.140       60.685        0.056      346.912       25.497      858.815
06/27/2014  13:22:00     -241.640     -198.965       -3.815      149.534      152.920       81.484    22360.309    23384.644     6639.608        7.518        2.619      313.013       87.929        0.079      346.883       25.447      858.776
06/27/2014  13:23:00     -464.612     -308.838      -33.848      228.852      156.469       92.270    52373.312    24482.453     8513.820       19.887        4.268      557.893       80.109        0.021      346.628       25.011      858.771
06/27/2014  13:24:00     -257.549     -207.511       17.787      167.784      155.243       87.028    28151.459    24100.314     7573.864        8.476        2.991      330.745       85.593        0.067      346.654       25.053      858.779
06/27/2014  13:25:00     -217.836     -122.434       12.166      166.997      167.021       67.776    27887.870    27896.130     4593.621        6.147        3.019      249.885       72.460        0.084      346.583       24.932      858.793
06/27/2014  13:26:00     -311.912      -29.956       -0.274      178.497      136.778       92.425    31861.002    18708.162     8542.417        7.864        2.956      313.348       94.039        0.090      346.970       25.598      858.709
06/27/2014  13:27:00     -339.081     -129.140        6.957      183.282      177.799       78.405    33592.121    31612.526     6147.405       10.151        3.568      362.840       92.937        0.066      347.199       25.993      858.729
06/27/2014  13:28:00     -538.490     -285.363      -17.498      226.521      200.350      110.287    51311.821    40140.141    12163.121       23.765        5.181      609.429      103.710        0.029      346.794       25.295      858.688
06/27/2014  13:29:00     -376.397     -302.722       -8.939      235.704      145.174       89.914    55556.178    21075.516     8084.507       15.904        4.236      483.027       82.679        0.029      346.880       25.442      858.704
06/27/2014  13:30:00     -516.778     -331.994      -18.128      235.408      242.516      106.391    55417.130    58813.962    11318.975       25.156        6.278      614.231      123.901        0.041      346.758       25.233      858.733
06/27/2014  13:31:00     -403.994     -227.398      -26.334      230.070      184.969       95.697    52932.424    34213.701     9157.929       15.594        4.815      463.596      105.513        0.052      346.896       25.469      858.796
06/27/2014  13:32:00     -365.344     -263.278       21.457      259.571      185.959      118.025    67377.290    34580.910    13929.871       15.955        5.794      450.324      144.630        0.103      346.786       25.280      858.833
06/27/2014  13:33:00     -495.372     -211.419       -7.812      244.481      175.732       88.226    59771.062    30881.713     7783.793       19.428        4.922      538.601      115.712        0.046      346.592       24.948      858.842
06/27/2014  13:34:00     -462.108      -46.510       -3.109      180.575      148.525       88.658    32607.404    22059.736     7860.163       13.911        3.126      464.443       95.122        0.042      346.262       24.379      858.820
06/27/2014  13:35:00     -278.633     -136.865       11.571      214.547      130.670       78.701    46030.460    17074.654     6193.810        8.289        3.465      310.433      104.150        0.113      346.512       24.810      858.784
06/27/2014  13:36:00     -261.430      -73.663       -4.959      124.787       95.023       54.041    15571.888     9029.362     2920.406        5.065        1.376      271.610       61.382        0.051      346.427       24.664      858.758
06/27/2014  13:37:00     -101.472      -64.792        6.560      161.072       85.940       63.903    25944.065     7385.620     4083.626        2.597        1.871      120.394       85.283        0.502      346.874       25.434      858.732
06/27/2014  13:38:00     -187.982     -149.241       19.146      170.665      106.004       72.637    29126.703    11236.869     5276.136        5.180        2.282      240.021       87.973        0.134      346.769       25.253      858.744
06/27/2014  13:39:00     -245.737     -184.456        3.744      166.721      163.249       84.285    27796.014    26650.350     7104.001        7.798        3.078      307.263       87.603        0.081      346.635       25.020      858.756
06/27/2014  13:40:00     -217.993       18.257      -12.862      148.364      139.755       64.917    22011.986    19531.422     4214.165        4.688        2.288      218.756       76.545        0.122      347.043       25.724      858.769
06/27/2014  13:41:00      -87.757      -33.305       24.241      158.822      118.143       67.236    25224.544    13957.692     4520.735        2.654        2.185       93.864       92.539        0.972      347.331       26.221      858.750
06/27/2014  13:42:00     -141.169     -183.446       18.975      114.766      183.682       63.133    13171.126    33739.224     3985.719        5.241        2.545      231.476       55.456        0.057      347.307       26.180      858.742
06/27/2014  13:43:00     -380.154     -247.974       -5.279      235.324      193.613      100.190    55377.508    37485.969    10037.981       15.445        5.145      453.882      115.240        0.064      347.014       25.675      858.725
06/27/2014  13:44:00     -365.005     -315.364      -13.428      203.344      171.051      113.430    41348.930    29258.477    12866.394       15.815        4.174      482.372      118.927        0.061      346.714       25.158      858.755
06/27/2014  13:45:00     -118.847      -25.719        3.100      148.922      107.570       67.111    22177.805    11571.217     4503.864        2.652        1.913      121.598       72.817        0.359      346.838       25.373      858.774
06/27/2014  13:46:00      -76.442      -57.430       27.587      114.536      111.189       60.129    13118.417    12363.073     3615.536        1.949        1.455       95.612       65.825        0.474      347.320       26.204      858.745
06/27/2014  13:47:00     -253.148      -19.254       13.326      322.178      140.270       94.829   103798.402    19675.675     8992.621        9.853        6.623      253.879      124.950        0.242      347.148       25.908      858.649
06/27/2014  13:48:00     -455.404     -192.355       -5.508      233.698      223.236       90.760    54614.653    49834.272     8237.415       17.854        5.634      494.361      109.802        0.049      347.034       25.709      858.698
06/27/2014  13:49:00     -364.357     -200.965        2.559      289.629      174.395      123.010    83884.926    30413.674    15131.472       15.127        6.472      416.105      153.437        0.136      346.909       25.492      858.720
06/27/2014  13:50:00     -498.224     -296.875      -14.438      186.646      159.964       84.975    34836.834    25588.615     7220.743       20.210        3.382      579.967       70.803        0.015      346.624       25.001      858.723
06/27/2014  13:51:00     -421.838     -248.912      -18.292      191.356      155.066       96.521    36617.262    24045.366     9316.387       15.510        3.499      489.801       96.856        0.039      346.687       25.111      858.712
06/27/2014  13:52:00     -309.717     -244.038      -21.319      183.077      184.704       91.635    33517.035    34115.462     8396.981       11.597        3.801      394.309       75.282        0.036      346.798       25.301      858.714
06/27/2014  13:53:00     -387.003     -210.353        9.996      180.884      114.206       82.906    32718.990    13042.972     6873.347       12.337        2.632      440.477       83.563        0.036      346.602       24.963      858.692
06/27/2014  13:54:00     -341.898     -204.664        7.365      229.409      164.780       84.943    52628.615    27152.434     7215.304       12.290        4.350      398.474      106.103        0.071      346.791       25.291      858.664
06/27/2014  13:55:00     -370.571     -190.834      -14.230      166.534      148.535       70.359    27733.623    22062.713     4950.430       11.434        2.737      416.822       68.295        0.027      346.631       25.014      858.637
06/27/2014  13:56:00     -341.007      -90.249      -24.164      110.484      105.621       40.926    12206.702    11155.860     1674.974        7.502        1.252      352.747       34.741        0.010      347.050       25.735      858.652
06/27/2014  13:57:00     -289.144     -105.049      -14.813       96.952       95.659       57.233     9399.638     9150.668     3275.618        5.834        1.091      307.636       37.022        0.014      347.227       26.040      858.637
06/27/2014  13:58:00     -348.151     -150.684      -11.412      150.729      126.567       85.445    22719.137    16019.113     7300.889        9.503        2.302      379.361       86.310        0.052      347.245       26.071      858.606
06/27/2014  13:59:00     -433.113      -59.966       -3.901      271.905      156.702      108.867    73932.117    24555.594    11852.048       15.075        5.517      437.244      125.107        0.082      347.111       25.842      858.622
06/27/2014  14:00:00     -448.573      -80.471      -22.246      172.077      190.878       88.432    29610.565    36434.398     7820.285       14.101        3.693      455.734       80.597        0.031      346.833       25.360      858.551
06/27/2014  14:01:00     -201.782      -38.473        8.649      184.142       94.510       55.280    33908.116     8932.070     3055.917        4.408        2.295      205.417       73.521        0.128      347.251       26.083      858.637
06/27/2014  14:02:00     -182.455     -109.012        1.119      164.906      148.377       82.887    27193.968    22015.682     6870.246        5.062        2.804      212.540       92.752        0.190      347.442       26.412      858.651
06/27/2014  14:03:00     -447.592     -326.353       -4.783      310.904      215.552      103.688    96661.216    46462.794    10751.300       23.035        7.694      553.936      135.730        0.060      346.970       25.598      858.646
06/27/2014  14:04:00     -446.769     -343.944       -7.265      216.208      149.601      100.182    46746.082    22380.326    10036.524       19.854        3.958      563.826      109.255        0.038      346.659       25.062      858.702
06/27/2014  14:05:00     -470.820     -290.424      -11.499      180.535      160.596       84.799    32593.046    25790.929     7190.904       18.585        3.279      553.188       71.994        0.017      346.540       24.857      858.716
06/27/2014  14:06:00     -257.500     -195.731        3.085      142.037      124.154       70.182    20174.625    15414.289     4925.539        7.256        2.026      323.446       56.745        0.031      346.509       24.806      858.717
06/27/2014  14:07:00     -170.647     -167.457        7.198      128.811      111.374       57.262    16592.308    12404.062     3278.929        4.474        1.614      239.086       58.493        0.060      346.677       25.093      858.675
06/27/2014  14:08:00     -256.927     -129.575       -7.975      136.684      103.852       59.443    18682.499    10785.201     3533.451        5.793        1.650      287.752       56.007        0.038      346.690       25.113      858.648
06/27/2014  14:09:00     -379.919     -225.000       -1.915      136.317      122.561       90.003    18582.211    15021.133     8100.583       11.833        2.085      441.547       89.742        0.041      346.674       25.088      858.612
06/27/2014  14:10:00     -387.808      -90.427       -8.163      161.752      155.000       73.194    26163.843    24025.010     5357.291       10.708        2.777      398.211       66.593        0.028      347.109       25.836      858.577
06/27/2014  14:11:00     -426.774      -29.692      -40.733      280.990      186.875       98.628    78955.494    34922.401     9727.464       15.412        6.180      427.805      119.992        0.079      347.183       25.964      858.599
06/27/2014  14:12:00     -548.912      -55.470      -27.254      211.580      149.282       96.240    44765.929    22285.091     9262.093       19.071        3.816      551.708      112.354        0.041      346.785       25.278      858.606
06/27/2014  14:13:00     -403.745      -23.662      -12.875      193.190      166.389       84.368    37322.337    27685.460     7117.989       11.792        3.606      404.438       84.350        0.043      346.870       25.424      858.604
06/27/2014  14:14:00     -356.314      -68.819       -8.177      160.207      118.769       91.408    25666.197    14106.104     8355.460        8.994        2.406      362.899       89.518        0.061      347.050       25.733      858.630
06/27/2014  14:15:00     -300.069      -75.047       -1.272      190.709      149.010       81.111    36369.885    22204.035     6578.954        8.040        3.258      309.311       88.912        0.083      347.092       25.809      858.646
06/27/2014  14:16:00     -167.202     -112.209        2.819      113.528      102.941       60.722    12888.549    10596.863     3687.208        3.386        1.359      201.363       66.491        0.109      346.882       25.446      858.619
06/27/2014  14:17:00     -223.826     -129.056        1.511      197.042      102.979       69.276    38825.410    10604.751     4799.106        6.048        2.711      258.367       90.647        0.123      347.085       25.797      858.587
06/27/2014  14:18:00     -201.222     -146.594       15.245      161.415      156.529       80.235    26054.855    24501.391     6437.649        5.959        2.850      248.958       79.817        0.103      347.059       25.751      858.532
06/27/2014  14:19:00     -269.259     -160.397      -15.344      118.831      107.274       49.722    14120.912    11507.775     2472.231        6.328        1.405      313.413       57.778        0.034      346.628       25.010      858.533
06/27/2014  14:20:00     -194.896     -165.017       -9.410       97.970      102.201       53.467     9598.106    10445.066     2858.736        4.410        1.145      255.373       54.410        0.045      346.890       25.460      858.511
06/27/2014  14:21:00     -277.546     -192.822      -10.791      175.559      107.926       54.230    30821.036    11648.112     2940.919        7.986        2.271      337.953       53.917        0.025      347.191       25.978      858.529
06/27/2014  14:22:00     -403.575     -287.738      -10.734      235.817      153.304       98.021    55609.640    23502.235     9608.160       16.724        4.436      495.647      102.706        0.043      346.968       25.594      858.478
06/27/2014  14:23:00     -590.759     -357.148      -21.653      239.192      177.274      110.862    57212.834    31426.095    12290.401       28.896        5.046      690.326      121.539        0.031      346.794       25.295      858.478
06/27/2014  14:24:00     -523.947     -425.234        3.341      279.478      211.762      114.508    78108.075    44842.963    13111.986       29.569        6.803      674.792      124.289        0.034      346.801       25.306      858.494
06/27/2014  14:25:00     -537.769     -229.594      -12.273      266.835      167.058       96.821    71200.958    27908.478     9374.313       22.525        5.424      584.730      113.303        0.038      346.870       25.425      858.499
06/27/2014  14:26:00     -491.805     -359.090       -1.590      349.060      235.508      140.478   121842.774    55464.229    19734.137       28.390        9.852      608.948      177.849        0.085      346.891       25.463      858.468
06/27/2014  14:27:00     -443.511     -168.132      -13.912      269.905      228.292      100.979    72848.879    52117.381    10196.777       18.014        6.758      474.310      120.562        0.065      346.971       25.600      858.540
06/27/2014  14:28:00     -289.648      -59.322       -7.922      179.448      160.994       87.220    32201.580    25919.010     7607.302        7.659        3.286      295.661       95.110        0.103      347.064       25.759      858.518
06/27/2014  14:29:00     -439.298      -76.114      -12.513      263.890      150.749       96.698    69637.991    22725.304     9350.436       15.031        5.086      445.843      112.169        0.063      347.132       25.876      858.541
06/27/2014  14:30:00     -304.126     -216.211      -12.490      164.370      168.946       82.871    27017.630    28542.635     6867.640       10.090        3.121      373.148       85.573        0.053      346.835       25.366      858.544
06/27/2014  14:31:00     -255.072      -72.528      -21.489      112.440      106.309       53.975    12642.855    11301.578     2913.332        4.882        1.343      265.183       50.814        0.037      346.987       25.626      858.469
06/27/2014  14:32:00     -329.229     -186.910        3.083      210.571      173.380       87.996    44340.349    30060.635     7743.215       11.273        4.107      378.586       98.213        0.067      347.290       26.149      858.514
06/27/2014  14:33:00     -421.755     -312.858      -15.982      223.317      200.901      119.827    49870.497    40361.129    14358.592       19.028        5.230      525.126      126.963        0.058      347.039       25.717      858.545
06/27/2014  14:34:00     -615.150     -200.021      -42.781      261.733      207.922      107.237    68504.389    43231.656    11499.753       27.172        6.162      646.853      120.430        0.035      346.855       25.400      858.544
06/27/2014  14:35:00     -434.281     -128.892       -4.761      225.433      197.129       96.924    50819.980    38859.849     9394.219       15.214        4.954      453.004      104.884        0.054      346.967       25.592      858.597
06/27/2014  14:36:00     -365.865     -129.254      -12.509      208.327      140.678       71.250    43400.151    19790.264     5076.543       10.948        3.413      388.026       87.184        0.050      346.923       25.517      858.587
06/27/2014  14:37:00     -456.856     -158.662      -24.072      184.183      115.672       63.476    33923.357    13380.105     4029.147       14.289        2.567      483.623       68.143        0.020      347.132       25.877      858.550
06/27/2014  14:38:00     -448.624       -6.498      -42.200      134.794      162.681       70.531    18169.364    26465.224     4974.616       12.634        2.480      448.671       66.820        0.022      347.176       25.953      858.554
06/27/2014  14:39:00     -481.004     -193.496       -3.419      238.963      169.257       92.515    57103.333    28648.067     8559.102       18.155        4.716      518.464      109.617        0.045      347.007       25.663      858.494
06/27/2014  14:40:00     -351.986     -166.382       -9.308      143.229      134.267       62.743    20514.636    18027.534     3936.633        9.706        2.124      389.329       63.146        0.026      347.230       26.044      858.568
06/27/2014  14:41:00     -271.181     -198.257        4.864      185.186      126.666       74.152    34293.682    16044.293     5498.464        8.434        2.792      335.924       76.925        0.052      347.015       25.675      858.595
06/27/2014  14:42:00     -257.656     -405.224      -11.294      174.340      190.132       88.855    30394.538    36150.233     7895.155       15.257        3.722      480.201       84.941        0.031      346.836       25.365      858.559
06/27/2014  14:43:00     -122.087     -361.223        2.674      136.810      186.286       75.736    18717.048    34702.499     5736.005       10.227        2.958      381.297       81.048        0.045      346.734       25.192      858.570
06/27/2014  14:44:00      -60.796     -160.298      -12.044       97.334       83.326       54.614     9473.939     6943.290     2982.707        2.447        0.970      171.440       50.795        0.088      346.892       25.463      858.532
06/27/2014  14:45:00      -97.613      -65.729       -2.941       89.061       77.683       35.140     7931.782     6034.578     1234.813        1.453        0.760      117.680       35.601        0.092      347.430       26.392      858.533
06/27/2014  14:46:00     -148.222     -305.437        5.578      178.961      187.344       78.803    32027.149    35097.789     6209.865        9.430        3.667      339.502       79.461        0.055      347.182       25.964      858.536
06/27/2014  14:47:00     -451.855     -234.495       -0.226      257.377      267.405      116.741    66242.734    71505.343    13628.417       20.524        7.569      509.078      134.254        0.070      347.265       26.105      858.539
06/27/2014  14:48:00     -708.465     -189.219      -47.416      239.839      217.876       97.748    57522.841    47469.973     9554.710       32.724        5.727      733.299      110.022        0.023      346.844       25.379      858.575
06/27/2014  14:49:00     -414.298      -99.901      -30.526      178.406      172.617       91.154    31828.873    29796.643     8309.015       12.623        3.497      426.172       86.455        0.041      347.220       26.029      858.550
06/27/2014  14:50:00     -264.059     -174.775        5.754      173.321      125.324       80.524    30040.201    15706.042     6484.193        7.626        2.612      316.660       88.665        0.078      347.417       26.367      858.588
06/27/2014  14:51:00     -172.635     -125.838       12.612      175.422       96.997       54.862    30772.920     9408.365     3009.865        4.449        2.160      213.631       60.835        0.081      347.614       26.707      858.597
06/27/2014  14:52:00     -299.969     -148.121       10.345      176.061      148.522       74.565    30997.547    22058.847     5559.920        8.531        2.931      334.546       78.648        0.055      347.360       26.269      858.585
06/27/2014  14:53:00     -469.156     -321.889       -5.262      225.455      228.611      116.971    50829.792    52262.968    13682.220       22.024        5.839      568.964      134.833        0.056      347.175       25.951      858.556
06/27/2014  14:54:00     -456.869     -342.707        8.955      287.255      224.720      113.989    82515.331    50498.983    12993.421       23.611        7.300      571.119      141.863        0.062      347.023       25.689      858.581
06/27/2014  14:55:00     -385.518     -182.932       11.491      278.960      185.336      100.044    77818.507    34349.615    10008.729       15.218        6.109      426.718      141.608        0.110      347.016       25.677      858.583
06/27/2014  14:56:00     -242.102     -121.218       17.240      191.600      116.716       75.142    36710.669    13622.626     5646.342        6.478        2.799      270.753      100.539        0.138      347.263       26.102      858.589
06/27/2014  14:57:00     -337.095     -302.054       -8.437      229.520      162.814       89.225    52679.393    26508.475     7961.087       14.603        4.357      452.625      109.806        0.059      346.867       25.421      858.555
06/27/2014  14:58:00     -399.588     -180.759      -10.427      222.710      143.637       79.520    49599.966    20631.595     6323.497       13.449        3.828      438.571       82.784        0.036      347.209       26.008      858.556
06/27/2014  14:59:00     -532.697     -282.008      -25.123      256.586      230.602      109.917    65836.318    53177.488    12081.853       24.749        6.555      602.740      128.595        0.046      346.983       25.620      858.563
06/27/2014  15:00:00     -335.335     -156.480        4.030      161.307      169.636       76.939    26020.095    28776.498     5919.659        9.882        3.036      370.048       65.176        0.031      347.159       25.922      858.591
06/27/2014  15:01:00     -577.180     -326.021      -25.019      283.950      218.234      128.133    80627.718    47626.080    16418.130       29.234        7.234      662.893      146.358        0.049      346.984       25.621      858.580
06/27/2014  15:02:00     -441.222     -212.237      -14.814      259.710      165.447      107.471    67449.195    27372.669    11550.024       17.314        5.319      489.614      123.197        0.063      346.908       25.492      858.643
06/27/2014  15:03:00     -407.580     -232.540       -2.167      185.093      164.540       88.308    34259.275    27073.527     7798.225       14.465        3.457      469.251      100.501        0.046      347.013       25.672      858.663
06/27/2014  15:04:00     -306.990     -286.154       -8.254      214.218      150.923      106.433    45889.505    22777.725    11328.070       12.808        4.000      419.675      104.879        0.062      346.983       25.619      858.640
06/27/2014  15:05:00     -441.988     -319.071      -22.741      187.683      135.421       87.747    35225.031    18338.760     7699.597       17.946        3.063      545.123       86.073        0.025      346.676       25.092      858.634
06/27/2014  15:06:00     -311.277     -297.198       -1.987      198.714      134.104       79.902    39487.314    17984.009     6384.341       12.453        3.193      430.372       86.896        0.041      346.735       25.193      858.645
06/27/2014  15:07:00     -244.837     -116.653       12.918      149.043      136.828       71.327    22213.954    18721.883     5087.564        5.986        2.301      271.206       71.261        0.069      347.220       26.029      858.628
06/27/2014  15:08:00     -198.580      -68.453       18.073      143.041      180.001       70.564    20460.821    32400.363     4979.307        5.113        2.892      210.047       72.798        0.120      347.375       26.296      858.638
06/27/2014  15:09:00     -234.068     -163.788        5.381      166.470      149.220       76.794    27712.324    22266.600     5897.299        6.875        2.794      285.682       89.578        0.098      347.191       25.978      858.616
06/27/2014  15:10:00     -387.816     -251.276      -24.983      235.365      180.268       96.587    55396.859    32496.690     9329.135       15.568        4.861      462.105      102.212        0.049      347.148       25.904      858.635
06/27/2014  15:11:00     -284.090     -142.276        2.232      228.397      141.813       91.995    52164.987    20110.868     8463.138        9.083        4.037      317.726      111.420        0.123      347.287       26.144      858.614
06/27/2014  15:12:00     -333.210     -204.486      -15.410      239.393      177.036       83.201    57309.100    31341.773     6922.324       12.431        4.779      390.952       98.960        0.064      347.151       25.909      858.642
06/27/2014  15:13:00     -476.504     -327.167       -5.676      219.005      149.237       96.294    47963.211    22271.682     9272.536       20.680        3.975      578.009      101.752        0.031      346.693       25.120      858.622
06/27/2014  15:14:00     -384.763     -287.454        3.919      180.654      129.052       75.354    32635.765    16654.434     5678.236       14.282        2.748      480.284       90.327        0.035      346.654       25.054      858.596
06/27/2014  15:15:00     -467.576     -312.357      -19.824      194.154      154.851       78.769    37695.734    23978.798     6204.618       19.222        3.394      562.312       90.249        0.026      346.865       25.415      858.600
06/27/2014  15:16:00     -310.843     -133.737        6.689      197.956      114.830       86.393    39186.575    13186.009     7463.767        8.719        2.992      338.392       91.624        0.073      347.222       26.030      858.637
06/27/2014  15:17:00     -373.099     -104.568       -5.533      197.277      147.890       96.556    38918.198    21871.348     9322.986       11.013        3.506      387.475       87.109        0.051      347.110       25.837      858.604
06/27/2014  15:18:00     -424.074     -145.515      -17.533      200.100      151.356       90.942    40039.890    22908.592     8270.378       13.626        3.561      448.345       84.097        0.035      347.297       26.159      858.595
06/27/2014  15:19:00     -437.263      -42.949      -11.868      207.210      166.506       89.535    42936.115    27724.339     8016.436       13.592        3.934      439.367       78.585        0.032      347.454       26.432      858.589
06/27/2014  15:20:00     -440.992     -205.497      -10.103      195.732      182.657       97.007    38310.892    33363.445     9410.448       15.893        4.054      486.521       86.818        0.032      347.194       25.985      858.601
06/27/2014  15:21:00     -666.843      -91.131      -29.891      269.761      199.535      105.076    72771.072    39814.137    11041.038       28.873        6.181      673.041      113.206        0.028      347.049       25.734      858.590
06/27/2014  15:22:00     -242.783     -136.757       25.737      180.427      165.567       86.339    32554.070    27412.506     7454.379        7.285        3.371      278.650       99.456        0.127      347.252       26.084      858.622
06/27/2014  15:23:00     -450.734     -209.690      -24.157      178.492      226.812       93.725    31859.297    51443.898     8784.401       16.989        4.604      497.123       86.723        0.030      347.078       25.782      858.607
06/27/2014  15:24:00     -468.094      -52.644      -13.904      230.564      149.771       80.945    53159.657    22431.379     6552.120       15.210        4.107      471.045       95.678        0.041      347.176       25.952      858.647
06/27/2014  15:25:00     -612.097     -180.122      -18.658      228.084      190.334       98.544    52022.368    36226.891     9710.911       25.269        4.898      638.049       94.963        0.022      347.001       25.651      858.631
06/27/2014  15:26:00     -446.873     -195.398       -6.016      316.367      188.638       88.021   100088.042    35584.279     7747.776       19.064        7.171      487.725      106.413        0.048      347.160       25.924      858.625
06/27/2014  15:27:00     -289.127     -160.017        0.449      169.630      134.264       64.728    28774.436    18026.851     4189.752        8.009        2.550      330.454       60.587        0.034      347.291       26.151      858.646
06/27/2014  15:28:00     -218.816     -105.556        7.200      155.651      120.850       89.161    24227.383    14604.755     7949.690        5.292        2.339      242.945       94.151        0.150      347.356       26.262      858.632
06/27/2014  15:29:00     -487.668     -140.755      -32.101      118.053      148.874       69.838    13936.570    22163.329     4877.325       14.981        2.049      507.574       64.156        0.016      347.003       25.653      858.599
06/27/2014  15:30:00     -377.450     -255.263       -1.574      219.944      211.774      113.241    48375.566    44848.031    12823.530       15.682        5.302      455.661      121.769        0.071      347.342       26.238      858.622
06/27/2014  15:31:00     -375.736     -324.532        4.066      244.133      175.538      109.370    59601.017    30813.472    11961.796       17.443        5.119      496.487      125.605        0.064      347.003       25.655      858.656
06/27/2014  15:32:00     -462.465     -298.073      -26.422      166.519      138.057       93.999    27728.472    19059.766     8835.823       17.951        2.781      550.201       83.508        0.023      346.912       25.496      858.661
06/27/2014  15:33:00     -344.967     -278.476       11.852      259.923      216.849      118.401    67560.188    47023.444    14018.763       16.263        6.430      443.341      139.847        0.100      347.132       25.876      858.638
06/27/2014  15:34:00     -356.728     -224.900       -3.366      213.734      116.172       91.392    45682.061    13495.902     8352.421       12.268        3.377      421.705      108.692        0.066      347.012       25.671      858.647
06/27/2014  15:35:00     -269.048     -159.125       -0.116      169.070       99.333       82.816    28584.785     9866.980     6858.527        7.150        2.266      312.582       75.859        0.059      347.154       25.915      858.655
06/27/2014  15:36:00     -355.233      -36.634      -11.235      218.759      157.937       85.394    47855.361    24944.023     7292.104       10.386        4.005      357.117      107.921        0.091      347.382       26.308      858.654
06/27/2014  15:37:00     -461.362       13.731       -8.022      236.116      209.811      104.593    55750.924    44020.605    10939.615       16.189        5.536      461.566      109.772        0.057      347.225       26.037      858.627
06/27/2014  15:38:00     -248.385     -260.336       10.833      223.853      245.669      106.158    50110.099    60353.491    11269.536       12.564        6.087      359.819      133.033        0.137      347.322       26.206      858.653
06/27/2014  15:39:00     -315.265     -166.166       16.616      198.884      162.519       78.424    39554.957    26412.512     6150.262        9.969        3.606      356.375       97.865        0.075      347.289       26.148      858.595
06/27/2014  15:40:00     -334.529     -264.312       -3.918      209.961      145.304       80.994    44083.629    21113.123     6559.950       12.676        3.588      426.345       79.793        0.035      347.367       26.281      858.599
06/27/2014  15:41:00     -482.538     -272.848       -8.083      280.164      219.142      126.330    78491.676    48023.221    15959.239       22.489        7.124      554.336      149.844        0.073      347.062       25.756      858.655
06/27/2014  15:42:00     -490.977     -279.072      -15.062      228.607      155.389      109.679    52261.154    24145.689    12029.517       20.379        4.422      564.747      111.211        0.039      346.868       25.422      858.626
06/27/2014  15:43:00     -323.262      -94.180       15.881      181.188      139.480       89.559    32829.224    19454.768     8020.750        8.695        3.015      336.702       96.981        0.083      347.027       25.695      858.659
06/27/2014  15:44:00     -472.807     -386.921       -0.927      271.826      205.943      130.220    73889.636    42412.467    16957.156       25.323        6.663      610.945      135.797        0.049      346.880       25.442      858.614
06/27/2014  15:45:00     -561.292     -335.765      -25.431      261.530      168.103      113.741    68397.924    28258.555    12937.088       26.900        5.480      654.054      118.580        0.033      346.822       25.343      858.580
06/27/2014  15:46:00     -384.634     -259.289        5.975      241.270      166.035      105.910    58210.984    27567.581    11216.884       15.609        4.850      463.869      114.182        0.061      347.060       25.751      858.606
06/27/2014  15:47:00     -443.968     -284.394       -2.125      322.503      211.909      114.261   104008.370    44905.423    13055.590       21.995        8.098      527.245      146.475        0.077      346.900       25.477      858.600
06/27/2014  15:48:00     -384.804     -235.582      -12.882      272.534      171.308      107.404    74274.903    29346.359    11535.709       15.943        5.758      451.191      136.719        0.092      347.092       25.808      858.622
06/27/2014  15:49:00     -367.039     -126.702       -9.366      296.281      122.955       93.711    87782.401    15118.020     8781.779       13.125        5.584      388.293      113.859        0.086      347.162       25.930      858.624
06/27/2014  15:50:00     -427.543     -157.283       -5.274      263.003      208.025      121.487    69170.456    43274.587    14758.984       16.736        6.360      455.556      139.472        0.094      347.101       25.824      858.620
06/27/2014  15:51:00     -620.120      -28.838      -31.243      229.971      147.088       96.748    52886.558    21634.940     9360.194       23.511        4.194      620.790       90.054        0.021      347.108       25.836      858.574
06/27/2014  15:52:00     -548.307      -84.483      -39.279      216.767      190.740       86.984    46987.910    36381.815     7566.291       20.011        4.547      554.777       98.453        0.031      347.134       25.879      858.585
06/27/2014  15:53:00     -549.717     -172.224      -21.067      273.786      163.153       93.892    74958.695    26618.966     8815.770       22.133        5.520      576.064      121.289        0.044      347.120       25.856      858.571
06/27/2014  15:54:00     -451.002       -9.941      -11.037      195.096      183.907       85.891    38062.304    33821.873     7377.327       14.143        3.963      451.111       98.075        0.047      347.148       25.905      858.561
06/27/2014  15:55:00     -377.073       -6.902      -21.464      184.472      144.935       83.434    34029.871    21006.283     6961.297       10.233        3.100      377.136       82.689        0.048      347.340       26.235      858.588
06/27/2014  15:56:00     -472.692     -326.240       -6.343      250.878      266.346      118.275    62939.781    70940.098    13989.022       23.887        7.393      574.343      117.419        0.042      347.001       25.650      858.548
06/27/2014  15:57:00     -519.543      -66.477       -8.278      351.521      243.189      136.300   123567.243    59140.871    18577.576       23.782       10.064      523.778      172.121        0.108      347.045       25.726      858.532
06/27/2014  15:58:00     -541.301     -181.699      -22.514      211.075      179.693       85.883    44552.448    32289.419     7375.846       20.536        4.211      570.983      104.564        0.034      346.991       25.634      858.599
06/27/2014  15:59:00     -407.720      -44.315      -19.386      201.741      163.133       65.452    40699.539    26612.427     4283.956       12.007        3.580      410.121       72.816        0.032      347.030       25.701      858.580
06/27/2014  16:00:00     -363.664      -77.314       -5.496      214.300      128.698       89.282    45924.484    16563.108     7971.218       10.435        3.523      371.792      100.358        0.073      347.161       25.924      858.533
06/27/2014  16:01:00     -270.840     -116.582       -7.254      169.962      108.441       71.330    28887.159    11759.377     5087.996        6.636        2.287      294.865       83.273        0.080      347.196       25.987      858.527
06/27/2014  16:02:00     -304.369      -99.614       -1.587      154.938      114.094       68.023    24005.736    13017.502     4627.098        7.210        2.083      320.255       68.046        0.045      347.293       26.153      858.543
06/27/2014  16:03:00     -215.088     -124.663       15.423      174.314      115.938       82.093    30385.415    13441.506     6739.306        5.630        2.528      248.604       94.062        0.143      347.358       26.266      858.464
06/27/2014  16:04:00     -262.756     -131.589       -8.647      116.230      108.247       51.683    13509.385    11717.507     2671.123        5.716        1.395      293.865       51.357        0.031      347.192       25.980      858.461
06/27/2014  16:05:00     -284.350     -247.594       -8.015      151.825      138.620       72.645    23050.943    19215.400     5277.232        9.487        2.377      377.038       75.206        0.040      347.017       25.677      858.462
06/27/2014  16:06:00     -379.351     -165.602      -18.855      308.558      152.077      112.008    95208.151    23127.545    12545.853       15.126        6.544      413.922      136.435        0.109      347.413       26.360      858.456
06/27/2014  16:07:00     -580.694     -291.054      -33.410      287.304      289.649      134.547    82543.434    83896.719    18102.975       30.376        9.227      649.553      150.138        0.053      346.981       25.617      858.472
06/27/2014  16:08:00     -462.901     -115.052       -5.760      288.728      169.218      108.775    83363.848    28634.872    11831.926       17.567        6.192      476.985      137.153        0.083      347.041       25.721      858.488
06/27/2014  16:09:00     -376.418      -92.595      -10.271      223.488      169.712       99.296    49947.065    28802.111     9859.651       11.947        4.430      387.640      112.590        0.084      347.180       25.961      858.488
06/27/2014  16:10:00     -522.847     -141.936      -23.714      176.987      163.467       79.717    31324.484    26721.614     6354.815       17.923        3.220      541.770       86.189        0.025      346.888       25.457      858.506
06/27/2014  16:11:00     -428.384      -90.893      -36.355      150.012      162.463       74.798    22503.610    26394.360     5594.808       12.379        2.725      437.921       76.469        0.030      347.052       25.738      858.477
06/27/2014  16:12:00     -344.601     -180.327       -2.138      211.905      210.081       92.880    44903.715    44134.028     8626.697       12.445        4.883      388.932      100.259        0.066      347.320       26.201      858.452
06/27/2014  16:13:00     -551.976     -240.486      -30.573      213.344      151.003       98.107    45515.517    22801.919     9625.027       22.068        3.897      602.089       94.289        0.025      347.000       25.649      858.479
06/27/2014  16:14:00     -364.547     -206.509       -1.085      213.157      155.723       93.416    45435.859    24249.517     8726.550       12.696        3.921      418.975      103.802        0.061      347.018       25.680      858.490
06/27/2014  16:15:00     -159.907      -40.010       -8.755      120.192       84.804       61.708    14446.091     7191.706     3807.905        2.634        1.272      164.837       51.786        0.099      347.458       26.440      858.489
06/27/2014  16:16:00     -378.274       27.852      -28.853      120.276      149.677       56.197    14466.357    22403.310     3158.108        9.236        2.001      379.298       47.829        0.016      347.032       25.703      858.472
06/27/2014  16:17:00     -141.913     -101.162       21.325      190.318      124.350       78.692    36221.130    15462.984     6192.498        4.434        2.894      174.279       87.249        0.251      347.410       26.357      858.439
06/27/2014  16:18:00     -579.509       15.685      -49.822      169.220      123.228       64.183    28635.241    15185.248     4119.434       19.324        2.397      579.722       65.743        0.013      347.239       26.061      858.462
06/27/2014  16:19:00     -407.503      -61.177      -19.847      227.146      168.861      118.054    51595.496    28513.960    13936.769       13.210        4.702      412.069       93.047        0.051      347.299       26.163      858.427
06/27/2014  16:20:00     -282.296     -105.350      -11.633      195.218      139.456       89.684    38109.969    19447.984     8043.211        7.825        3.280      301.313       91.131        0.091      347.423       26.379      858.423
06/27/2014  16:21:00     -453.291       43.706      -41.502      247.019      204.103       93.668    61018.296    41658.077     8773.621       16.026        5.572      455.393      101.419        0.050      347.221       26.030      858.427
06/27/2014  16:22:00     -449.248     -126.125      -16.020      218.638      178.729       90.889    47802.773    31943.895     8260.862       15.298        4.400      466.617      101.593        0.047      347.303       26.171      858.429
06/27/2014  16:23:00     -390.116     -197.874       18.638      364.450      154.814       97.729   132824.152    23967.412     9550.958       17.899        8.317      437.430      146.517        0.112      347.020       25.683      858.395
06/27/2014  16:24:00     -252.939      -95.159       16.045      191.349      112.230       75.880    36614.272    12595.495     5757.821        6.412        2.748      270.247       66.970        0.061      347.405       26.349      858.386
06/27/2014  16:25:00     -318.520     -112.770        5.548      198.811      164.448       92.789    39525.771    27043.259     8609.786        9.468        3.759      337.894      107.733        0.102      347.423       26.379      858.363
06/27/2014  16:26:00     -536.519     -107.758       -8.766      257.042      188.293      109.314    66070.427    35454.248    11949.590       20.649        5.674      547.233      128.097        0.055      347.137       25.886      858.404
06/27/2014  16:27:00     -448.304     -150.123      -14.344      178.012      156.836       77.691    31688.340    24597.640     6035.837       14.301        3.116      472.772       77.578        0.027      347.111       25.839      858.391
06/27/2014  16:28:00     -368.844     -268.710      -23.792      221.799      192.923       98.767    49194.776    37219.145     9755.018       15.248        4.808      456.345      102.670        0.051      347.284       26.139      858.376
06/27/2014  16:29:00     -375.437     -182.630        6.137      204.592      174.366       91.485    41858.037    30403.644     8369.492       12.747        4.032      417.501      100.930        0.058      347.566       26.626      858.391
06/27/2014  16:30:00     -380.377     -116.175      -13.601      159.857      126.522       76.065    25554.165    16007.840     5785.850       10.285        2.367      397.722       86.711        0.048      347.534       26.569      858.440
06/27/2014  16:31:00     -372.811     -192.163       -9.141      199.946      162.182       74.341    39978.422    26303.082     5526.606       12.389        3.590      419.422       75.725        0.033      347.638       26.750      858.475
06/27/2014  16:32:00     -336.840     -168.196       -5.236      194.663      159.322       84.036    37893.516    25383.374     7061.980       10.605        3.517      376.498       96.659        0.066      347.332       26.221      858.478
06/27/2014  16:33:00     -281.759     -217.561       -6.229      205.011      181.972       92.777    42029.519    33113.684     8607.509       10.524        4.188      355.979      103.116        0.084      347.249       26.078      858.475
06/27/2014  16:34:00     -281.480     -273.278        0.255      148.037      138.529       89.926    21915.026    19190.353     8086.635       10.154        2.460      392.316       86.772        0.049      346.906       25.486      858.437
06/27/2014  16:35:00     -233.716     -151.387       -2.634      157.209      117.960       64.560    24714.595    13914.565     4167.958        6.017        2.140      278.463       65.122        0.055      347.273       26.120      858.440
06/27/2014  16:36:00     -200.141      -99.566       24.840      196.185      110.219       67.139    38488.503    12148.336     4507.584        5.286        2.757      223.540       78.833        0.124      347.443       26.413      858.475
06/27/2014  16:37:00     -379.291     -119.228      -42.703      191.987      149.084       72.187    36859.077    22226.100     5210.991       11.209        3.215      397.589       74.309        0.035      347.129       25.871      858.485
06/27/2014  16:38:00     -307.068     -279.967        3.041      184.312      148.448      106.527    33970.947    22036.813    11347.963       12.001        3.368      415.539      112.667        0.074      346.926       25.521      858.435
06/27/2014  16:39:00     -434.837     -138.926      -11.459      331.034      213.240      101.025   109583.792    45471.253    10206.063       18.686        8.263      456.490      127.119        0.078      347.045       25.728      858.361
06/27/2014  16:40:00     -164.470      -30.385       29.824      167.263      159.248       73.692    27976.982    25359.820     5430.526        4.381        2.938      167.253       82.226        0.242      347.512       26.533      858.359
06/27/2014  16:41:00     -371.313      -11.413      -19.364      268.758      159.247       82.039    72230.672    25359.458     6730.316       12.133        5.216      371.489       99.207        0.071      347.243       26.069      858.367
06/27/2014  16:42:00     -456.003     -185.255      -22.922      174.960      233.760       93.937    30610.951    54643.613     8824.253       16.842        4.704      492.197       85.524        0.030      347.379       26.302      858.403
06/27/2014  16:43:00     -402.462     -202.972      -14.748      186.401      170.112       85.355    34745.337    28938.246     7285.402       13.717        3.548      450.748       93.767        0.043      347.163       25.929      858.396
06/27/2014  16:44:00     -386.796     -128.909       12.657      230.320      213.240       95.324    53047.343    45471.127     9086.737       13.698        5.380      407.712       86.484        0.045      347.333       26.223      858.381
06/27/2014  16:45:00     -500.567     -330.465      -26.099      216.989      177.729      103.362    47084.219    31587.559    10683.786       22.489        4.468      599.812      115.713        0.037      346.938       25.543      858.431
06/27/2014  16:46:00     -389.825     -324.030        3.584      200.019      187.658      106.264    40007.469    35215.508    11292.029       17.173        4.326      506.911      119.592        0.056      346.688       25.113      858.438
06/27/2014  16:47:00     -309.300     -200.579      -17.052      112.863      134.225       70.320    12738.162    18016.448     4944.879        8.594        1.785      368.645       65.810        0.032      346.730       25.185      858.455
06/27/2014  16:48:00     -303.412     -113.377       -9.212      118.194      106.244       57.568    13969.807    11287.729     3314.129        6.678        1.429      323.903       45.516        0.020      347.126       25.865      858.460
06/27/2014  16:49:00     -225.599      -67.783        4.154      125.843      115.745       64.032    15836.503    13396.897     4100.039        4.441        1.667      235.562       67.134        0.081      347.317       26.195      858.468
06/27/2014  16:50:00     -255.571     -124.507        5.796      145.157      149.222       70.896    21070.479    22267.345     5026.271        6.460        2.418      284.286       64.323        0.051      347.441       26.408      858.464
06/27/2014  16:51:00     -445.562     -195.789       -9.180      310.391      263.810      129.089    96342.659    69595.858    16663.991       20.974        9.130      486.681      158.931        0.107      347.162       25.926      858.450
06/27/2014  16:52:00     -283.208     -183.264       21.390      267.815      217.586      117.038    71724.756    47343.856    13697.945       12.349        6.638      337.332      143.007        0.180      347.128       25.870      858.467
06/27/2014  16:53:00     -216.856     -138.399       27.529      222.396      161.005       84.267    49459.945    25922.646     7100.971        7.470        4.124      257.256      100.727        0.153      347.022       25.687      858.433
06/27/2014  16:54:00     -560.680      -84.115      -27.209      284.447      165.741       84.584    80910.270    27470.082     7154.427       21.884        5.777      566.955       79.501        0.020      346.961       25.582      858.437
06/27/2014  16:55:00     -498.509     -106.923      -29.348      208.645      125.381       77.696    43532.701    15720.355     6036.626       16.304        3.264      509.846       76.716        0.023      346.980       25.614      858.473
06/27/2014  16:56:00     -222.306     -127.830        8.673      138.543      115.808       84.053    19194.297    13411.473     7064.841        5.275        1.984      256.438       78.502        0.094      347.101       25.822      858.436
06/27/2014  16:57:00     -281.748     -186.195       -7.484      199.709      139.946       81.693    39883.836    19584.770     6673.722        9.011        3.307      337.713       94.919        0.079      346.980       25.615      858.410
06/27/2014  16:58:00     -349.876      -46.131      -28.924      181.267      171.003       73.591    32857.585    29241.885     5415.636        9.644        3.376      352.904       79.613        0.051      347.038       25.713      858.404
06/27/2014  16:59:00     -329.879      -78.795      -21.693      158.197      122.250       63.161    25026.338    14944.953     3989.277        7.972        2.198      339.159       62.598        0.034      347.105       25.829      858.341
06/27/2014  17:00:00     -243.528      -35.734      -23.753      150.779      113.368       59.952    22734.411    12852.371     3594.219        5.016        1.959      246.136       56.357        0.052      347.047       25.730      858.336
06/27/2014  17:01:00      -10.080     -135.512        9.135       91.252      120.876       56.394     8326.894    14610.922     3180.274        2.233        1.306      135.886       34.346        0.064      347.257       26.093      858.267
06/27/2014  17:02:00     -246.170     -223.084        4.596      222.517      132.402       76.312    49513.632    17530.219     5823.539        9.162        3.643      332.214       77.550        0.054      347.179       25.956      858.275
06/27/2014  17:03:00     -349.384     -189.451        2.955      166.219      167.388       75.180    27628.893    28018.835     5652.037       10.962        3.065      397.443       88.213        0.049      346.855       25.398      858.282
06/27/2014  17:04:00     -167.280      -66.837        2.219      135.579       90.739       58.233    18381.781     8233.609     3391.071        3.123        1.500      180.138       41.739        0.054      347.246       26.073      858.288
06/27/2014  17:05:00     -285.764     -142.126       -9.158      168.920      100.942       64.743    28533.808    10189.192     4191.678        7.242        2.146      319.157       77.627        0.059      347.228       26.041      858.338
06/27/2014  17:06:00     -225.591     -131.917        2.274      167.919      101.746       65.888    28196.649    10352.333     4341.194        5.559        2.145      261.330       84.229        0.104      347.234       26.054      858.353
06/27/2014  17:07:00     -304.604      -36.471      -18.731      108.851      126.531       64.554    11848.637    16010.107     4167.177        6.324        1.601      306.779       64.734        0.045      347.026       25.694      858.355
06/27/2014  17:08:00     -214.226     -154.284        1.633      206.233      141.118       77.651    42532.232    19914.290     6029.662        6.908        3.424      264.000       94.475        0.128      347.226       26.039      858.335
06/27/2014  17:09:00     -374.373      -90.704       -0.309      191.336      124.392       74.464    36609.583    15473.310     5544.877       10.300        2.881      385.205       86.454        0.050      346.977       25.610      858.327
06/27/2014  17:10:00     -271.921     -138.635       10.443      167.160      146.335       78.128    27942.431    21413.810     6103.940        7.436        2.773      305.222       80.674        0.070      347.127       25.867      858.319
06/27/2014  17:11:00     -276.873     -189.471        4.958      207.254      143.548       89.925    42954.151    20606.149     8086.572        9.210        3.582      335.497       91.977        0.075      347.045       25.726      858.309
06/27/2014  17:12:00     -233.218     -151.116       -7.028      208.812      143.754       65.958    43602.255    20665.105     4350.452        7.294        3.431      277.897       87.152        0.098      347.086       25.799      858.305
06/27/2014  17:13:00     -309.384     -134.867       -7.557      134.976       99.908       66.243    18218.434     9981.609     4388.136        7.327        1.629      337.502       63.112        0.035      347.069       25.767      858.325
06/27/2014  17:14:00     -170.159     -107.795       -9.978       89.830       75.278       40.841     8069.431     5666.818     1667.971        2.804        0.770      201.430       36.780        0.033      347.158       25.923      858.317
06/27/2014  17:15:00     -334.926     -183.316       -4.794      172.636      128.120       72.509    29803.068    16414.713     5257.512        9.863        2.574      381.812       70.662        0.034      347.050       25.736      858.330
06/27/2014  17:16:00     -241.751     -246.922      -18.601      134.591      151.282       68.153    18114.617    22886.208     4644.821        8.270        2.282      345.564       71.747        0.043      346.978       25.612      858.373
06/27/2014  17:17:00     -347.749     -218.770        1.771      228.844      159.632       89.180    52369.654    25482.523     7953.070       12.728        4.290      410.841      104.398        0.065      346.885       25.450      858.368
06/27/2014  17:18:00     -414.822     -157.709      -13.747      210.876      167.240       85.260    44468.760    27969.340     7269.209       13.841        3.985      443.790       88.256        0.040      346.745       25.210      858.387
06/27/2014  17:19:00     -247.450     -125.891       -8.264      158.129      102.973       66.647    25004.634    10603.521     4441.885        5.859        2.003      277.633       83.385        0.090      346.912       25.498      858.400
06/27/2014  17:20:00     -269.223     -102.317      -18.462      114.085      116.605       58.612    13015.291    13596.664     3435.328        5.666        1.502      288.011       51.084        0.031      346.916       25.504      858.420
06/27/2014  17:21:00     -466.145     -109.257      -25.738      193.701      129.340       78.019    37519.939    16728.905     6086.988       14.510        3.017      478.778      100.770        0.044      346.727       25.181      858.410
06/27/2014  17:22:00     -328.583     -107.854      -13.894       90.868      100.675       56.742     8256.999    10135.388     3219.673        7.070        1.081      345.831       54.257        0.025      346.669       25.080      858.376
06/27/2014  17:23:00     -240.911      -66.238      -14.064      172.024      140.585       84.796    29592.148    19764.128     7190.300        5.958        2.827      249.852       89.352        0.128      346.907       25.488      858.357
06/27/2014  17:24:00     -425.778     -164.202      -10.569      163.949      156.090       87.298    26879.386    24364.237     7620.875       13.360        2.943      456.343       80.093        0.031      347.124       25.861      858.289
06/27/2014  17:25:00     -453.023      -52.090      -29.727      278.608      178.106       75.515    77622.220    31721.755     5702.585       16.192        5.752      456.008       98.784        0.047      347.128       25.870      858.309
06/27/2014  17:26:00     -462.996     -142.930      -29.479      256.284      197.165       93.949    65681.488    38873.870     8826.491       17.450        5.669      484.556       98.787        0.042      346.999       25.648      858.272
06/27/2014  17:27:00     -364.812       39.063        2.041      296.686      141.139       98.475    88022.856    19920.215     9697.347       12.611        5.882      366.897      142.474        0.151      347.068       25.766      858.307
06/27/2014  17:28:00     -339.931     -125.852      -11.831      174.755      130.871       74.392    30539.479    17127.098     5534.215        9.236        2.660      362.481       69.427        0.037      347.191       25.979      858.311
06/27/2014  17:29:00     -224.900       23.897       24.624      194.515      126.861       68.264    37835.928    16093.690     4659.973        5.516        2.929      226.166       88.921        0.155      347.319       26.200      858.343
06/27/2014  17:30:00     -194.749      -54.161      -14.671      103.190      100.222       50.955    10648.092    10044.439     2596.452        3.218        1.164      202.140       42.786        0.045      347.450       26.426      858.333
06/27/2014  17:31:00     -283.460      -95.926       16.639      209.051      158.168       86.672    43702.365    25017.198     7511.977        8.302        3.812      299.252      108.144        0.131      347.135       25.883      858.302
06/27/2014  17:32:00     -300.905     -122.165      -11.219      164.944      121.249       68.646    27206.457    14701.336     4712.290        7.610        2.331      324.759       76.840        0.056      347.182       25.961      858.321
06/27/2014  17:33:00     -337.304     -215.069      -20.828      126.901      155.033       69.519    16103.959    24035.101     4832.943       10.271        2.249      400.036       65.859        0.027      347.118       25.850      858.341
06/27/2014  17:34:00     -322.953     -247.995       -3.732      170.984      142.859       79.365    29235.508    20408.641     6298.756       11.087        2.797      407.186       86.080        0.045      346.924       25.518      858.331
06/27/2014  17:35:00     -422.161     -171.224      -23.185      198.167      178.692       87.253    39269.996    31930.684     7613.004       14.343        3.941      455.563       92.529        0.041      346.876       25.436      858.316
06/27/2014  17:36:00     -373.796     -288.975       12.561      271.177      209.201      111.842    73537.132    43764.905    12508.741       17.658        6.491      472.472      125.534        0.071      346.743       25.207      858.283
06/27/2014  17:37:00     -307.957     -162.783        7.505      204.540      145.011       84.196    41836.459    21028.294     7089.018        9.566        3.498      348.333       91.523        0.069      346.941       25.548      858.277
06/27/2014  17:38:00     -219.783     -114.146      -18.655      103.562      137.430       55.106    10725.066    18887.015     3036.695        4.716        1.632      247.657       34.920        0.020      347.079       25.784      858.298
06/27/2014  17:39:00     -287.082     -142.345        0.304      213.922      162.685       85.812    45762.473    26466.501     7363.654        9.112        3.980      320.435       79.448        0.061      347.088       25.802      858.295
06/27/2014  17:40:00     -258.447     -262.362      -16.059      164.194      219.864       94.482    26959.808    48340.277     8926.814       11.004        4.211      368.278       84.456        0.053      346.648       25.045      858.299
06/27/2014  17:41:00     -230.947     -123.661       11.344      181.015      182.847       79.282    32766.324    33433.088     6285.681        7.061        3.624      261.971       92.337        0.124      347.002       25.654      858.312
06/27/2014  17:42:00     -354.394     -243.477        8.645      190.618      174.940       97.741    36335.329    30604.035     9553.290       13.071        3.825      429.972      110.523        0.066      346.825       25.348      858.336
06/27/2014  17:43:00     -347.894     -262.530        7.637      195.390      174.566      106.704    38177.092    30473.425    11385.669       13.501        4.002      435.835      126.785        0.085      346.363       24.551      858.324
06/27/2014  17:44:00     -198.745     -160.237       -2.053      148.758      106.339       61.406    22128.962    11308.072     3770.650        5.119        1.860      255.295       64.805        0.064      346.470       24.739      858.308
06/27/2014  17:45:00     -308.148     -148.097        3.620      218.603      136.500       82.977    47787.199    18632.136     6885.169        9.509        3.665      341.889       88.160        0.066      346.638       25.025      858.307
06/27/2014  17:46:00     -214.760      -94.626        7.482      131.796       92.582       53.915    17370.219     8571.490     2906.873        4.199        1.442      234.683       56.218        0.057      346.919       25.509      858.324
06/27/2014  17:47:00     -146.309     -142.432       27.139      113.682      122.527       65.489    12923.701    15012.956     4288.787        3.732        1.611      204.189       49.925        0.060      347.011       25.668      858.333
06/27/2014  17:48:00     -228.935     -212.367       -5.521      156.449      171.858       79.483    24476.385    29535.040     6317.477        7.893        3.016      312.268       92.896        0.088      347.002       25.651      858.325
06/27/2014  17:49:00     -284.771     -313.080        9.343      243.279      184.722      101.157    59184.856    34122.204    10232.812       14.135        5.177      423.218      118.829        0.079      346.760       25.235      858.337
06/27/2014  17:50:00     -413.095     -240.747       -0.610      198.862      130.512       82.715    39546.057    17033.376     6841.820       14.600        3.171      478.128       87.762        0.034      346.783       25.275      858.320
06/27/2014  17:51:00     -424.922     -258.318       -7.175      221.835      183.864       96.178    49210.972    33806.054     9250.241       16.979        4.613      497.279      122.382        0.061      346.552       24.880      858.330
06/27/2014  17:52:00     -356.151     -220.282       -8.059      197.737      155.389       87.515    39099.889    24145.830     7658.870       12.316        3.545      418.770      100.297        0.057      346.468       24.734      858.312
06/27/2014  17:53:00     -257.518     -150.815        8.681      185.490      131.448       76.213    34406.687    17278.460     5808.463        7.331        2.875      298.431       94.508        0.100      346.695       25.125      858.326
06/27/2014  17:54:00     -398.335     -211.189        2.148      193.788      158.526       95.244    37553.624    25130.421     9071.381       13.750        3.588      450.857       99.242        0.048      346.792       25.289      858.335
06/27/2014  17:55:00     -294.281     -201.551        5.141      214.748      174.052       95.977    46116.807    30294.082     9211.535       10.642        4.281      356.685       97.682        0.075      346.747       25.215      858.327
06/27/2014  17:56:00     -247.844      -74.175        0.764      199.646      126.154       80.159    39858.707    15914.906     6425.484        6.455        3.110      258.705       81.216        0.099      346.758       25.232      858.296
06/27/2014  17:57:00     -280.227     -176.121        0.120      232.558      186.024       83.367    54083.035    34604.828     6950.017       10.258        4.782      330.977      117.848        0.127      346.862       25.412      858.293
06/27/2014  17:58:00     -580.289     -242.620      -27.255      341.041      204.221      108.212   116308.841    41706.298    11709.914       28.301        8.486      628.967      145.799        0.054      346.599       24.958      858.261
06/27/2014  17:59:00     -516.657     -234.964      -25.193      293.667      214.932      104.913    86240.276    46195.573    11006.803       23.309        7.172      567.576      133.738        0.056      346.560       24.893      858.305
06/27/2014  18:00:00     -489.432     -291.480       -7.523      271.313      204.290      106.423    73610.727    41734.564    11325.928       22.559        6.334      569.653      138.920        0.059      346.477       24.749      858.309
06/27/2014  18:01:00     -512.310     -266.872      -33.235      198.306      156.696       80.866    39325.255    24553.622     6539.388       20.259        3.521      577.653       71.313        0.015      346.429       24.667      858.328
06/27/2014  18:02:00     -484.464     -271.717      -20.484      200.210      211.779      105.447    40084.231    44850.159    11118.986       20.249        4.803      555.459      124.488        0.050      346.419       24.651      858.347
06/27/2014  18:03:00     -440.651     -252.902      -17.729      210.049      224.759       92.013    44120.657    50516.405     8466.426       18.076        5.155      508.068      109.152        0.046      346.407       24.628      858.330
06/27/2014  18:04:00     -310.877     -122.225      -10.288      172.582      126.757       68.786    29784.694    16067.386     4731.557        8.113        2.529      334.041       77.190        0.053      346.737       25.195      858.355
06/27/2014  18:05:00     -664.923     -169.085      -29.440      281.603      211.701      120.128    79300.259    44817.247    14430.756       30.504        6.927      686.084      133.371        0.038      346.454       24.710      858.310
06/27/2014  18:06:00     -341.462     -116.806       -1.176      227.591      149.181       90.020    51797.804    22254.999     8103.555       10.619        4.108      360.888      111.515        0.095      346.559       24.891      858.346
06/27/2014  18:07:00     -376.432     -168.167       -0.280      153.764      164.525       82.270    23643.360    27068.527     6768.356       11.372        2.874      412.288       78.134        0.036      346.624       25.002      858.379
06/27/2014  18:08:00     -461.705     -201.881       -2.369      206.552      147.695       83.424    42663.844    21813.808     6959.539       16.267        3.572      503.912       94.923        0.035      346.569       24.908      858.375
06/27/2014  18:09:00     -309.201     -239.768       -0.884      191.198      112.826       89.732    36556.669    12729.704     8051.881       10.521        2.867      391.272       90.371        0.053      346.685       25.106      858.406
06/27/2014  18:10:00     -515.179     -367.702      -18.597      238.387      243.768      113.991    56828.203    59422.882    12993.922       26.508        6.462      632.941      127.582        0.041      346.481       24.756      858.377
06/27/2014  18:11:00     -414.004     -271.696       17.486      268.919      190.472      116.467    72317.684    36279.637    13564.620       18.382        6.108      495.195      121.571        0.060      346.525       24.832      858.422
06/27/2014  18:12:00     -364.395     -194.130       -1.284      181.265      183.954       95.481    32856.853    33839.258     9116.644       12.313        3.791      412.881      104.162        0.064      346.423       24.655      858.479
06/27/2014  18:13:00     -323.581      -57.710        4.168      128.381      129.913       67.462    16481.750    16877.311     4551.068        7.297        1.896      328.687       52.243        0.025      346.563       24.897      858.488
06/27/2014  18:14:00     -340.552     -171.190       -3.713      197.207      162.261       85.724    38890.685    26328.618     7348.637       10.892        3.628      381.158       76.749        0.041      346.533       24.846      858.481
06/27/2014  18:15:00     -348.593     -148.570       10.981      206.417      165.926       95.560    42608.067    27531.506     9131.783       11.148        3.964      378.933      109.044        0.083      346.465       24.728      858.443
06/27/2014  18:16:00     -494.245     -220.428      -12.298      220.034      175.444       97.741    48414.895    30780.461     9553.206       19.087        4.437      541.172      101.025        0.035      346.430       24.668      858.445
06/27/2014  18:17:00     -481.228     -226.957       -8.733      287.269      223.939      106.470    82523.379    50148.851    11335.859       21.356        7.200      532.062      120.122        0.051      346.394       24.605      858.433
06/27/2014  18:18:00     -527.106     -120.595       -6.422      226.342      196.722       97.748    51230.643    38699.415     9554.736       19.594        4.974      540.726      105.506        0.038      346.332       24.499      858.428
06/27/2014  18:19:00     -495.700     -320.539       -8.612      224.858      145.779      101.943    50561.090    21251.449    10392.406       21.536        4.110      590.308       95.686        0.026      346.407       24.629      858.424
06/27/2014  18:20:00     -339.487     -141.267        1.214      227.307      157.115       89.950    51668.500    24685.110     8091.072       10.981        4.222      367.706      105.407        0.082      346.380       24.581      858.428
06/27/2014  18:21:00     -254.776     -163.365        7.148      216.109      150.441       69.140    46702.919    22632.595     4780.319        8.287        3.706      302.653       82.073        0.074      346.458       24.717      858.427
06/27/2014  18:22:00     -447.056     -183.294      -33.562      120.052      121.032       77.800    14412.575    14648.662     6052.884       13.484        1.756      483.172       61.046        0.016      346.469       24.736      858.433
06/27/2014  18:23:00     -202.529      -88.743       -3.088      175.925      120.107       83.553    30949.608    14425.634     6981.050        5.062        2.618      221.118       93.989        0.181      346.551       24.877      858.431
06/27/2014  18:24:00     -299.692     -160.112       -0.870      155.237      157.538       74.027    24098.436    24818.121     5479.957        8.492        2.720      339.781       72.761        0.046      346.510       24.807      858.413
06/27/2014  18:25:00     -382.180     -307.614       -9.927      186.269      150.040       87.287    34696.316    22511.919     7618.948       15.280        3.241      490.599       86.192        0.031      346.445       24.694      858.425
06/27/2014  18:26:00     -414.614     -181.100       -7.934      228.300      173.883      106.303    52121.039    30235.438    11300.358       14.920        4.683      452.440      117.071        0.067      346.379       24.580      858.434
06/27/2014  18:27:00     -391.944     -192.466      -12.923      152.601      213.182       89.449    23287.117    45446.393     8001.178       13.377        3.837      436.650       97.300        0.050      346.452       24.706      858.434
06/27/2014  18:28:00     -388.835     -134.822       -3.047      262.975      159.961       99.971    69155.622    25587.594     9994.153       13.704        5.237      411.545      136.465        0.110      346.472       24.740      858.449
06/27/2014  18:29:00     -302.496     -131.439      -12.157      204.222      153.994       76.439    41706.823    23714.091     5842.990        9.008        3.563      329.818       90.850        0.076      346.567       24.906      858.480
06/27/2014  18:30:00     -427.648     -248.173       -5.815      235.600      163.401       94.852    55507.369    26699.880     8996.932       16.784        4.560      494.442      103.899        0.044      346.340       24.516      858.473
06/27/2014  18:31:00     -328.716     -204.858        2.458      190.233      168.551       94.202    36188.510    28409.460     8873.979       11.174        3.674      387.325       98.635        0.065      346.279       24.409      858.465
06/27/2014  18:32:00     -369.520     -129.034        7.399      259.048      174.328      102.480    67106.072    30390.238    10502.182       13.061        5.400      391.401      114.439        0.085      346.293       24.432      858.452
06/27/2014  18:33:00     -399.056     -127.230       25.455      274.053      216.322      108.270    75104.892    46795.386    11722.476       15.483        6.681      418.847      140.188        0.112      346.357       24.543      858.451
06/27/2014  18:34:00     -501.405      -93.611      -12.405      243.347      177.251      105.964    59217.940    31417.820    11228.305       18.108        5.093      510.069      118.637        0.054      346.200       24.273      858.443
06/27/2014  18:35:00     -368.635     -168.258        3.763      230.286      185.287       95.346    53031.429    34331.312     9090.885       13.032        4.823      405.219       99.624        0.060      346.341       24.516      858.445
06/27/2014  18:36:00     -482.387     -330.327      -22.281      259.923      202.673      115.997    67559.764    41076.180    13455.255       23.218        6.105      584.647      124.163        0.045      346.243       24.347      858.471
06/27/2014  18:37:00     -382.319     -284.393       19.664      229.397      181.121      105.405    52623.163    32804.863    11110.188       16.197        4.827      476.495      114.171        0.057      346.308       24.458      858.487
06/27/2014  18:38:00     -325.261     -299.380       -1.401      200.845      159.353      101.727    40338.651    25393.413    10348.414       13.574        3.804      442.067      102.654        0.054      346.324       24.486      858.475
06/27/2014  18:39:00     -374.077     -265.584       18.899      254.588      169.388      103.891    64815.221    28692.277    10793.440       15.755        5.215      458.768      123.382        0.072      346.205       24.281      858.461
06/27/2014  18:40:00     -409.522     -182.067        5.941      223.580      158.270       90.884    49988.096    25049.436     8259.937       14.208        4.165      448.171      105.301        0.055      346.310       24.461      858.473
06/27/2014  18:41:00     -320.711     -156.652       -0.470      194.262      134.818       88.697    37737.571    18175.903     7867.072        9.558        3.189      356.925      104.603        0.086      346.367       24.562      858.492
06/27/2014  18:42:00     -421.392     -284.216        1.219      202.184      164.666       98.732    40878.340    27115.038     9747.975       16.803        3.887      508.281      110.643        0.047      346.250       24.358      858.506
06/27/2014  18:43:00     -466.575     -249.364       -9.528      196.285      160.951       93.227    38527.940    25905.362     8691.239       17.653        3.656      529.032      102.605        0.038      346.305       24.452      858.532
06/27/2014  18:44:00     -361.257     -130.974      -32.033      200.807      179.943       82.560    40323.588    32379.607     6816.071       11.409        3.976      384.267       98.512        0.066      346.360       24.549      858.552
06/27/2014  18:45:00     -382.469     -319.631       13.329      237.214      198.452      123.257    56270.410    39383.326    15192.407       17.972        5.542      498.444      135.951        0.074      346.368       24.561      858.522
06/27/2014  18:46:00     -402.231     -214.746        1.286      224.107      155.098       93.638    50223.728    24055.268     8768.063       14.546        4.152      455.967      105.513        0.054      346.329       24.495      858.537
06/27/2014  18:47:00     -415.274     -312.612        7.201      307.133      218.552      114.034    94330.765    47765.098    13003.774       21.264        7.755      519.788      152.607        0.086      346.268       24.390      858.509
06/27/2014  18:48:00     -401.397     -314.707       14.352      297.669      211.418      119.518    88606.815    44697.536    14284.567       20.395        7.379      510.059      144.847        0.081      346.113       24.125      858.494
06/27/2014  18:49:00     -593.078     -348.799      -45.245      202.884      195.325       99.907    41162.031    38151.817     9981.434       28.236        4.465      688.043       93.741        0.019      346.151       24.188      858.496
06/27/2014  18:50:00     -338.153     -206.608        0.579      217.653      226.620      114.258    47372.662    51356.603    13054.784       13.439        5.589      396.276      111.736        0.080      346.230       24.323      858.515
06/27/2014  18:51:00     -366.389     -233.520      -18.521      145.131      150.608       93.934    21062.916    22682.687     8823.664       12.083        2.628      434.480       82.217        0.036      346.206       24.284      858.501
06/27/2014  18:52:00     -331.137     -117.875       -0.289      157.627      152.158       81.062    24846.401    23151.980     6571.065        8.905        2.728      351.492       73.961        0.044      346.260       24.376      858.522
06/27/2014  18:53:00     -437.434     -231.063       -5.506      246.572      165.124       93.792    60797.638    27265.971     8797.022       17.080        4.843      494.710      102.993        0.043      346.170       24.220      858.511
06/27/2014  18:54:00     -433.043     -274.276      -16.790      256.378      167.352      112.021    65729.476    28006.847    12548.805       18.464        5.314      512.595      127.240        0.062      346.148       24.183      858.517
06/27/2014  18:55:00     -396.794     -162.539        7.089      286.230      212.677      111.254    81927.845    45231.656    12377.453       16.170        6.977      428.794      146.604        0.117      346.142       24.171      858.499
06/27/2014  18:56:00     -584.298     -198.986      -17.233      279.340      209.447      120.219    78030.765    43868.144    14452.565       25.880        6.818      617.252      148.275        0.058      346.071       24.052      858.492
06/27/2014  18:57:00     -408.803      -57.912       -4.922      222.566      146.947       92.351    49535.570    21593.306     8528.761       12.506        3.983      412.884       87.960        0.045      346.162       24.208      858.515
06/27/2014  18:58:00     -407.838     -220.853       -3.223      257.856      198.451      117.518    66489.852    39382.761    13810.583       16.738        5.984      463.798      121.842        0.069      346.105       24.109      858.516
06/27/2014  18:59:00     -307.897     -227.410        3.372      227.983      193.674      129.050    51976.150    37509.769    16653.988       12.632        5.307      382.773      134.928        0.124      346.059       24.032      858.533
06/27/2014  19:00:00     -420.701     -239.159       -6.980      275.729      155.239      116.723    76026.452    24099.117    13624.199       17.397        5.687      483.928      132.178        0.075      346.010       23.946      858.551
06/27/2014  19:01:00     -482.878     -311.835      -25.329      292.504      223.900      121.643    85558.803    50131.109    14796.999       24.075        7.524      574.815      147.768        0.066      345.967       23.873      858.537
06/27/2014  19:02:00     -480.509     -267.343       -0.875      272.093      189.644      110.591    74034.722    35964.939    12230.264       21.228        6.111      549.874      130.600        0.056      346.004       23.938      858.549
06/27/2014  19:03:00     -364.323     -143.199       -8.789      189.994      155.428       75.061    36097.771    24157.965     5634.117       10.959        3.294      391.455       82.888        0.045      346.010       23.946      858.554
06/27/2014  19:04:00     -392.011     -238.042      -17.519      222.156      146.502       85.867    49353.214    21462.714     7373.145       14.440        3.909      458.625      105.506        0.053      346.036       23.991      858.545
06/27/2014  19:05:00     -326.165      -15.397        4.020      150.466      133.833       82.152    22640.111    17911.149     6749.006        7.696        2.365      326.528       80.808        0.061      346.088       24.079      858.549
06/27/2014  19:06:00     -344.488     -231.739        3.581      197.265      146.077       93.274    38913.551    21338.517     8700.056       12.066        3.448      415.180      106.941        0.066      346.078       24.062      858.538
06/27/2014  19:07:00     -438.444     -214.999      -15.946      226.160      197.685      102.908    51148.248    39079.350    10590.117       16.975        5.041      488.321      109.352        0.050      346.078       24.063      858.546
06/27/2014  19:08:00     -652.109     -363.974      -25.995      247.220      222.317      130.534    61117.723    49424.880    17039.147       34.297        6.379      746.809      126.184        0.029      345.916       23.786      858.530
06/27/2014  19:09:00     -395.913     -140.792       -2.463      264.653      190.750      106.873    70041.347    36385.508    11421.918       14.719        5.892      420.201      127.896        0.093      345.974       23.883      858.541
06/27/2014  19:10:00     -447.877     -218.391      -12.356      218.135      180.102       91.591    47582.752    32436.715     8388.967       16.841        4.420      498.286       91.815        0.034      345.982       23.897      858.541
06/27/2014  19:11:00     -386.231     -219.258       -5.686      275.763      222.320      101.333    76045.331    49426.253    10268.456       16.649        6.787      444.127      140.037        0.099      345.962       23.864      858.518
06/27/2014  19:12:00     -394.421     -189.461        6.477      275.922      185.033      101.993    76133.210    34237.185    10402.576       15.612        6.039      437.565      130.400        0.089      345.983       23.900      858.533
06/27/2014  19:13:00     -537.236     -264.591        3.349      306.946      273.713      130.434    94215.615    74918.580    17013.154       27.236        9.307      598.858      147.557        0.061      345.839       23.654      858.526
06/27/2014  19:14:00     -559.291     -224.448      -30.809      277.843      217.700      115.119    77196.927    47393.363    13252.275       25.096        6.892      602.647      116.373        0.037      345.792       23.573      858.549
06/27/2014  19:15:00     -411.983     -117.320      -16.562      199.397      158.157       88.569    39759.256    25013.712     7844.468       12.818        3.631      428.362       93.732        0.048      345.916       23.785      858.611
06/27/2014  19:16:00     -377.341      -97.817        2.533      217.686      163.435       97.499    47387.340    26711.064     9506.135       11.777        4.180      389.814      117.344        0.091      345.933       23.815      858.618
06/27/2014  19:17:00     -464.679      -84.774      -33.855      205.148      181.597       85.242    42085.729    32977.591     7266.204       15.328        4.116      472.349       91.941        0.038      345.861       23.693      858.596
06/27/2014  19:18:00     -367.502     -196.260      -17.322      174.852      174.442       87.678    30573.246    30430.152     7687.403       12.127        3.435      416.624       90.683        0.047      345.885       23.732      858.580
06/27/2014  19:19:00     -445.040     -239.778        0.646      186.275      163.344      105.135    34698.473    26681.277    11053.396       16.398        3.622      505.523       92.700        0.034      345.825       23.630      858.594
06/27/2014  19:20:00     -198.746      -86.490       18.604      198.005      137.635       76.377    39205.874    18943.438     5833.437        5.564        3.199      216.750       87.911        0.165      345.937       23.822      858.615
06/27/2014  19:21:00     -547.506     -285.891      -34.069      245.816      154.931       87.831    60425.366    24003.614     7714.230       23.738        4.607      617.654       99.136        0.026      345.866       23.699      858.634
06/27/2014  19:22:00     -617.466     -391.739      -31.446      249.698      206.017      108.852    62349.321    42443.052    11848.782       32.616        5.832      731.249      109.094        0.022      345.732       23.469      858.591
06/27/2014  19:23:00     -383.754     -228.981      -13.842      215.072      182.868      117.256    46256.116    33440.851    13749.005       14.665        4.672      446.878      115.029        0.066      345.794       23.575      858.595
06/27/2014  19:24:00     -130.897      -84.594       23.930      179.253      155.505       80.921    32131.797    24181.681     6548.288        4.385        3.143      155.853       94.144        0.365      345.913       23.781      858.607
06/27/2014  19:25:00     -284.739     -219.988       -0.146      221.860      185.278       98.416    49221.810    34327.971     9685.709       11.134        4.662      359.821      112.283        0.097      345.796       23.581      858.592
06/27/2014  19:26:00     -331.113     -193.579        4.721      228.886      198.534       95.926    52388.688    39415.783     9201.807       12.405        5.050      383.547      111.662        0.085      345.743       23.489      858.605
06/27/2014  19:27:00     -268.173      -81.149        0.620      214.998      118.317       82.659    46223.959    13998.873     6832.442        7.277        3.353      280.182       85.498        0.093      345.815       23.612      858.621
06/27/2014  19:28:00     -437.606     -169.679       11.192      245.628      197.285       87.378    60333.054    38921.444     7634.985       16.363        5.344      469.351       97.020        0.043      345.724       23.455      858.628
06/27/2014  19:29:00     -400.367      -65.841      -14.581      236.220      161.598       93.398    55799.699    26114.068     8723.231       12.772        4.532      405.745      118.704        0.086      345.743       23.489      858.626
06/27/2014  19:30:00     -491.500     -201.945      -10.447      175.942      178.279       94.723    30955.546    31783.519     8972.514       17.708        3.586      531.370       87.063        0.027      345.692       23.402      858.646
06/27/2014  19:31:00     -284.987      -78.292       12.078      226.159      144.859       83.996    51148.061    20984.240     7055.305        8.333        3.959      295.545      104.735        0.126      345.731       23.469      858.670
06/27/2014  19:32:00     -247.699      -77.880        8.449      191.818      133.864       76.410    36793.977    17919.485     5838.465        6.401        3.028      259.654       83.136        0.103      345.720       23.450      858.689
06/27/2014  19:33:00     -402.206     -167.295        4.876      221.704      161.253       95.551    49152.840    26002.557     9129.931       13.702        4.214      435.611      111.142        0.065      345.703       23.419      858.675
06/27/2014  19:34:00     -260.829     -240.217        6.214      209.194      166.204      113.733    43762.181    27623.616    12935.176       10.503        4.216      354.593      113.611        0.103      345.690       23.398      858.677
06/27/2014  19:35:00     -488.264     -325.178       -5.752      265.907      206.104      114.281    70706.723    42478.989    13060.114       23.519        6.312      586.636      135.715        0.054      345.603       23.249      858.625
06/27/2014  19:36:00     -272.616     -142.878        2.233      212.105      130.415       83.884    44988.370    17008.004     7036.489        8.187        3.452      307.788       98.102        0.102      345.679       23.378      858.654
06/27/2014  19:37:00     -248.732     -178.314       -2.518      131.116      108.901       65.703    17191.518    11859.333     4316.904        6.351        1.668      306.045       68.409        0.050      345.719       23.448      858.691
06/27/2014  19:38:00     -325.425      -93.505      -17.162      195.590      114.621       81.005    38255.262    13137.910     6561.783        8.644        2.898      338.592       97.579        0.083      345.692       23.401      858.695
06/27/2014  19:39:00     -294.351     -191.095       -2.215      206.794      176.807      103.364    42763.626    31260.561    10684.044       10.392        4.235      350.941       94.210        0.072      345.669       23.362      858.683
06/27/2014  19:40:00     -280.238     -181.785       13.835      252.548      191.867      119.823    63780.452    36812.952    14357.536       11.334        5.748      334.035      134.888        0.163      345.663       23.350      858.693
06/27/2014  19:41:00     -269.912     -220.271      -23.344      173.048      141.228       89.222    29945.666    19945.216     7960.532        8.987        2.893      348.385       86.322        0.061      345.650       23.327      858.705
06/27/2014  19:42:00     -382.120     -220.616      -24.591      212.468      155.484       69.884    45142.621    24175.340     4883.826       13.473        3.710      441.233       74.466        0.028      345.602       23.244      858.709
06/27/2014  19:43:00     -481.439     -174.968      -27.359      258.881      188.371       95.371    67019.532    35483.530     9095.705       18.735        5.580      512.247      106.182        0.043      345.564       23.179      858.712
06/27/2014  19:44:00     -393.008     -222.942       -7.078      221.403      189.572       99.863    49019.191    35937.418     9972.539       14.955        4.746      451.839       90.817        0.040      345.570       23.192      858.718
06/27/2014  19:45:00     -481.731     -294.363       -4.442      308.334      274.096      129.653    95069.740    75128.776    16809.874       25.284        9.350      564.548      155.293        0.076      345.490       23.052      858.699
06/27/2014  19:46:00     -414.581     -264.599       -3.063      271.169      197.609      108.912    73532.639    39049.177    11861.816       18.315        6.222      491.823      123.931        0.063      345.496       23.063      858.742
06/27/2014  19:47:00     -438.223     -275.985        3.259      232.153      190.493      103.401    53894.993    36287.710    10691.865       18.453        5.044      517.887      110.649        0.046      345.482       23.040      858.742
06/27/2014  19:48:00     -442.092     -208.856      -19.941      218.014      184.021       99.536    47530.227    33863.693     9907.493       16.537        4.565      488.944      113.596        0.054      345.501       23.072      858.777
06/27/2014  19:49:00     -410.335     -138.346       -1.055      262.858      141.208       96.152    69094.067    19939.655     9245.203       14.288        4.914      433.030      126.080        0.085      345.500       23.069      858.804
06/27/2014  19:50:00     -402.902     -239.858       -6.289      213.030      181.729      107.815    45381.714    33025.433    11624.147       15.495        4.502      468.894      114.686        0.060      345.469       23.017      858.803
06/27/2014  19:51:00     -438.409     -245.179       -1.478      259.849      207.036      125.566    67521.630    42864.090    15766.928       18.921        6.308      502.310      151.251        0.091      345.441       22.970      858.810
06/27/2014  19:52:00     -344.501     -211.590      -23.518      237.518      181.874       99.034    56414.740    33078.312     9807.674       13.164        4.965      404.291       97.797        0.059      345.446       22.978      858.799
06/27/2014  19:53:00     -402.807     -145.660       -8.864      237.238      169.581       87.194    56282.018    28757.591     7602.880       13.808        4.632      428.335       98.606        0.053      345.444       22.975      858.816
06/27/2014  19:54:00     -427.802     -364.924       -9.812      293.866      214.082      121.278    86357.424    45831.102    14708.448       23.156        7.345      562.302      145.278        0.067      345.420       22.934      858.810
06/27/2014  19:55:00     -388.135     -173.474       -5.436      189.275      177.019       94.115    35824.970    31335.550     8857.596       12.838        3.801      425.138      105.044        0.061      345.399       22.897      858.819
06/27/2014  19:56:00     -374.295     -155.749      -18.293      206.746      161.136       87.055    42743.747    25964.697     7578.615       12.048        3.814      405.407       75.295        0.034      345.395       22.892      858.822
06/27/2014  19:57:00     -380.827     -201.546       -4.029      248.122      198.272       85.611    61564.444    39311.695     7329.236       14.692        5.410      430.871      105.751        0.060      345.368       22.846      858.832
06/27/2014  19:58:00     -300.035     -135.344       10.039      184.861      169.171       88.770    34173.511    28618.920     7880.054        8.954        3.534      329.149       98.280        0.089      345.329       22.777      858.847
06/27/2014  19:59:00     -217.012      -90.698       13.642      213.005      144.765      110.371    45371.249    20956.923    12181.741        6.699        3.925      235.202      119.315        0.257      345.330       22.781      858.850
06/27/2014  20:00:00     -476.403     -244.101       -8.969      246.812      206.725      107.258    60916.058    42735.036    11504.345       20.087        5.758      535.299      125.348        0.055      345.263       22.665      858.842
06/27/2014  20:01:00     -366.972     -245.963      -18.310      209.216      166.523      102.345    43771.393    27729.815    10474.503       13.873        4.099      441.777      100.084        0.051      345.242       22.630      858.876
06/27/2014  20:02:00     -325.321      -72.405        2.423      210.105      161.867       89.205    44144.315    26200.837     7957.578        9.468        3.915      333.281      106.613        0.102      345.228       22.605      858.892
06/27/2014  20:03:00     -620.255     -219.193      -31.481      291.596      194.135       91.142    85028.418    37688.584     8306.919       28.237        6.551      657.846      101.926        0.024      345.195       22.547      858.875
06/27/2014  20:04:00     -259.826     -119.573       14.717      198.002      163.190       88.541    39204.608    26630.952     7839.506        7.784        3.684      286.020      106.705        0.139      345.209       22.573      858.900
06/27/2014  20:05:00     -373.755     -170.575      -23.815      276.735      161.179      112.307    76582.141    25978.830    12612.894       14.225        5.759      410.839      139.813        0.116      345.166       22.499      858.896
06/27/2014  20:06:00     -452.218     -151.316      -10.575      245.536      170.520      106.177    60288.121    29077.088    11273.472       16.406        5.032      476.862      126.263        0.070      345.156       22.482      858.933
06/27/2014  20:07:00     -145.117      -81.156       10.970      185.005      161.475       86.600    34226.807    26074.241     7499.636        4.777        3.390      166.269       85.190        0.263      345.164       22.497      858.938
06/27/2014  20:08:00     -254.485      -82.057      -13.417      150.265      152.213       59.599    22579.436    23168.652     3552.028        6.048        2.465      267.388       60.504        0.051      345.137       22.449      858.952
06/27/2014  20:09:00     -486.776     -105.043      -36.813      202.101      170.872       91.867    40844.758    29197.272     8439.491       16.390        3.924      497.981      102.454        0.042      345.096       22.380      858.982
06/27/2014  20:10:00     -342.293      -45.563      -12.025      204.872      129.953       78.652    41972.387    16887.836     6186.186        9.220        3.252      345.312       90.448        0.069      345.093       22.375      858.993
06/27/2014  20:11:00     -284.876     -203.587       11.688      207.192      145.616      107.355    42928.356    21204.004    11525.003        9.919        3.783      350.145      120.249        0.118      345.085       22.360      859.014
06/27/2014  20:12:00     -334.664      -18.456       -6.138      239.303      147.571       90.415    57266.009    21777.327     8174.789        9.978        4.361      335.173      102.995        0.094      345.067       22.329      859.024
06/27/2014  20:13:00     -343.324     -143.121      -21.194      157.305      137.531       77.336    24744.806    18914.801     5980.809        9.421        2.482      371.961       75.143        0.041      345.044       22.290      859.051
06/27/2014  20:14:00     -342.741      -77.346      -29.732      212.571      133.478       60.470    45186.534    17816.499     3656.679        9.549        3.333      351.359       80.145        0.052      345.048       22.296      859.066
06/27/2014  20:15:00     -463.638      -61.388      -12.734      227.905      168.330      103.380    51940.610    28334.854    10687.368       15.491        4.548      467.684      111.418        0.057      345.007       22.228      859.047
06/27/2014  20:16:00     -134.303      -95.162       42.166      205.495      171.804       96.801    42228.157    29516.555     9370.501        5.498        4.056      164.600      106.876        0.422      345.025       22.259      859.057
06/27/2014  20:17:00     -442.641     -110.270      -18.691      222.030      175.467       91.530    49297.471    30788.756     8377.685       14.844        4.423      456.170      103.631        0.052      345.010       22.233      859.098
06/27/2014  20:18:00     -346.139      -55.400       -2.347      192.903      159.345       85.116    37211.563    25390.681     7244.753        9.636        3.492      350.544       84.543        0.058      344.998       22.213      859.095
06/27/2014  20:19:00     -492.718      -97.641      -24.152      202.367      226.822      106.442    40952.462    51448.446    11329.890       17.829        5.187      502.300      102.744        0.042      344.954       22.135      859.082
06/27/2014  20:20:00     -381.283      -98.676      -17.620      211.920      153.778       72.793    44910.082    23647.776     5298.842       11.463        3.693      393.845       95.266        0.059      344.953       22.135      859.105
06/27/2014  20:21:00     -387.782      -37.280      -16.946      192.412      121.468       93.460    37022.451    14754.392     8734.822       10.627        3.026      389.570       93.303        0.057      344.944       22.120      859.105
06/27/2014  20:22:00     -391.864      -69.775       -9.499      184.328      178.419       98.964    33976.846    31833.308     9793.846       11.705        3.780      398.028      102.772        0.067      344.913       22.065      859.110
06/27/2014  20:23:00     -418.659      -54.362       -1.503      241.915      187.945       91.040    58522.772    35323.226     8288.304       14.017        5.107      422.174      112.615        0.071      344.909       22.059      859.124
06/27/2014  20:24:00     -367.725      -97.497       -9.383      211.505      195.021       89.243    44734.363    38033.319     7964.284       11.776        4.537      380.431      100.002        0.069      344.879       22.006      859.118
06/27/2014  20:25:00     -433.570     -113.886        8.477      229.753      190.701       96.651    52786.308    36367.051     9341.457       14.974        4.925      448.278      116.487        0.068      344.871       21.996      859.150
06/27/2014  20:26:00     -302.042      -44.381        8.865      195.994      125.408       84.980    38413.586    15727.061     7221.545        7.731        3.068      305.285       80.374        0.069      344.870       21.993      859.167
06/27/2014  20:27:00     -329.493     -111.918       -9.656      161.769      137.796       81.388    26169.352    18987.814     6624.049        8.647        2.589      347.982       75.439        0.047      344.851       21.961      859.168
06/27/2014  20:28:00     -238.062      -84.728        5.841      157.046      119.437       64.925    24663.301    14265.244     4215.208        5.351        2.157      252.690       80.381        0.101      344.840       21.942      859.180
06/27/2014  20:29:00     -225.751      -51.555       -0.826      123.342      119.874       54.261    15213.264    14369.748     2944.245        4.307        1.626      231.563       58.772        0.064      344.844       21.948      859.168
06/27/2014  20:30:00     -280.553      -90.732        7.294      195.812      159.822       87.078    38342.427    25543.113     7582.545        7.922        3.573      294.860      106.918        0.131      344.815       21.898      859.126
06/27/2014  20:31:00     -383.182     -160.935      -12.241      186.622      158.426       70.280    34827.776    25098.932     4939.322       11.886        3.243      415.606       78.256        0.035      344.812       21.892      859.108
06/27/2014  20:32:00     -396.328      -78.760      -20.378      164.370      165.505       79.532    27017.524    27391.997     6325.376       11.220        3.037      404.078       73.835        0.033      344.763       21.809      859.126
06/27/2014  20:33:00     -361.971     -127.841      -12.242      166.836      154.821       81.910    27834.163    23969.557     6709.175       10.300        2.926      383.884       77.898        0.041      344.781       21.840      859.126
06/27/2014  20:34:00     -408.222     -138.320        2.295      289.782      184.859       88.020    83973.594    34172.690     7747.459       15.582        6.295      431.019      104.519        0.059      344.756       21.797      859.144
06/27/2014  20:35:00     -344.453     -122.402       -0.141      201.385      169.384       98.357    40556.072    28691.040     9674.167       10.626        3.946      365.554      105.584        0.083      344.744       21.778      859.142
06/27/2014  20:36:00     -326.773      -78.987      -17.391      167.567      123.617       67.304    28078.567    15281.253     4529.796        8.060        2.394      336.183       80.603        0.057      344.716       21.728      859.145
06/27/2014  20:37:00     -320.712      -91.305       26.401      254.888      170.067      119.568    64967.646    28922.817    14296.460       11.002        5.409      333.456      149.839        0.202      344.716       21.728      859.132
06/27/2014  20:38:00     -412.865      -84.089      -13.376      231.415      193.979      101.512    53553.118    37627.661    10304.679       13.958        5.074      421.341      116.265        0.076      344.687       21.678      859.130
06/27/2014  20:39:00     -435.266     -104.247      -27.226      177.626      145.905       89.817    31551.062    21288.262     8067.038       13.098        3.045      447.576       83.805        0.035      344.695       21.691      859.119
06/27/2014  20:40:00     -231.167      -17.115      -10.559      155.557      118.834       83.693    24198.105    14121.459     7004.575        4.958        2.266      231.800       84.294        0.132      344.680       21.667      859.136
06/27/2014  20:41:00     -505.001      -50.669      -21.460      258.152      190.953       97.327    66642.415    36463.006     9472.617       18.530        5.629      507.537      113.187        0.050      344.650       21.615      859.103
06/27/2014  20:42:00     -454.939     -108.145      -14.137      271.698      209.169       99.380    73819.591    43751.580     9876.474       17.314        6.372      467.617      107.949        0.053      344.645       21.606      859.088
06/27/2014  20:43:00     -378.872     -155.747       -1.448      231.288      221.092      105.703    53494.297    48881.540    11173.120       14.066        5.677      409.635      114.499        0.078      344.656       21.626      859.101
06/27/2014  20:44:00     -579.809      -90.771      -18.490      267.075      203.481      117.761    71329.175    41404.619    13867.573       23.566        6.330      586.871      124.630        0.045      344.624       21.571      859.081
06/27/2014  20:45:00     -441.788     -101.346      -14.295      234.287      189.491       99.275    54890.248    35906.766     9855.477       15.314        5.033      453.263      103.670        0.052      344.619       21.562      859.093
06/27/2014  20:46:00     -465.378      -51.942      -11.923      234.281      181.214      105.394    54887.644    32838.508    11107.952       15.911        4.942      468.268      115.556        0.061      344.603       21.537      859.082
06/27/2014  20:47:00     -480.198      -26.132      -25.673      150.339      149.750       68.567    22601.872    22425.063     4701.448       14.082        2.486      480.909       62.514        0.017      344.594       21.521      859.144
06/27/2014  20:48:00     -555.494     -100.914       -9.047      300.668      175.838       98.820    90401.039    30919.118     9765.387       22.494        6.554      564.586      124.280        0.048      344.581       21.498      859.139
06/27/2014  20:49:00     -471.044      -89.910      -35.597      177.554      144.729       82.278    31525.535    20946.501     6769.669       14.523        2.962      479.548       85.998        0.032      344.579       21.493      859.186
06/27/2014  20:50:00     -420.382     -107.525      -10.188      225.942      151.868       95.426    51049.755    23063.805     9106.124       13.579        4.161      433.915      109.350        0.064      344.568       21.474      859.192
06/27/2014  20:51:00     -360.695      -21.578      -26.886      278.162      167.186       93.257    77374.135    27951.034     8696.895       12.264        5.701      361.340      118.667        0.108      344.575       21.488      859.197
06/27/2014  20:52:00     -438.540      -85.105        3.104      234.613      205.681       97.165    55043.178    42304.671     9441.018       15.316        5.339      446.721      109.911        0.061      344.537       21.423      859.196
06/27/2014  20:53:00     -223.972      -31.712       -3.579      164.296      121.438       73.647    26993.093    14747.212     5423.920        4.917        2.358      226.206       73.545        0.106      344.549       21.444      859.211
06/27/2014  20:54:00     -387.081     -128.929      -21.887      144.626      169.648       94.364    20916.639    28780.450     8904.557       11.276        2.930      407.988       82.170        0.041      344.554       21.451      859.188
06/27/2014  20:55:00     -587.297       13.215      -44.902      210.661      172.482       84.355    44378.126    29750.212     7115.738       21.416        4.062      587.446       79.219        0.018      344.521       21.397      859.178
06/27/2014  20:56:00     -349.692      -51.265      -18.649      171.922      209.232       89.032    29557.088    43778.137     7926.644       10.325        4.063      353.430       72.470        0.042      344.511       21.378      859.178
06/27/2014  20:57:00     -513.717     -105.198      -30.010      211.912      145.143       89.016    44906.716    21066.557     7923.877       17.487        3.695      524.378       99.423        0.036      344.483       21.331      859.178
06/27/2014  20:58:00     -452.022     -141.647      -25.114      247.548      172.464       96.939    61280.084    29743.813     9397.159       16.270        5.021      473.696      105.678        0.050      344.493       21.347      859.153
06/27/2014  20:59:00     -370.395      -33.888       -2.446      199.527      121.619       87.748    39810.921    14791.121     7699.641       10.031        3.115      371.942       99.817        0.072      344.465       21.299      859.165
06/27/2014  21:00:00     -274.830      -30.892        0.296      173.526      155.000       78.199    30111.168    24025.110     6115.071        6.836        3.013      276.561       80.324        0.084      344.455       21.282      859.165
06/27/2014  21:01:00     -540.689      -44.002      -31.495      238.742      138.103       90.103    56997.945    19072.329     8118.550       18.972        4.209      542.476      109.254        0.041      344.442       21.259      859.156
06/27/2014  21:02:00     -620.325     -103.418      -27.383      273.504      207.282      111.354    74804.438    42965.627    12399.767       26.319        6.508      628.886      132.148        0.044      344.425       21.231      859.116
06/27/2014  21:03:00     -524.805     -156.323      -24.857      200.668      175.543       90.650    40267.728    30815.391     8217.364       18.987        3.965      547.592       94.108        0.030      344.410       21.205      859.104
06/27/2014  21:04:00     -543.791      -85.203      -35.568      194.290      172.797       88.241    37748.765    29858.805     7786.406       18.980        3.770      550.425       80.226        0.021      344.388       21.169      859.160
06/27/2014  21:05:00     -351.685      -82.029      -15.726      227.276      146.800       85.579    51654.428    21550.316     7323.695       10.558        4.026      361.125      103.480        0.082      344.367       21.133      859.166
06/27/2014  21:06:00     -484.896       -9.199      -44.706      193.709      171.241       77.893    37523.066    29323.421     6067.301       15.505        3.646      484.983       86.433        0.032      344.358       21.118      859.170
06/27/2014  21:07:00     -564.231     -121.162      -42.351      234.492      183.117       87.582    54986.454    33531.728     7670.644       21.549        4.809      577.094      100.314        0.030      344.337       21.081      859.164
06/27/2014  21:08:00     -538.617      -98.018      -35.858      325.230      203.595       99.092   105774.526    41450.789     9819.272       22.900        7.852      547.464      130.879        0.057      344.343       21.091      859.123
06/27/2014  21:09:00     -507.688      -45.080      -43.594      200.448      147.373       91.002    40179.275    21718.761     8281.290       16.592        3.509      509.685       93.844        0.034      344.322       21.055      859.133
06/27/2014  21:10:00     -589.127       72.258      -50.866      236.302      158.323       97.741    55838.838    25066.048     9553.243       22.265        4.523      593.542      109.489        0.034      344.288       20.997      859.134
06/27/2014  21:11:00     -477.779      -47.096      -24.637      203.513      200.354       96.012    41417.424    40141.724     9218.246       16.092        4.539      480.095       95.001        0.039      344.277       20.979      859.169
06/27/2014  21:12:00     -439.805      -63.379      -22.651      199.909      178.435       79.159    39963.768    31839.025     6266.176       13.800        3.903      444.348       81.661        0.034      344.286       20.993      859.180
06/27/2014  21:13:00     -531.648      -99.458      -49.896      190.093      175.396       86.270    36135.538    30763.782     7442.455       18.467        3.717      540.871       99.933        0.034      344.293       21.005      859.181
06/27/2014  21:14:00     -524.877      -25.931      -36.147      228.689      186.111       88.283    52298.663    34637.352     7793.968       18.609        4.736      525.517       85.859        0.027      344.264       20.956      859.182
06/27/2014  21:15:00     -580.740      -84.410      -59.573      289.547      150.243       90.130    83837.506    22572.848     8123.370       23.121        5.727      586.842      116.441        0.039      344.263       20.955      859.196
06/27/2014  21:16:00     -727.782     -138.829      -43.675      256.948      219.485       97.589    66022.450    48173.733     9523.707       33.726        6.186      740.905      110.676        0.022      344.245       20.926      859.162
06/27/2014  21:17:00     -444.679     -145.594      -22.375      180.951      156.412       90.558    32743.420    24464.665     8200.832       14.241        3.270      467.907       83.480        0.032      344.238       20.913      859.191
06/27/2014  21:18:00     -603.195      -62.600      -63.532      206.172      191.080       81.961    42506.917    36511.495     6717.679       22.875        4.287      606.434       76.094        0.016      344.235       20.906      859.208
06/27/2014  21:19:00     -446.401      -83.164      -11.124      212.434      169.579       93.686    45128.376    28757.079     8777.158       14.447        4.133      454.082       88.025        0.038      344.201       20.848      859.210
06/27/2014  21:20:00     -566.158     -114.715      -34.611      241.925      225.066       98.636    58527.886    50654.527     9729.006       22.688        5.946      577.662       77.048        0.018      344.192       20.832      859.203
06/27/2014  21:21:00     -605.593      -27.071      -51.833      184.974      178.492       97.452    34215.531    31859.488     9496.834       22.285        3.779      606.198       87.779        0.021      344.176       20.806      859.240
06/27/2014  21:22:00     -633.254      -15.725      -61.116      216.510      235.059      111.515    46876.532    55252.807    12435.505       25.976        5.728      633.449       85.147        0.018      344.170       20.795      859.223
06/27/2014  21:23:00     -505.629     -137.742      -46.437      232.079      171.295       89.556    53860.883    29341.828     8020.280       18.399        4.561      524.055       92.781        0.031      344.145       20.753      859.256
06/27/2014  21:24:00     -551.802     -121.313      -23.403      237.235      236.040      103.013    56280.637    55714.928    10611.640       22.116        6.130      564.980      114.147        0.041      344.118       20.707      859.266
06/27/2014  21:25:00     -366.462     -105.602       15.678      237.722      162.138      112.752    56511.948    26288.710    12713.097       12.059        4.776      381.375      132.837        0.121      344.102       20.681      859.280
06/27/2014  21:26:00     -582.523     -118.288      -45.510      167.862      169.645       83.450    28177.716    28779.421     6963.891       20.965        3.196      594.412       78.200        0.017      344.099       20.677      859.326
06/27/2014  21:27:00     -437.180      -19.900      -27.718      277.058      153.876       88.895    76761.084    23677.859     7902.282       15.030        5.417      437.633      119.489        0.075      344.073       20.631      859.351
06/27/2014  21:28:00     -372.166     -129.801       -6.282      238.554      146.725       85.068    56907.884    21528.246     7236.614       12.052        4.284      394.152      111.888        0.081      344.068       20.620      859.356
06/27/2014  21:29:00     -374.113      -14.810      -14.007      270.640      132.361      105.323    73246.148    17519.407    11092.848       12.110        5.093      374.406      125.098        0.112      344.055       20.599      859.394
06/27/2014  21:30:00     -505.074      -76.467      -34.983      238.060      147.785       88.935    56672.391    21840.353     7909.385       17.428        4.321      510.829      111.262        0.047      344.058       20.605      859.405
06/27/2014  21:31:00     -338.686       18.411       -7.914      241.448      149.334       81.765    58297.191    22300.534     6685.471       10.118        4.364      339.187       92.568        0.074      344.048       20.587      859.454
06/27/2014  21:32:00     -571.240      -44.709      -37.483      217.138      141.621       88.667    47148.824    20056.637     7861.924       20.238        3.753      572.987      103.552        0.033      344.052       20.594      859.486
06/27/2014  21:33:00     -304.478     -140.686        1.136      157.172      225.483       89.348    24702.974    50842.647     7983.039        9.800        4.176      335.410       86.358        0.066      344.046       20.584      859.514
06/27/2014  21:34:00     -352.994        1.197      -11.083      211.670      128.775       81.804    44804.176    16583.076     6691.896        9.639        3.404      352.996       84.937        0.058      344.005       20.515      859.544
06/27/2014  21:35:00     -224.726      -82.428      -10.151      134.855      124.832       73.826    18185.934    15583.093     5450.219        4.830        1.961      239.366       76.318        0.102      343.995       20.497      859.576
06/27/2014  21:36:00     -216.698      -25.533       -4.739      152.315      127.129       66.783    23199.780    16161.657     4459.906        4.572        2.191      218.197       72.071        0.109      343.968       20.451      859.560
06/27/2014  21:37:00     -376.925     -182.937      -14.225      188.416      151.972       89.705    35500.550    23095.469     8047.042       12.118        3.332      418.973       77.211        0.034      343.966       20.448      859.585
06/27/2014  21:38:00     -600.026      -58.762      -50.185      191.682      132.796       90.692    36742.033    17634.854     8225.121       21.429        3.130      602.896       93.512        0.024      343.975       20.461      859.615
06/27/2014  21:39:00     -348.170      -44.053      -19.818      168.809      125.723       76.764    28496.319    15806.305     5892.775        8.687        2.510      350.945       89.594        0.065      343.952       20.422      859.627
06/27/2014  21:40:00     -517.266     -128.817      -28.358      245.034      226.576       99.463    60041.453    51336.602     9892.813       20.310        6.064      533.065      106.211        0.040      343.977       20.467      859.618
06/27/2014  21:41:00     -543.775      -66.578      -31.239      248.707      228.016       98.476    61855.044    51991.319     9697.565       21.230        6.177      547.836      101.114        0.034      343.977       20.463      859.613
06/27/2014  21:42:00     -414.813      -89.976      -21.013      266.897      159.810       95.027    71233.857    25539.098     9030.086       14.319        5.290      424.459      118.830        0.078      343.989       20.487      859.631
06/27/2014  21:43:00     -473.281        9.723      -37.657      228.497      121.072       85.204    52211.098    14658.453     7259.744       14.981        3.706      473.381       99.329        0.044      343.972       20.455      859.638
06/27/2014  21:44:00     -562.490     -168.134      -16.321      230.320      177.224       92.451    53047.264    31408.380     8547.253       21.895        4.650      587.081      108.741        0.034      343.955       20.427      859.632
06/27/2014  21:45:00     -598.237      -12.218      -58.075      182.483      162.171       96.234    33300.018    26299.354     9260.889       21.512        3.443      598.361       99.017        0.027      343.932       20.388      859.638
06/27/2014  21:46:00     -388.707      -73.178      -29.370      203.704      141.662       86.228    41495.446    20068.096     7435.324       11.314        3.450      395.535       94.288        0.057      343.930       20.386      859.665
06/27/2014  21:47:00     -261.650      -69.094       -8.354      156.886      114.948       66.531    24613.194    13212.996     4426.431        5.777        2.113      270.619       59.951        0.049      343.922       20.372      859.670
06/27/2014  21:48:00     -276.951      -83.207       -8.945      164.942      137.455       69.496    27205.774    18893.792     4829.689        6.731        2.546      289.180       80.104        0.077      343.898       20.332      859.665
06/27/2014  21:49:00     -406.766       22.917      -29.409      188.317      120.629       75.089    35463.299    14551.375     5638.408       11.124        2.783      407.411       88.537        0.047      343.887       20.312      859.677
06/27/2014  21:50:00     -394.612      -92.658      -14.919      193.362      154.532       79.310    37388.966    23879.999     6290.009       11.603        3.378      405.344       85.947        0.045      343.894       20.325      859.657
06/27/2014  21:51:00     -353.190      -47.096        4.651      175.764      163.223       87.010    30893.033    26641.660     7570.708        9.603        3.255      356.316       91.964        0.067      343.860       20.266      859.667
06/27/2014  21:52:00     -248.869      -61.549       10.029      141.388      169.708       92.317    19990.463    28800.653     8522.382        6.156        2.866      256.367       98.991        0.149      343.903       20.340      859.645
06/27/2014  21:53:00     -561.865       -6.204      -37.220      225.258      188.241       97.649    50740.943    35434.516     9535.294       20.640        4.786      561.899       97.988        0.030      343.886       20.311      859.656
06/27/2014  21:54:00     -258.898     -115.058      -11.662      186.550      149.895       77.747    34800.938    22468.518     6044.644        7.185        3.166      283.314       81.299        0.082      343.862       20.271      859.681
06/27/2014  21:55:00     -305.259     -142.281       -5.561      242.365      169.266       85.044    58740.747    28650.826     7232.489       10.403        4.731      336.789      100.354        0.089      343.864       20.273      859.673
06/27/2014  21:56:00     -243.821      -80.331        4.219      167.831      116.223       70.496    28167.193    13507.799     4969.730        5.627        2.332      256.714       87.556        0.116      343.844       20.240      859.685
06/27/2014  21:57:00     -286.651      -57.070       -1.122      198.010      145.702       85.788    39207.996    21229.215     7359.516        7.660        3.390      292.277       91.847        0.099      343.851       20.252      859.694
06/27/2014  21:58:00     -377.592     -132.208      -20.557      178.790      147.214       88.247    31965.900    21672.104     7787.570       11.094        3.071      400.068       83.760        0.044      343.840       20.232      859.702
06/27/2014  21:59:00     -366.200      -97.641       -8.667      212.959      197.477       82.877    45351.567    38997.221     6868.590       11.745        4.561      378.993       86.965        0.053      343.844       20.240      859.672
06/27/2014  22:00:00     -230.307       27.302       -7.755      155.614       96.541       67.765    24215.691     9320.109     4592.128        4.598        1.906      231.920       75.583        0.106      343.810       20.183      859.721
06/27/2014  22:01:00     -205.303      -54.553        9.315      165.418      186.473       80.968    27363.252    34772.289     6555.895        5.694        3.435      212.428       76.743        0.131      343.810       20.181      859.727
06/27/2014  22:02:00     -320.623      -70.512        3.075      150.186      156.723       77.508    22555.876    24562.003     6007.545        8.044        2.656      328.285       75.357        0.053      343.805       20.174      859.738
06/27/2014  22:03:00     -318.188       21.408      -24.064      162.517      137.561       60.436    26411.674    18922.935     3652.497        7.563        2.449      318.907       54.892        0.030      343.790       20.147      859.739
06/27/2014  22:04:00     -354.886      -19.638      -24.853      229.722      118.947       84.415    52772.375    14148.498     7125.858       10.048        3.702      355.429      105.565        0.088      343.768       20.111      859.741
06/27/2014  22:05:00     -234.607      -64.946        7.429      152.721      116.889       76.964    23323.753    13662.946     5923.505        5.110        2.146      243.431       92.139        0.143      343.763       20.101      859.739
06/27/2014  22:06:00     -256.733     -105.785      -15.877      108.860      122.202       64.524    11850.475    14933.257     4163.323        5.415        1.547      277.672       55.176        0.039      343.772       20.116      859.699
06/27/2014  22:07:00     -166.126      -71.484        4.472      155.211       89.793       61.106    24090.443     8062.768     3733.991        3.430        1.794      180.853       65.304        0.130      343.766       20.106      859.685
06/27/2014  22:08:00     -301.617      -73.517      -17.980      236.893      141.465       81.403    56118.179    20012.342     6626.458        8.971        4.138      310.447      108.187        0.121      343.768       20.108      859.661
06/27/2014  22:09:00     -170.603      -89.472       16.975      157.468      102.582       61.899    24796.168    10523.103     3831.447        3.827        1.958      192.641       69.928        0.132      343.719       20.026      859.663
06/27/2014  22:10:00     -185.767      -62.139        8.017      129.384      112.108       58.206    16740.282    12568.275     3387.924        3.556        1.635      195.885       64.207        0.107      343.697       19.988      859.666
06/27/2014  22:11:00     -333.883     -105.233       -6.537      209.683      165.453       86.361    43967.122    27374.792     7458.175       10.068        3.940      350.074       92.232        0.069      343.734       20.051      859.674
06/27/2014  22:12:00     -377.386        1.434      -18.032      191.597      148.042       82.036    36709.423    21916.426     6729.960       10.404        3.268      377.389       91.696        0.059      343.726       20.036      859.682
06/27/2014  22:13:00     -293.597       12.209       -9.285      163.259      154.141       83.619    26653.529    23759.332     6992.213        7.191        2.870      293.851       89.624        0.093      343.697       19.988      859.685
06/27/2014  22:14:00     -473.986      -53.998      -11.649      274.751      141.235       84.249    75488.370    19947.307     7097.886       16.511        5.127      477.052      104.630        0.048      343.727       20.040      859.646
06/27/2014  22:15:00     -449.133       72.640      -41.149      135.748      140.171       77.558    18427.605    19647.929     6015.201       12.638        2.205      454.969       68.834        0.023      343.708       20.005      859.655
06/27/2014  22:16:00     -456.770     -103.854       -6.620      209.184      155.386       90.780    43757.815    24144.795     8240.974       14.779        3.807      468.428       94.805        0.041      343.696       19.986      859.653
06/27/2014  22:17:00     -512.218      -99.408      -31.872      221.168      211.951       91.009    48915.169    44923.243     8282.696       18.768        5.106      521.775      104.226        0.040      343.716       20.019      859.647
06/27/2014  22:18:00     -516.342      -46.957      -39.791      187.548      167.430       97.199    35174.283    28032.954     9447.737       17.151        3.633      518.472      105.723        0.042      343.699       19.990      859.634
06/27/2014  22:19:00     -414.583     -100.547      -44.810      149.737      165.894       72.968    22421.199    27520.855     5324.358       11.962        2.763      426.602       67.526        0.025      343.689       19.973      859.604
06/27/2014  22:20:00     -206.616      -64.436       23.808      152.840      127.265       87.533    23360.131    16196.428     7661.983        4.731        2.361      216.431       83.918        0.150      343.662       19.928      859.589
06/27/2014  22:21:00     -453.055      -92.878       -8.807      206.709      168.012       86.201    42728.654    28227.992     7430.684       14.616        3.919      462.477       92.969        0.040      343.658       19.921      859.557
06/27/2014  22:22:00     -514.713     -127.318       -7.824      202.579      158.425      103.459    41038.066    25098.606    10703.779       17.901        3.842      530.226      111.721        0.044      343.680       19.958      859.550
06/27/2014  22:23:00     -476.110      -67.722      -28.195      179.390      142.508       68.142    32180.863    20308.668     4643.324       14.459        2.857      480.902       75.516        0.025      343.674       19.946      859.562
06/27/2014  22:24:00     -275.483        7.732      -11.611      167.387      110.189       59.225    28018.301    12141.523     3507.648        5.987        2.183      275.592       69.367        0.063      343.642       19.895      859.543
06/27/2014  22:25:00     -529.992     -162.918      -22.200      255.823      194.424       85.203    65445.162    37800.832     7259.525       20.920        5.525      554.467       98.977        0.032      343.653       19.911      859.529
06/27/2014  22:26:00     -160.849     -114.612       20.965      170.247      156.810       92.017    28983.885    24589.433     8467.162        5.073        3.102      197.506       98.903        0.251      343.642       19.895      859.503
06/27/2014  22:27:00     -637.649     -129.531      -39.622      249.468      167.934       86.162    62234.229    28201.851     7423.839       26.139        4.893      650.672       73.789        0.013      343.673       19.946      859.490
06/27/2014  22:28:00     -666.696     -165.818      -54.820      208.125      202.267       85.972    43316.195    40912.051     7391.200       28.329        4.581      687.007       77.768        0.013      343.651       19.908      859.464
06/27/2014  22:29:00     -326.883      -80.317       -4.452      146.350      144.024       74.602    21418.409    20742.866     5565.442        8.052        2.386      336.605       81.870        0.059      343.606       19.831      859.462
06/27/2014  22:30:00     -396.732     -110.783      -18.896      272.914      143.798       88.999    74482.066    20677.974     7920.825       13.654        5.154      411.909      103.430        0.063      343.640       19.890      859.427
06/27/2014  22:31:00     -426.862     -168.931      -20.037      261.146      194.093       92.082    68196.975    37672.204     8479.052       16.273        5.717      459.074      115.917        0.064      343.639       19.887      859.418
06/27/2014  22:32:00     -552.699      -24.514      -54.141      191.821      166.414       91.284    36795.189    27693.536     8332.845       19.090        3.641      553.242       82.896        0.022      343.637       19.886      859.425
06/27/2014  22:33:00     -401.311      -50.939      -28.959      242.117      118.898       79.177    58620.694    14136.833     6268.924       12.174        3.951      404.531      105.739        0.068      343.615       19.847      859.455
06/27/2014  22:34:00     -442.238      -35.244      -32.241      262.744      174.911       89.693    69034.220    30593.921     8044.916       15.275        5.384      443.641      126.802        0.082      343.610       19.840      859.481
06/27/2014  22:35:00     -420.643        4.856      -26.116      225.850      153.531       72.269    51008.328    23571.883     5222.825       12.871        3.990      420.671       82.390        0.038      343.609       19.840      859.523
06/27/2014  22:36:00     -500.351      -37.848      -31.829      238.836      128.008       88.351    57042.554    16386.020     7805.896       16.700        4.062      501.781      102.802        0.042      343.614       19.846      859.515
06/27/2014  22:37:00     -275.162      -87.992       -0.128      198.395      117.905       77.891    39360.637    13901.552     6066.952        7.138        2.966      288.889       90.008        0.097      343.575       19.780      859.532
06/27/2014  22:38:00     -335.568      -30.061      -12.707      125.450      122.345       63.360    15737.753    14968.195     4014.533        7.419        1.736      336.911       68.419        0.041      343.585       19.795      859.562
06/27/2014  22:39:00     -356.733      -73.941      -20.937      176.831      137.640       68.557    31269.283    18944.737     4700.005        9.403        2.746      364.316       81.408        0.050      343.575       19.780      859.591
06/27/2014  22:40:00     -120.648     -119.699       -0.331      155.095      132.172       73.220    24054.346    17469.352     5361.202        3.788        2.344      169.953       75.123        0.195      343.591       19.807      859.587
06/27/2014  22:41:00     -120.669      -89.517       -6.027      137.245       95.544       76.808    18836.258     9128.745     5899.450        2.823        1.693      150.247       80.966        0.290      343.576       19.783      859.637
06/27/2014  22:42:00     -262.772     -115.140        3.100      179.625      117.337       80.652    32265.075    13768.022     6504.782        6.742        2.627      286.891      101.107        0.124      343.543       19.725      859.637
06/27/2014  22:43:00     -365.170     -114.137      -18.436      200.310      151.370       81.896    40123.961    22912.872     6706.992       10.822        3.487      382.592      103.796        0.074      343.561       19.755      859.664
06/27/2014  22:44:00     -135.336       12.837       23.357      147.670      118.938       75.321    21806.415    14146.192     5673.319        3.032        2.081      135.944       78.094        0.330      343.534       19.712      859.696
06/27/2014  22:45:00     -288.752     -184.636        4.521      186.741      148.398       84.935    34872.074    22022.108     7214.032        9.079        3.205      342.737       91.763        0.072      343.565       19.763      859.688
06/27/2014  22:46:00     -253.897     -106.705      -19.104      102.261       96.438       48.736    10457.218     9300.320     2375.188        4.917        1.107      275.408       47.444        0.030      343.562       19.757      859.737
06/27/2014  22:47:00     -119.873     -121.968        5.814       81.748       90.759       48.126     6682.739     8237.265     2316.119        2.325        0.862      171.014       43.485        0.065      343.575       19.781      859.751
06/27/2014  22:48:00     -258.865     -118.067       -3.103      206.986      118.821       66.747    42843.314    14118.485     4455.103        7.118        3.071      284.519       84.922        0.089      343.604       19.829      859.728
06/27/2014  22:49:00      -68.183      -72.546        5.510       95.300      101.594       45.948     9082.115    10321.417     2111.201        1.572        1.076       99.558       34.442        0.120      343.594       19.813      859.740
06/27/2014  22:50:00     -132.163     -134.933       -2.103      120.602       75.849       43.115    14544.813     5753.146     1858.923        2.891        1.108      188.876       40.918        0.047      343.613       19.845      859.768
06/27/2014  22:51:00     -253.774      -94.585        1.068      159.962       92.272       66.186    25587.755     8514.059     4380.581        5.591        1.924      270.827       75.227        0.077      343.568       19.768      859.766
06/27/2014  22:52:00     -374.279     -118.910       -6.288      180.613      132.527       79.635    32621.219    17563.493     6341.676       10.539        2.826      392.714       74.556        0.036      343.576       19.781      859.769
06/27/2014  22:53:00     -358.199     -175.673       -1.584      183.221      118.941       76.108    33569.962    14147.041     5792.373       10.633        2.675      398.958       83.470        0.044      343.587       19.799      859.814
06/27/2014  22:54:00     -469.345     -188.886      -22.838      200.224      169.026       88.405    40089.609    28569.703     7815.358       16.647        3.824      505.928       97.664        0.037      343.612       19.842      859.784
06/27/2014  22:55:00     -379.449     -254.861      -21.621      206.876      131.024       94.580    42797.495    17167.403     8945.429       13.915        3.446      457.095       83.308        0.033      343.613       19.844      859.847
06/27/2014  22:56:00     -240.155     -173.461        6.403      155.863      115.746       67.898    24293.325    13397.130     4610.138        6.505        2.115      296.248       78.711        0.071      343.608       19.837      859.857
06/27/2014  22:57:00     -326.141     -188.043      -12.003      147.765      116.674       75.331    21834.618    13612.789     5674.834        9.149        2.056      376.468       82.873        0.048      343.585       19.795      859.835
06/27/2014  22:58:00     -397.512     -287.279      -11.053      192.542      177.856       75.768    37072.597    31632.737     5740.818       15.754        3.722      490.454       75.823        0.024      343.621       19.858      859.851
06/27/2014  22:59:00     -253.735      -92.115       10.589      162.376      139.851       71.826    26366.066    19558.199     5158.988        6.202        2.554      269.938       75.952        0.079      343.629       19.872      859.857
06/27/2014  23:00:00     -217.361      -94.546        2.258      144.401      134.178       64.189    20851.665    18003.674     4120.255        4.958        2.149      237.033       65.442        0.076      343.611       19.842      859.843
06/27/2014  23:01:00     -321.904      -93.798       -2.587      146.544      136.689       63.285    21475.058    18683.865     4004.936        7.829        2.208      335.291       66.660        0.040      343.599       19.822      859.869
06/27/2014  23:02:00     -251.888     -167.320        1.903      163.659      116.112       73.112    26784.427    13482.060     5345.370        6.852        2.281      302.396       79.027        0.068      343.587       19.800      859.870
06/27/2014  23:03:00     -255.537     -127.231       -6.660      136.755       83.691       65.594    18701.978     7004.134     4302.631        5.577        1.500      285.459       67.455        0.056      343.593       19.810      859.905
06/27/2014  23:04:00     -160.145     -145.883        8.599       93.446      130.536       59.627     8732.101    17039.542     3555.349        3.816        1.466      216.629       62.695        0.084      343.589       19.803      859.894
06/27/2014  23:05:00     -309.447     -162.538        0.392      147.960       86.062       56.329    21892.150     7406.748     3172.942        7.732        1.624      349.536       63.737        0.033      343.556       19.748      859.888
06/27/2014  23:06:00     -349.925     -159.810        0.441      149.629      112.590       60.734    22388.905    12676.612     3688.649        9.336        1.938      384.691       60.030        0.024      343.568       19.769      859.924
06/27/2014  23:07:00     -224.342     -178.054        4.141      152.009       94.546       70.818    23106.592     8938.917     5015.176        5.955        1.853      286.413       65.763        0.053      343.627       19.868      859.932
06/27/2014  23:08:00     -265.870     -217.825       -2.529      120.375      111.687       68.920    14490.030    12473.959     4750.005        7.492        1.586      343.707       66.740        0.038      343.594       19.811      859.941
06/27/2014  23:09:00     -278.453     -202.973       -3.408      135.536       99.455       63.504    18369.997     9891.229     4032.806        7.551        1.615      344.578       68.284        0.039      343.553       19.742      859.951
06/27/2014  23:10:00     -221.279     -127.030        7.034      105.807       75.227       54.597    11195.174     5659.076     2980.819        4.249        0.992      255.149       64.025        0.063      343.501       19.654      859.954
06/27/2014  23:11:00     -212.859     -145.161        3.779      138.270      150.349       57.423    19118.560    22604.881     3297.453        5.570        2.251      257.644       69.357        0.072      343.495       19.645      859.987
06/27/2014  23:12:00     -205.829     -136.733       -8.705      106.670       86.099       57.344    11378.399     7413.043     3288.300        4.160        1.104      247.106       44.821        0.033      343.576       19.780      859.978
06/27/2014  23:13:00     -148.529     -182.690       -9.992       84.298       83.693       52.184     7106.170     7004.462     2723.199        3.618        0.842      235.450       43.131        0.034      343.567       19.765      859.983
06/27/2014  23:14:00     -148.345     -174.108        2.289      100.273       97.121       63.879    10054.618     9432.480     4080.482        3.794        1.178      228.736       67.155        0.086      343.558       19.751      860.000
06/27/2014  23:15:00     -174.674     -130.784       11.076      145.536      100.986       63.672    21180.854    10198.208     4054.062        4.158        1.772      218.209       76.559        0.123      343.514       19.677      860.028
06/27/2014  23:16:00     -187.877     -109.731       -6.058      107.898       59.090       47.409    11641.992     3491.683     2247.619        3.238        0.869      217.574       45.234        0.043      343.508       19.666      860.045
06/27/2014  23:17:00     -309.686     -108.324       -8.536      128.205      119.391       60.038    16436.483    14254.309     3604.520        7.100        1.715      328.085       69.406        0.045      343.511       19.671      860.032
06/27/2014  23:18:00     -228.214       -0.185      -10.780      173.175       88.914       48.664    29989.514     7905.715     2368.168        4.622        2.013      228.214       42.829        0.035      343.524       19.695      860.038
06/27/2014  23:19:00     -130.606     -110.438       12.195      107.069       88.878       54.440    11463.830     7899.355     2963.706        2.586        1.116      171.039       49.686        0.084      343.475       19.610      860.033
06/27/2014  23:20:00     -112.995      -87.426        2.180       83.791       57.747       36.545     7020.937     3334.743     1335.570        1.605        0.585      142.868       43.786        0.094      343.492       19.641      860.040
06/27/2014  23:21:00     -203.368     -128.589       -8.605       88.547       72.238       36.919     7840.598     5218.390     1363.019        3.619        0.721      240.610       40.774        0.029      343.490       19.636      860.052
06/27/2014  23:22:00     -142.212     -113.110        3.775       97.448       85.933       46.327     9496.139     7384.537     2146.165        2.603        0.951      181.709       50.349        0.077      343.485       19.629      860.077
06/27/2014  23:23:00     -113.497     -160.431       -4.523       57.394       68.301       36.247     3294.064     4664.994     1313.855        2.396        0.464      196.519       36.345        0.034      343.502       19.656      860.084
06/27/2014  23:24:00     -191.140      -68.159      -19.052       60.027       50.249       33.716     3603.188     2524.998     1136.746        2.440        0.363      202.929       31.868        0.025      343.475       19.609      860.097
06/27/2014  23:25:00     -150.270      -10.003        1.617      119.400       58.364       43.902    14256.438     3406.304     1927.364        2.113        0.980      150.603       51.581        0.117      343.407       19.495      860.101
06/27/2014  23:26:00     -134.055      -73.582        8.783       73.001       45.308       42.342     5329.192     2052.797     1792.883        1.632        0.459      152.921       35.514        0.054      343.481       19.622      860.122
06/27/2014  23:27:00      -74.367      -29.844       16.176       60.655       53.146       33.706     3679.026     2824.524     1136.062        0.716        0.382       80.132       33.003        0.170      343.400       19.485      860.106
06/27/2014  23:28:00     -131.600      -41.558       -0.895       75.448       50.756       32.847     5692.443     2576.201     1078.957        1.420        0.467      138.006       27.276        0.039      343.430       19.536      860.098
06/27/2014  23:29:00     -254.654      -84.471        2.053      129.815      115.024       61.754    16851.852    13230.458     3813.551        5.294        1.695      268.298       48.782        0.033      343.477       19.613      860.094
06/27/2014  23:30:00     -222.911     -122.687      -19.299      121.678       67.330       49.430    14805.517     4533.393     2443.291        4.344        1.089      254.443       55.162        0.047      343.493       19.640      860.075
06/27/2014  23:31:00     -196.908      -85.248       -4.005      121.454       59.991       48.667    14751.177     3598.976     2368.476        3.338        1.036      214.569       62.083        0.084      343.439       19.548      860.073
06/27/2014  23:32:00     -263.815      -65.013       -6.532      102.480       93.419       44.642    10502.125     8727.097     1992.948        4.754        1.061      271.708       46.259        0.029      343.429       19.531      860.086
06/27/2014  23:33:00     -128.469      -51.132        2.467       60.091       49.269       31.384     3610.899     2427.467      984.926        1.307        0.351      138.271       23.007        0.028      343.384       19.458      860.074
06/27/2014  23:34:00     -128.711      -70.683       17.113      103.606       72.514       55.589    10734.297     5258.222     3090.153        2.047        0.954      146.842       51.040        0.121      343.464       19.593      860.066
06/27/2014  23:35:00     -219.792      -68.537      -10.579       72.066       85.855       42.303     5193.454     7371.071     1789.558        3.373        0.718      230.230       42.490        0.034      343.553       19.740      860.062
06/27/2014  23:36:00     -167.243     -129.777        4.238      102.950       83.363       54.471    10598.655     6949.403     2967.057        3.267        1.026      211.689       51.122        0.058      343.471       19.602      860.053
06/27/2014  23:37:00      -62.298      -32.613       13.924       95.118       90.599       48.496     9047.366     8208.205     2351.863        1.237        0.980       70.318       55.181        0.616      343.318       19.346      860.049
06/27/2014  23:38:00      -74.799      -29.235       -8.943       35.258       29.348       22.637     1243.121      861.307      512.422        0.457        0.131       80.310       17.869        0.050      343.418       19.515      860.060
06/27/2014  23:39:00     -155.988     -172.637      -13.972      114.435      114.115       59.565    13095.387    13022.267     3547.984        4.199        1.483      232.671       50.568        0.047      343.456       19.577      860.050
06/27/2014  23:40:00     -180.055     -101.944       -2.642      125.663       98.168       54.871    15791.189     9637.018     3010.798        3.562        1.422      206.912       68.222        0.109      343.425       19.525      860.038
06/27/2014  23:41:00     -159.596     -144.838       -9.595       78.932       69.320       42.602     6230.236     4805.201     1814.922        2.969        0.643      215.520       39.388        0.033      343.493       19.641      860.029
06/27/2014  23:42:00     -154.221     -118.742       -4.423       58.044       55.829       35.110     3369.071     3116.841     1232.677        2.281        0.386      194.638       22.836        0.014      343.484       19.625      860.028
06/27/2014  23:43:00     -205.355      -86.976       10.240      116.625       85.900       48.989    13601.279     7378.759     2399.927        3.661        1.169      223.015       53.564        0.058      343.400       19.483      860.024
06/27/2014  23:44:00     -239.185     -151.069        1.576       92.048       81.761       46.064     8472.918     6684.789     2121.931        4.865        0.864      282.898       43.036        0.023      343.440       19.550      860.022
06/27/2014  23:45:00     -185.462      -51.291        0.809       76.054       58.480       36.667     5784.273     3419.939     1344.497        2.379        0.527      192.423       31.282        0.026      343.434       19.540      860.025
06/27/2014  23:46:00     -136.559      -50.976        4.396       64.713       69.552       34.383     4187.745     4837.498     1182.209        1.574        0.510      145.763       38.398        0.069      343.365       19.423      860.036
06/27/2014  23:47:00     -173.061      -82.308       -3.179      111.796       93.966       43.783    12498.439     8829.534     1916.943        2.999        1.162      191.637       46.746        0.060      343.427       19.528      860.040
06/27/2014  23:48:00      -84.380       -3.160        3.017       92.291       60.200       40.755     8517.636     3624.041     1660.990        1.047        0.690       84.439       40.089        0.225      343.319       19.346      860.062
06/27/2014  23:49:00     -141.039        1.171       -2.394       79.803       53.079       34.595     6368.483     2817.349     1196.814        1.514        0.519      141.044       42.477        0.091      343.333       19.369      860.077
06/27/2014  23:50:00     -126.896      -23.575      -13.449       68.902       35.632       25.621     4747.532     1269.653      656.441        1.176        0.334      129.068       24.759        0.037      343.361       19.418      860.091
06/27/2014  23:51:00      -60.827      -23.742        1.711       42.306       54.135       21.574     1789.809     2930.556      465.436        0.473        0.259       65.296       24.309        0.139      343.326       19.359      860.084
06/27/2014  23:52:00      -38.777      -57.445       -6.632       38.493       32.628       16.920     1481.708     1064.580      286.282        0.384        0.142       69.308       17.169        0.061      343.407       19.497      860.076
06/27/2014  23:53:00       -8.541        0.006       -0.691       26.443       22.187       11.307      699.225      492.285      127.841        0.070        0.066        8.541       16.622        3.788      343.363       19.423      860.087
06/27/2014  23:54:00       32.086       29.921        4.235       14.430       14.679       16.146      208.236      215.462      260.682        0.131        0.034       43.873        8.747        0.040      343.260       19.247      860.099
06/27/2014  23:55:00       67.875        3.194       10.475       28.297       22.896       22.964      800.745      524.234      527.326        0.329        0.093       67.950       12.214        0.032      342.821       18.499      860.107
06/27/2014  23:56:00       47.424      -14.952       -4.155       24.665       30.866       18.884      608.349      952.689      356.605        0.220        0.096       49.725        9.718        0.038      342.752       18.383      860.134
06/27/2014  23:57:00       48.105       10.021       -0.919       20.188       29.355       29.708      407.537      861.740      882.578        0.228        0.108       49.137       20.073        0.167      342.706       18.304      860.164
06/27/2014  23:58:00       49.328       21.319        9.260       23.317       23.846       21.698      543.699      568.645      470.782        0.228        0.079       53.738        7.228        0.018      342.908       18.645      860.188
06/27/2014  23:59:00       83.701       66.048        5.581       20.050       17.512       17.337      402.003      306.674      300.586        0.620        0.050      106.622       12.446        0.014      342.978       18.768      860.205
